[[{"header":{"parameterUnit":"m.s-1","parameterCategory":1,"la1":31.0,"la2":29.5877,"lo1":-88.7671,"lo2":-86.6584,"dy":0.0162,"dx":0.0185,"nx":115,"ny":88,"refTime":"2026-05-04T12:00:00:Z","depth":0,"parameterNumber":2,"parameterNumberName":"U-component_of_WINDS"},"data":[0.0,0.0,0.0,0.0,0.0,0.0,0.0,0.0,0.0,0.0,0.0,0.0,0.0,0.0,0.0,0.0,0.0,0.0,0.0,0.0,0.0,0.0,0.0,0.0,0.0,0.0,0.0,0.0,0.0,0.0,0.0,0.0,0.0,0.0,0.0,0.0,0.0,0.0,0.0,0.0,0.0,0.0,0.0,0.0,0.0,0.0,0.0,0.0,0.0,0.0,0.0,0.0,0.0,0.0,0.0,0.0,0.0,0.0,0.0,0.0,0.0,0.0,0.0,0.0,0.0,0.0,0.0,0.0,0.0,0.0,0.0,0.0,0.0,0.0,0.0,0.0,0.0,0.0,0.0,0.0,0.0,0.0,0.0,0.0,0.0,0.0,0.0,0.0,0.0,0.0,0.0,0.0,0.0,0.0,0.0,0.0,0.0,0.0,0.0,0.0,0.0,0.0,0.0,0.0,0.0,0.0,0.0,0.0,0.0,0.0,0.0,0.0,0.0,0.0,0.0,0.0,0.0,0.0,0.0,0.0,0.0,0.0,0.0,0.0,0.0,0.0,0.0,0.0,0.0,0.0,0.0,0.0,0.0,0.0,0.0,0.0,0.0,0.0,0.0,0.0,0.0,0.0,0.0,0.0,0.0,0.0,0.0,0.0,0.0,0.0,0.0,0.0,0.0,0.0,0.0,0.0,0.0,0.0,0.0,0.0,0.0,0.0,0.0,0.0,0.0,0.0,0.0,0.0,0.0,0.0,0.0,0.0,0.0,0.0,0.0,0.0,0.0,0.0,0.0,0.0,0.0,0.0,0.0,0.0,0.0,0.0,0.0,0.0,0.0,0.0,0.0,0.0,0.0,0.0,0.0,0.0,0.0,0.0,0.0,0.0,0.0,0.0,0.0,0.0,0.0,0.0,0.0,0.0,0.0,0.0,0.0,0.0,0.0,0.0,0.0,0.0,0.0,0.0,0.0,0.0,0.0,0.0,0.0,0.0,0.0,0.0,0.0,0.0,0.0,0.0,0.0,0.0,0.0,0.0,0.0,0.0,0.0,0.0,0.0,0.0,0.0,0.0,0.0,0.0,0.0,0.0,0.0,0.0,0.0,0.0,0.0,0.0,0.0,0.0,0.0,0.0,0.0,0.0,0.0,0.0,0.0,0.0,0.0,0.0,0.0,0.0,0.0,0.0,0.0,0.0,0.0,0.0,0.0,0.0,0.0,0.0,0.0,0.0,0.0,0.0,0.0,0.0,0.0,0.0,0.0,0.0,0.0,0.0,0.0,0.0,0.0,0.0,0.0,0.0,0.0,0.0,0.0,0.0,0.0,0.0,0.0,0.0,0.0,0.0,0.0,0.0,0.0,0.0,0.0,0.0,0.0,0.0,0.0,0.0,0.0,0.0,0.0,0.0,0.0,0.0,0.0,0.0,0.0,0.0,0.0,0.0,0.0,0.0,0.0,0.0,0.0,0.0,0.0,0.0,0.0,0.0,0.0,0.0,0.0,0.0,0.0,0.0,0.0,0.0,0.0,0.0,0.0,0.0,0.0,0.0,0.0,0.0,0.0,0.0,0.0,0.0,0.0,0.0,0.0,0.0,0.0,0.0,0.0,0.0,0.0,0.0,0.0,0.0,0.0,0.0,0.0,0.0,0.0,0.0,0.0,0.0,0.0,0.0,0.0,0.0,0.0,0.0,0.0,0.0,0.0,0.0,0.0,0.0,0.0,0.0,0.0,0.0,0.0,0.0,0.0,0.0,0.0,0.0,0.0,0.0,0.0,0.0,0.0,0.0,0.0,0.0,0.0,0.0,0.0,0.0,0.0,0.0,0.0,0.0,0.0,0.0,0.0,0.0,0.0,0.0,0.0,0.0,0.0,0.0,0.0,0.0,0.0,0.0,0.0,0.0,0.0,0.0,0.0,0.0,0.0,0.0,0.0,0.0,0.0,0.0,0.0,0.0,0.0,0.0,0.0,0.0,0.0,0.0,0.0,0.0,0.0,0.0,0.0,0.0,0.0,0.0,0.0,0.0,0.0,0.0,0.0,0.0,0.0,0.0,0.0,0.0,0.0,0.0,0.0,0.0,0.0,0.0,0.0,0.0,0.0,0.0,0.0,0.0,0.0,0.0,0.0,0.0,0.0,0.0,0.0,0.0,0.0,0.0,0.0,0.0,0.0,0.0,0.0,0.0,0.0,0.0,0.0,0.0,0.0,0.0,0.0,0.0,0.0,0.0,0.0,0.0,0.0,0.0,0.0,0.0,0.0,0.0,0.0,0.0,0.0,0.0,0.0,0.0,0.0,0.0,0.0,0.0,0.0,0.0,0.0,0.0,0.0,0.0,0.0,0.0,0.0,0.0,0.0,0.0,0.0,0.0,0.0,0.0,0.0,0.0,0.0,0.0,0.0,0.0,0.0,0.0,0.0,0.0,0.0,0.0,0.0,0.0,0.0,0.0,0.0,0.0,0.0,0.0,0.0,0.0,0.0,0.0,0.0,0.0,0.0,0.0,0.0,0.0,0.0,0.0,0.0,0.0,0.0,0.0,0.0,0.0,0.0,0.0,0.0,0.0,0.0,0.0,0.0,0.0,0.0,0.0,0.0,0.0,0.0,0.0,0.0,0.0,0.0,0.0,0.0,0.0,0.0,0.0,0.0,0.0,0.0,0.0,0.0,0.0,0.0,0.0,0.0,0.0,0.0,0.0,0.0,0.0,0.0,0.0,0.0,0.0,0.0,0.0,0.0,0.0,0.0,0.0,0.0,0.0,0.0,0.0,0.0,0.0,0.0,0.0,0.0,0.0,0.0,0.0,0.0,0.0,0.0,0.0,0.0,0.0,0.0,0.0,0.0,0.0,0.0,0.0,0.0,0.0,0.0,0.0,0.0,0.0,0.0,0.0,0.0,0.0,0.0,0.0,0.0,0.0,0.0,0.0,0.0,0.0,0.0,0.0,0.0,0.0,0.0,0.0,0.0,0.0,0.0,0.0,0.0,0.0,0.0,0.0,0.0,0.0,0.0,0.0,0.0,0.0,0.0,0.0,0.0,0.0,0.0,0.0,0.0,0.0,0.0,0.0,0.0,0.0,0.0,0.0,0.0,0.0,0.0,0.0,0.0,0.0,0.0,0.0,0.0,0.0,0.0,0.0,0.0,0.0,0.0,0.0,0.0,0.0,0.0,0.0,0.0,0.0,0.0,0.0,0.0,0.0,0.0,0.0,0.0,0.0,0.0,0.0,0.0,0.0,0.0,0.0,0.0,0.0,0.0,0.0,0.0,0.0,0.0,0.0,0.0,0.0,0.0,0.0,0.0,0.0,0.0,0.0,0.0,0.0,0.0,0.0,0.0,0.0,0.0,0.0,0.0,0.0,0.0,0.0,0.0,0.0,0.0,0.0,0.0,0.0,0.0,0.0,0.0,0.0,0.0,0.0,0.0,0.0,0.0,0.0,0.0,0.0,0.0,0.0,0.0,0.0,0.0,0.0,0.0,0.0,0.0,0.0,0.0,0.0,0.0,0.0,0.0,0.0,0.0,0.0,0.0,0.0,0.0,0.0,0.0,0.0,0.0,0.0,0.0,0.0,0.0,0.0,0.0,0.0,0.0,0.0,0.0,0.0,0.0,0.0,0.0,0.0,0.0,0.0,0.0,0.0,0.0,0.0,0.0,0.0,0.0,0.0,0.0,0.0,0.0,0.0,0.0,0.0,0.0,0.0,0.0,0.0,0.0,0.0,0.0,0.0,0.0,0.0,0.0,0.0,0.0,0.0,0.0,0.0,0.0,0.0,0.0,0.0,0.0,0.0,0.0,0.0,0.0,0.0,0.0,0.0,0.0,0.0,0.0,0.0,0.0,0.0,0.0,0.0,0.0,0.0,0.0,0.0,0.0,0.0,0.0,0.0,0.0,0.0,0.0,0.0,0.0,0.0,0.0,0.0,0.0,0.0,0.0,0.0,0.0,0.0,0.0,0.0,0.0,0.0,0.0,0.0,0.0,0.0,0.0,0.0,0.0,0.0,0.0,0.0,0.0,0.0,0.0,0.0,0.0,0.0,0.0,0.0,0.0,0.0,0.0,0.0,0.0,0.0,0.0,0.0,0.0,0.0,0.0,0.0,0.0,0.0,0.0,0.0,0.0,0.0,0.0,0.0,0.0,0.0,0.0,0.0,0.0,0.0,0.0,0.0,0.0,0.0,0.0,0.0,0.0,0.0,0.0,0.0,0.0,0.0,0.0,0.0,0.0,0.0,0.0,0.0,0.0,0.0,0.0,0.0,0.0,0.0,1.0343,0.0,0.0,0.0,0.0,0.0,0.0,0.0,0.0,0.0,0.0,0.0,0.0,0.0,0.0,0.0,0.0,0.0,0.0,0.0,0.0,0.0,0.0,0.0,0.0,0.0,0.0,0.0,0.0,0.0,0.0,0.0,0.0,0.0,0.0,0.0,0.0,0.0,0.0,0.0,0.0,0.0,0.0,0.0,0.0,0.0,0.0,0.0,0.0,0.0,0.0,0.0,0.0,0.0,0.0,0.0,0.0,0.0,0.0,0.0,0.0,0.0,0.0,0.0,0.0,0.0,0.0,0.0,0.0,0.0,0.0,0.0,0.0,0.0,0.0,0.0,0.0,0.0,0.0,0.0,0.0,0.0,0.0,0.0,0.0,0.0,0.0,0.0,0.0,0.0,0.0,0.0,0.0,0.0,0.0,0.0,0.0,0.0,0.0,0.0,0.0,0.0,0.0,0.0,0.0,0.0,0.0,0.0,0.0,0.0,0.0,1.0312,1.0312,1.031,1.0305,1.0358,0.0,0.0,0.0,0.0,0.0,0.0,0.0,0.0,0.0,0.0,0.0,0.0,0.0,0.0,0.0,0.0,0.0,0.0,0.0,0.0,0.0,0.0,0.0,0.0,0.0,0.0,0.0,0.0,0.0,0.0,0.0,0.0,0.0,0.0,0.0,0.0,0.0,0.0,0.0,0.0,0.0,0.0,0.0,0.0,0.0,0.0,0.0,0.0,0.0,0.0,0.0,0.0,0.0,0.0,0.0,0.0,0.0,0.0,0.0,0.0,0.0,0.0,0.0,0.0,0.0,0.0,0.0,0.0,0.0,0.0,0.0,0.0,0.0,0.0,0.0,0.0,0.0,0.0,0.0,0.0,0.0,0.0,0.0,0.0,0.0,0.0,0.0,0.0,0.0,0.0,0.0,0.0,0.0,0.0,0.0,0.0,0.0,0.0,0.0,0.0,0.0,0.0,0.0,0.0,0.0,0.0,0.0,0.0,0.0,0.0,0.0,0.0,1.0798,1.0891,1.091,0.0,0.0,0.0,0.0,0.0,0.0,0.0,0.0,0.0,0.0,0.0,0.0,0.0,0.0,0.0,0.0,0.0,0.0,0.0,0.0,0.0,0.0,0.0,0.0,0.0,0.0,0.0,0.0,0.0,0.0,0.0,0.0,0.0,0.0,0.0,0.0,0.0,0.0,0.0,0.0,0.0,0.0,0.0,0.0,0.0,0.0,0.0,0.0,0.0,0.0,0.0,0.0,0.0,0.0,0.0,0.0,0.0,0.0,0.0,0.0,0.0,0.0,0.0,0.0,0.0,0.0,0.0,0.0,0.0,0.0,0.0,0.0,0.0,0.0,0.0,0.0,0.0,0.0,0.0,0.0,0.0,0.0,0.0,0.0,0.0,0.0,0.0,0.0,0.0,0.0,0.0,0.0,0.0,0.0,0.0,0.0,0.0,0.0,0.0,0.0,0.0,0.0,0.0,0.0,0.0,0.0,0.0,0.0,0.0,0.0,1.1484,1.1504,1.2243,0.0,1.2611,0.0,0.0,0.0,0.0,0.0,0.0,0.0,0.0,0.0,0.0,0.0,0.0,0.0,0.0,0.0,0.0,0.0,0.0,0.0,0.0,0.0,0.0,0.0,0.0,0.0,0.0,0.0,0.0,0.0,0.0,0.0,0.0,0.0,0.0,0.0,0.0,0.0,0.0,0.0,0.0,0.0,0.0,0.0,0.0,0.0,0.0,0.0,0.0,0.0,0.0,0.0,0.0,0.0,0.0,0.0,0.0,0.0,0.0,0.0,0.0,0.0,0.0,0.0,0.0,0.0,0.0,0.0,0.0,0.0,0.0,0.0,0.0,0.0,0.0,0.0,0.0,0.0,0.0,0.0,0.0,0.0,0.0,0.0,0.0,0.0,0.0,0.0,0.0,0.0,0.0,0.0,0.0,0.0,0.0,0.0,0.0,0.0,0.0,0.0,0.0,0.0,0.0,0.0,0.0,0.0,0.0,0.0,0.0,0.0,0.0,1.1836,1.2363,1.2713,1.2672,0.0,0.0,0.0,0.0,0.0,0.0,0.0,0.0,0.0,0.0,0.0,0.0,0.0,0.0,0.0,0.0,0.0,0.0,0.0,0.0,0.0,0.0,0.0,0.0,0.0,0.0,0.0,0.0,0.0,0.0,0.0,0.0,0.0,0.0,0.0,0.0,0.0,0.0,0.0,0.0,0.0,0.0,0.0,0.0,0.0,0.0,0.0,0.0,0.0,0.0,0.0,0.0,0.0,0.0,0.0,0.0,0.0,0.0,0.0,0.0,0.0,0.0,0.0,0.0,0.0,0.0,0.0,0.0,0.0,0.0,0.0,0.0,0.0,0.0,0.0,0.0,0.0,0.0,0.0,0.0,0.0,0.0,0.0,0.0,0.0,0.0,0.0,0.0,0.0,0.0,0.0,0.0,0.0,0.0,0.0,0.0,0.0,0.0,0.0,0.0,0.0,0.0,0.0,0.0,0.0,0.0,0.0,0.0,0.0,0.0,1.1383,1.2499,1.3496,1.3144,1.2595,1.1986,0.0,0.0,0.0,0.0,0.0,0.0,0.0,0.0,0.0,0.0,0.0,0.0,0.0,0.0,0.0,0.0,0.0,0.0,0.0,0.0,0.0,0.0,0.0,0.0,0.0,0.0,0.0,0.0,0.0,0.0,0.0,0.0,0.0,0.0,0.0,0.0,0.0,0.0,0.0,0.0,0.0,0.0,0.0,0.0,0.0,0.0,0.0,0.0,0.0,0.0,0.0,0.0,0.0,0.0,0.0,0.0,0.0,0.0,0.0,0.0,0.0,0.0,0.0,0.0,0.0,0.0,0.0,0.0,0.0,0.0,0.0,0.0,0.0,0.0,0.0,0.0,0.0,0.0,0.0,0.0,0.0,0.0,0.0,0.0,0.0,0.0,0.0,0.0,0.0,0.0,0.0,0.0,0.0,0.0,0.0,0.0,0.0,0.0,0.0,0.0,0.0,0.0,0.0,0.0,0.0,0.0,0.0,0.0,0.0,1.195,1.3632,1.5098,1.373,1.2869,0.0,0.0,0.0,0.0,0.0,0.0,0.0,0.0,0.0,0.0,0.0,0.0,0.0,0.0,0.0,0.0,0.0,0.0,0.0,0.0,0.0,0.0,0.0,0.0,0.0,0.0,0.0,0.0,0.0,0.0,0.0,0.0,0.0,0.0,0.0,0.0,0.0,0.0,0.0,0.0,0.0,0.0,0.0,0.0,0.0,0.0,0.0,0.0,0.0,0.0,0.0,0.0,0.0,0.0,0.0,0.0,0.0,0.0,0.0,0.0,0.0,0.0,0.0,0.0,0.0,0.0,0.0,0.0,0.0,0.0,0.0,0.0,0.0,0.0,0.0,0.0,0.0,0.0,0.0,0.0,0.0,0.0,0.0,0.0,0.0,0.0,0.0,0.0,0.0,0.0,0.0,0.0,0.0,0.0,0.0,0.0,0.0,0.0,0.0,0.0,0.0,0.0,0.0,0.0,0.0,0.0,0.0,0.0,0.0,1.0363,1.201,1.3183,1.375,1.3222,1.2636,0.0,0.0,0.0,0.0,0.0,0.0,0.0,0.0,0.0,0.0,0.0,0.0,0.0,0.0,0.0,0.0,0.0,0.0,0.0,0.0,0.0,0.0,0.0,0.0,0.0,0.0,0.0,0.0,0.0,0.0,0.0,0.0,0.0,0.0,0.0,0.0,0.0,0.0,0.0,0.0,0.0,0.0,0.0,0.0,0.0,0.0,0.0,0.0,0.0,0.0,0.0,0.0,0.0,0.0,0.0,0.0,0.0,0.0,0.0,0.0,0.0,0.0,0.0,0.0,0.0,0.0,0.0,0.0,0.0,0.0,0.0,0.0,0.0,0.0,0.0,0.0,0.0,0.0,0.0,0.0,0.0,0.0,0.0,0.0,0.0,0.0,0.0,0.0,0.0,0.0,0.0,0.0,0.0,0.0,0.0,0.0,0.0,0.0,0.0,0.0,0.0,0.0,0.0,0.0,0.0,0.0,0.0,0.0,0.0,1.156,0.0,1.371,0.0,1.3417,1.3008,0.0,0.0,0.0,0.0,0.0,0.0,0.0,0.0,0.0,0.0,0.0,0.0,0.0,0.0,0.0,0.0,0.0,0.0,0.0,0.0,0.0,0.0,0.0,0.0,0.0,0.0,0.0,0.0,0.0,0.0,0.0,0.0,0.0,0.0,0.0,0.0,0.0,0.0,0.0,0.0,0.0,0.0,0.0,0.0,0.0,0.0,0.0,0.0,0.0,0.0,0.0,0.0,0.0,0.0,0.0,0.0,0.0,0.0,0.0,0.0,0.0,0.0,0.0,0.0,0.0,0.0,0.0,0.0,0.0,0.0,0.0,0.0,0.0,0.0,0.0,0.0,0.0,0.0,0.0,0.0,0.0,0.0,0.0,0.0,0.0,0.0,0.0,0.0,0.0,0.0,0.0,0.0,0.0,0.0,0.0,0.0,0.0,0.0,0.0,0.0,0.0,0.0,0.0,0.0,0.0,0.0,0.0,0.0,1.3258,1.4061,1.4896,1.5265,1.5348,1.4449,1.404,0.0,0.0,0.0,0.0,0.0,0.0,0.0,0.0,0.0,0.0,0.0,0.0,0.0,0.0,0.0,0.0,0.0,0.0,0.0,0.0,0.0,0.0,0.0,0.0,0.0,0.0,0.0,0.0,0.0,0.0,0.0,0.0,0.0,0.0,0.0,0.0,0.0,0.0,0.0,0.0,0.0,0.0,0.0,0.0,0.0,0.0,0.0,0.0,0.0,0.0,0.0,0.0,0.0,0.0,0.0,0.0,0.0,0.0,0.0,0.0,0.0,0.0,0.0,0.0,0.0,0.0,0.0,0.0,0.0,0.0,0.0,0.0,0.0,0.0,0.0,0.0,0.0,0.0,0.0,0.0,0.0,0.0,0.0,0.0,0.0,0.0,0.0,0.0,0.0,0.0,0.0,0.0,0.0,0.0,0.0,0.0,0.0,0.0,0.0,0.0,0.0,0.0,0.0,0.0,0.0,0.0,0.0,0.0,0.0,1.4978,1.5196,1.504,1.4437,1.3637,1.3219,0.0,0.0,0.0,0.0,0.0,0.0,0.0,0.0,0.0,0.0,0.0,0.0,0.0,0.0,0.0,0.0,0.0,0.0,0.0,0.0,0.0,0.0,0.0,0.0,0.0,0.0,0.0,0.0,0.0,0.0,0.0,0.0,0.0,0.0,0.0,0.0,0.0,0.0,0.0,0.0,0.0,0.0,0.0,0.0,0.0,0.0,0.0,0.0,0.0,0.0,0.0,0.0,0.0,0.0,0.0,0.0,0.0,0.0,0.0,0.0,0.0,0.0,0.0,0.0,0.0,0.0,0.0,0.0,0.0,0.0,0.0,0.0,0.0,0.0,0.0,0.0,0.0,0.0,0.0,0.0,0.0,0.0,0.0,0.0,0.0,0.0,0.0,0.0,0.0,0.0,0.0,0.0,0.0,0.0,0.0,0.0,0.0,0.0,0.0,0.0,0.0,0.0,0.0,0.0,0.0,0.0,0.0,0.0,0.0,1.815,1.752,1.6777,1.5931,1.4803,1.4226,1.4237,0.0,0.0,0.0,0.0,0.0,0.0,0.0,0.0,0.0,0.0,0.0,0.0,0.0,0.0,0.0,0.0,0.0,0.0,0.0,0.0,0.0,0.0,0.0,0.0,0.0,0.0,0.0,0.0,0.0,0.0,0.0,0.0,0.0,0.0,0.0,0.0,0.0,0.0,0.0,0.0,0.0,0.0,0.0,0.0,0.0,0.0,0.0,0.0,0.0,0.0,0.0,0.0,0.0,0.0,0.0,0.0,0.0,0.0,0.0,0.0,0.0,0.0,0.0,0.0,0.0,0.0,0.0,0.0,0.0,0.0,0.0,0.0,0.0,0.0,0.0,0.0,0.0,0.0,0.0,0.0,0.0,0.0,0.0,0.0,0.0,0.0,0.0,0.0,0.0,0.0,0.0,0.0,0.0,0.0,0.0,0.0,0.0,0.0,0.0,0.0,0.0,0.0,0.0,0.0,0.0,0.0,0.0,0.0,2.2987,2.1527,2.0235,1.9221,1.7536,1.6644,0.0,0.0,0.0,0.0,0.0,0.0,0.0,0.0,0.0,0.0,0.0,0.0,0.0,0.0,0.0,0.0,0.0,0.0,0.0,0.0,0.0,0.0,0.0,0.0,0.0,0.0,0.0,0.0,0.0,0.0,0.0,0.0,0.0,0.0,0.0,0.0,0.0,0.0,0.0,0.0,0.0,0.0,0.0,0.0,0.0,0.0,0.0,0.0,0.0,0.0,0.0,0.0,0.0,0.0,0.0,0.0,0.0,0.0,0.0,0.0,0.0,0.0,0.0,0.0,0.0,0.0,0.0,0.0,0.0,0.0,0.0,0.0,0.0,0.0,0.0,0.0,0.0,0.0,0.0,0.0,0.0,0.0,0.0,0.0,0.0,0.0,0.0,0.0,0.0,0.0,0.0,0.0,0.0,0.0,0.0,0.0,0.0,0.0,0.0,0.0,0.0,0.0,0.0,0.0,0.0,0.0,0.0,0.0,0.0,2.4504,2.4659,2.3495,2.101,1.8711,1.6899,0.0,0.0,0.0,0.0,0.0,0.0,0.0,0.0,0.0,0.0,0.0,0.0,0.0,0.0,0.0,0.0,0.0,0.0,0.0,0.0,0.0,0.0,0.0,0.0,0.0,0.0,0.0,0.0,0.0,0.0,0.0,0.0,0.0,0.0,0.0,0.0,0.0,0.0,0.0,0.0,0.0,0.0,0.0,0.0,0.0,0.0,0.0,0.0,0.0,0.0,0.0,0.0,0.0,0.0,0.0,0.0,0.0,0.0,0.0,0.0,0.0,0.0,0.0,0.0,0.0,0.0,0.0,0.0,0.0,0.0,0.0,0.0,0.0,0.0,0.0,0.0,0.0,0.0,0.0,0.0,0.0,0.0,0.0,0.0,0.0,0.0,0.0,0.0,0.0,0.0,0.0,0.0,0.0,0.0,0.0,0.0,0.0,0.0,0.0,0.0,0.0,0.0,0.0,0.0,0.0,0.0,0.0,0.0,2.402,2.5588,2.7247,2.6492,2.3171,2.0184,1.7821,0.0,0.0,0.0,0.0,0.0,0.0,0.0,0.0,0.0,0.0,0.0,0.0,0.0,0.0,0.0,0.0,0.0,0.0,0.0,0.0,0.0,0.0,0.0,0.0,0.0,0.0,0.0,0.0,0.0,0.0,0.0,0.0,0.0,0.0,0.0,0.0,0.0,0.0,0.0,0.0,0.0,0.0,0.0,0.0,0.0,0.0,0.0,0.0,0.0,0.0,0.0,0.0,0.0,0.0,0.0,0.0,0.0,0.0,0.0,0.0,0.0,0.0,0.0,0.0,0.0,0.0,0.0,0.0,0.0,0.0,0.0,0.0,0.0,0.0,0.0,0.0,0.0,0.0,0.0,0.0,0.0,0.0,0.0,0.0,0.0,0.0,0.0,0.0,0.0,0.0,0.0,0.0,0.0,0.0,0.0,0.0,0.0,0.0,0.0,0.0,0.0,0.0,0.0,0.0,0.0,0.0,0.0,0.0,2.5653,2.6365,2.923,2.8945,2.5312,2.173,1.9032,0.0,0.0,0.0,0.0,0.0,0.0,0.0,0.0,0.0,0.0,0.0,0.0,0.0,0.0,0.0,0.0,0.0,0.0,0.0,0.0,0.0,0.0,0.0,0.0,0.0,0.0,0.0,0.0,0.0,0.0,0.0,0.0,0.0,0.0,0.0,0.0,0.0,0.0,0.0,0.0,0.0,0.0,0.0,0.0,0.0,0.0,0.0,0.0,0.0,0.0,0.0,0.0,0.0,0.0,0.0,0.0,0.0,0.0,0.0,0.0,0.0,0.0,0.0,0.0,0.0,0.0,0.0,0.0,0.0,0.0,0.0,0.0,0.0,0.0,0.0,0.0,0.0,0.0,0.0,0.0,0.0,0.0,0.0,0.0,0.0,0.0,0.0,0.0,0.0,0.0,0.0,0.0,0.0,0.0,0.0,0.0,0.0,0.0,0.0,0.0,0.0,0.0,0.0,0.0,0.0,0.0,0.0,0.0,2.695,2.7416,2.9664,2.929,2.603,2.2678,1.9686,0.0,0.0,0.0,0.0,0.0,0.0,0.0,0.0,0.0,0.0,0.0,0.0,0.0,0.0,0.0,0.0,0.0,0.0,0.0,0.0,0.0,0.0,0.0,0.0,0.0,0.0,0.0,0.0,0.0,0.0,0.0,0.0,0.0,0.0,0.0,0.0,0.0,0.0,0.0,0.0,0.0,0.0,0.0,0.0,0.0,0.0,0.0,0.0,1.2244,0.0,0.0,0.0,0.0,0.0,0.0,0.0,0.0,0.0,0.0,0.0,0.0,0.0,0.0,0.0,0.0,0.0,0.0,0.0,0.0,0.0,0.0,0.0,0.0,0.0,0.0,0.0,0.0,0.0,0.0,0.0,0.0,0.0,0.0,0.0,0.0,0.0,0.0,0.0,0.0,0.0,0.0,0.0,0.0,0.0,0.0,0.0,0.0,0.0,0.0,0.0,0.0,0.0,0.0,0.0,0.0,0.0,0.0,0.0,2.7214,2.7743,2.9758,2.9259,2.6007,2.3181,2.0412,0.0,0.0,0.0,0.0,0.0,0.0,0.0,0.0,0.0,0.0,0.0,0.0,0.0,0.0,0.0,0.0,0.0,0.0,0.0,0.0,0.0,0.0,0.0,0.0,0.0,0.0,0.0,0.0,0.0,0.0,0.0,0.0,0.0,0.0,0.0,0.0,0.0,0.0,0.0,0.0,0.0,0.0,0.0,0.0,0.0,0.0,0.0,0.0,0.0,0.0,0.0,0.0,0.0,0.0,0.0,0.0,0.0,0.0,0.0,0.0,0.0,0.0,0.0,0.0,0.0,0.0,0.0,0.0,0.0,0.0,0.0,0.0,0.0,0.0,0.0,0.0,0.0,0.0,0.0,0.0,0.0,0.0,0.0,0.0,0.0,0.0,0.0,0.0,0.0,0.0,0.0,0.0,0.0,0.0,0.0,0.0,0.0,0.0,0.0,0.0,0.0,0.0,0.0,0.0,0.0,0.0,0.0,2.4706,2.6896,2.7818,2.978,2.9287,2.5956,2.359,2.1017,1.8194,0.0,0.0,0.0,0.0,0.0,0.0,0.0,0.0,0.0,0.0,0.0,0.0,0.0,0.0,0.0,0.0,0.0,0.0,0.0,0.0,0.0,0.0,0.0,0.0,0.0,0.0,0.0,0.0,0.0,0.0,0.0,0.0,0.0,0.0,0.0,0.0,0.0,0.0,0.7567,0.8547,0.0,0.0,0.0,0.0,0.0,0.0,0.0,0.0,1.1031,0.0,0.0,0.0,0.0,0.0,0.0,0.0,0.0,0.0,0.0,0.0,0.0,0.0,0.0,0.0,0.0,0.0,0.0,0.0,0.0,0.0,0.0,0.0,0.0,0.0,0.0,0.0,0.0,0.0,0.0,0.0,0.0,0.0,0.0,0.0,0.0,0.0,0.0,0.0,0.0,0.0,0.0,0.0,0.0,0.0,0.0,0.0,0.0,0.0,0.0,0.0,0.0,0.0,0.0,0.0,0.0,2.0609,2.3932,2.6452,2.8188,3.0109,2.9815,2.7089,2.419,2.1094,1.7789,0.0,0.0,0.0,0.0,0.0,0.0,0.0,0.0,0.0,0.0,0.0,0.0,0.0,0.0,0.0,0.0,0.0,0.0,0.0,0.0,0.0,0.0,0.0,0.0,0.0,0.0,0.0,0.0,0.0,0.0,0.0,0.0,0.0,0.0,0.0,0.0,0.0,0.0,0.0,0.8787,0.9308,0.0,0.0,0.0,0.0,0.0,0.0,0.0,0.0,1.0183,0.0,0.0,0.0,0.0,0.0,0.0,0.0,0.0,0.0,0.0,0.0,0.0,0.0,0.0,0.0,0.0,0.0,0.0,0.0,0.0,0.0,0.0,0.0,0.0,0.0,0.0,0.0,0.0,0.0,0.0,0.0,0.0,0.0,0.0,0.0,0.0,0.0,0.0,0.0,0.0,0.0,0.0,0.0,0.0,0.0,0.0,0.0,0.0,0.0,0.0,0.0,0.0,0.0,0.0,0.0,2.0974,2.3737,2.6048,2.7837,2.9319,2.8795,2.5993,2.3045,1.9936,0.0,0.0,0.0,0.0,0.0,0.0,0.0,0.0,0.0,0.0,0.0,0.0,0.0,0.0,0.0,0.0,0.0,0.0,0.0,0.0,0.0,0.0,0.0,0.0,0.0,0.0,0.0,0.0,0.0,0.0,0.0,0.0,0.0,0.0,0.0,0.0,0.0,0.0,0.0,0.0,0.8036,0.7839,0.7865,0.0,0.0,0.0,0.0,0.0,0.0,0.8408,0.8297,0.0,0.0,0.0,0.0,0.0,0.0,0.0,0.0,0.0,0.0,0.0,0.0,0.0,0.0,0.0,0.0,0.0,0.0,0.0,0.0,0.0,0.0,0.0,0.0,0.0,0.0,0.0,0.0,0.0,0.0,0.0,0.0,0.0,0.0,0.0,0.0,0.0,0.0,0.0,0.0,0.0,0.0,0.0,0.0,0.0,0.0,0.0,0.0,0.0,0.0,0.0,0.0,0.0,0.0,0.0,2.1495,2.3729,2.5703,2.7501,2.8414,2.7497,2.4611,2.1712,1.8618,0.0,0.0,0.0,0.0,0.0,0.0,0.0,0.0,0.0,0.0,0.0,0.0,0.0,0.0,0.0,0.0,0.0,0.0,0.0,0.0,0.0,0.0,0.0,0.0,0.0,0.0,0.0,0.0,0.0,0.0,0.0,0.0,0.0,0.0,0.0,0.0,0.0,0.0,0.0,0.0,0.0,0.6567,0.6437,0.5788,0.0,0.0,0.0,0.0,0.7257,0.6631,0.0,0.0,0.0,0.0,0.0,0.0,0.0,0.0,0.0,0.0,0.0,0.0,0.0,0.0,0.0,0.0,0.0,0.0,0.0,0.0,0.0,0.0,0.0,0.0,0.0,0.0,0.0,0.0,0.0,0.0,0.0,0.0,0.0,0.0,0.0,0.0,0.0,0.0,0.0,0.0,0.0,0.0,0.0,0.0,0.0,0.0,0.0,0.0,0.0,0.0,0.0,0.0,0.0,0.0,0.0,0.0,2.1489,2.3529,2.5595,2.7554,2.7961,2.6778,2.3946,2.1212,1.7874,0.0,0.0,0.0,0.0,0.0,0.0,0.0,0.0,0.0,0.0,0.0,0.0,0.0,0.0,0.0,0.0,0.0,0.0,0.0,0.0,0.0,0.0,0.0,0.0,0.0,0.0,0.0,0.0,0.0,0.0,0.0,0.0,0.0,0.0,0.0,0.0,0.0,0.0,0.0,0.0,0.0,0.6719,0.5701,0.5472,0.5404,0.0,0.0,0.5787,0.5622,0.5385,0.0,0.0,0.0,0.0,0.0,0.0,0.0,0.0,0.0,0.0,0.0,0.0,0.0,0.0,0.0,0.0,0.0,0.0,0.0,0.0,0.0,0.0,0.0,0.0,0.0,0.0,0.0,0.0,0.0,0.0,0.0,0.0,0.0,0.0,0.0,0.0,0.0,0.0,0.0,0.0,0.0,0.0,0.0,0.0,0.0,0.0,0.0,0.0,0.0,0.0,0.0,0.0,0.0,0.0,0.0,1.6978,2.0801,2.2702,2.4419,2.6036,2.6349,2.5076,2.2249,1.9601,1.6622,0.0,0.0,0.0,0.0,0.0,0.0,0.0,0.0,0.0,0.0,0.0,0.0,0.0,0.0,0.0,0.0,0.0,0.0,0.0,0.0,0.0,0.0,0.0,0.0,0.0,0.0,0.0,0.0,0.0,0.0,0.0,0.0,0.0,0.0,0.0,0.0,0.0,0.0,0.0,0.0,0.0,0.0,0.4434,0.3857,0.0,0.0,0.0,0.4237,0.4619,0.0,0.0,0.0,0.0,0.0,0.0,0.0,0.0,0.0,0.0,0.0,0.0,0.0,0.0,0.0,0.0,0.0,0.0,0.0,0.0,0.0,0.0,0.0,0.0,0.0,0.0,0.0,0.0,0.0,0.0,0.0,0.0,0.0,0.0,0.0,0.0,0.0,0.0,0.0,0.0,0.0,0.0,0.0,0.0,0.0,0.0,0.0,0.0,0.0,0.0,0.0,0.0,0.0,0.0,0.0,0.0,0.0,2.0318,2.2094,2.3494,2.4585,2.4661,2.3329,2.0514,1.8137,0.0,0.0,0.0,0.0,0.0,0.0,0.0,0.0,0.0,0.0,0.0,0.0,0.0,0.0,0.0,0.0,0.0,0.0,0.0,0.0,0.0,0.0,0.0,0.0,0.0,0.0,0.0,0.9046,0.0,0.0,0.0,0.0,0.0,0.0,0.0,0.0,0.0,0.0,0.0,0.0,0.0,0.0,0.3132,0.3346,0.2513,0.2123,0.0,0.0,0.2936,0.3632,0.2576,0.1715,0.0,0.0,0.0,0.0,0.0,0.0,0.0,0.0,0.0,0.0,0.0,0.0,0.0,0.0,0.0,0.0,0.0,0.0,0.0,0.0,0.0,0.0,0.0,0.0,0.0,0.0,0.0,0.0,0.0,0.0,0.0,0.0,0.0,0.0,0.0,0.0,0.0,0.0,0.0,0.0,0.0,0.0,0.0,0.0,0.0,0.0,0.0,0.0,0.0,0.0,0.0,0.0,0.0,0.0,0.0,2.0288,2.192,2.3096,2.3912,2.3391,2.1851,1.9264,1.7395,1.4997,0.0,0.0,0.0,0.0,0.0,0.0,0.0,0.0,0.0,0.0,0.0,0.0,0.0,0.0,0.0,0.0,0.0,0.0,0.0,0.0,0.0,0.0,0.0,0.0,0.0,0.0,0.0,0.0,0.0,0.0,0.0,0.0,0.0,0.0,0.0,0.0,0.0,0.0,0.0,0.0,0.0,0.281,0.2766,0.205,0.1762,0.0,0.0,0.235,0.2576,0.2268,0.2123,0.2673,0.0,0.0,0.0,0.0,0.0,0.0,0.0,0.0,0.0,0.0,0.0,0.0,0.0,0.0,0.0,0.0,0.0,0.0,0.0,0.0,0.0,0.0,0.0,0.0,0.0,0.0,0.0,0.0,0.0,0.0,0.0,0.0,0.0,0.0,0.0,0.0,0.0,0.0,0.0,0.0,0.0,0.0,0.0,0.0,0.0,0.0,0.0,0.0,0.0,0.0,0.0,0.0,0.0,1.6277,1.9524,2.0914,2.1828,2.2279,2.151,2.0128,1.8179,1.6507,1.4437,0.0,0.0,0.0,0.0,0.0,0.0,0.0,0.0,0.0,0.0,0.0,0.0,0.0,0.0,0.0,0.0,0.0,0.0,0.0,0.0,0.0,0.0,0.0,0.0,0.0,0.0,0.0,0.0,0.9176,0.8809,0.7968,0.0,0.0,0.0,0.0,0.0,0.0,0.0,0.0,0.0,0.0,0.1266,0.0745,0.0309,0.0,0.0,0.1285,0.1842,0.3209,0.2638,0.2346,0.3331,0.3152,0.0,0.0,0.0,0.0,0.0,0.0,0.0,0.0,0.0,0.0,0.0,0.0,0.0,0.0,0.0,0.0,0.0,0.0,0.0,0.0,0.0,0.0,0.0,0.0,0.0,0.0,0.0,0.0,0.0,0.0,0.0,0.0,0.0,0.0,0.0,0.0,0.0,0.0,0.0,0.0,0.0,0.0,0.0,0.0,0.0,0.0,0.0,0.0,0.0,0.0,0.0,0.0,1.5823,1.8577,1.9915,2.0663,2.0707,1.9839,1.8685,1.7223,1.5832,1.4268,0.0,0.0,0.0,0.0,0.0,0.0,0.0,0.0,0.0,0.0,0.0,0.0,0.0,0.0,0.0,0.0,0.0,0.0,0.0,0.0,0.0,0.0,0.0,0.0,0.0,0.0,0.0,0.0,0.9699,0.9161,0.8837,0.0,0.0,0.0,0.0,0.0,0.0,0.0,0.0,0.0,0.0,0.0283,-0.0533,-0.0837,-0.074,-0.0,0.0401,0.1255,0.3084,0.2857,0.2845,0.3958,0.0,0.0,0.0,0.0,0.0,0.0,0.0,0.0,0.0,0.0,0.0,0.0,0.0,0.0,0.0,0.0,0.0,0.0,0.0,0.0,0.0,0.0,0.0,0.0,0.0,0.0,0.0,0.0,0.0,0.0,1.0815,0.0,0.0,0.0,0.0,0.0,0.0,0.0,0.0,0.0,0.0,0.0,0.0,0.0,0.0,0.0,0.0,0.0,0.0,0.0,0.0,0.0,0.0,1.5629,1.7412,1.9091,1.9687,1.9048,1.8479,1.7677,1.6523,1.556,1.4372,1.3077,0.0,0.0,0.0,0.0,0.0,0.0,0.0,0.0,0.0,0.0,0.0,0.0,0.0,0.0,0.0,0.0,0.0,0.0,0.0,0.0,0.0,0.0,0.0,0.0,0.0,0.0,1.1349,1.0049,0.9458,0.0,0.0,0.0,0.0,0.0,0.0,0.0,0.0,0.0,0.0,0.0991,0.0172,-0.0671,-0.1128,-0.1249,-0.0742,-0.0206,0.0612,0.193,0.2902,0.3778,0.0,0.0,0.0,0.0,0.0,0.0,0.0,0.0,0.0,0.0,0.0,0.0,0.0,0.0,0.0,0.0,0.0,0.0,0.0,0.0,0.0,0.0,0.0,0.0,0.0,0.0,0.0,1.3942,1.4053,0.0,0.0,0.0,0.0,0.0,0.0,0.0,0.0,0.0,0.0,0.0,1.1727,1.2288,0.0,0.0,0.0,0.0,0.0,0.0,0.0,0.0,0.0,0.0,0.0,0.0,1.4702,1.6546,1.7575,1.7941,1.7765,1.6973,1.6327,1.5757,1.5046,1.3795,1.2172,0.0,0.0,0.0,0.0,0.0,0.0,0.0,0.0,0.0,0.0,0.0,0.0,0.0,0.0,0.0,0.0,0.0,0.0,0.0,0.0,0.0,0.0,0.0,0.0,0.0,1.2251,0.0,0.0,0.0,0.0,0.0,0.0,0.0,0.0,0.0,0.0,0.0,0.1776,0.1024,0.0054,-0.0889,-0.1637,-0.1914,-0.1937,0.0,0.0,0.0,0.0,0.0,0.0,0.0,0.0,0.0,0.0,0.0,0.0,0.0,0.0,0.3162,0.2951,0.4951,0.6778,0.7097,0.0,0.0,0.0,0.0,0.0,0.0,0.0,0.0,0.0,0.0,0.0,0.0,0.0,0.0,1.5093,0.0,1.4755,0.0,0.0,0.0,0.0,0.0,0.0,0.0,0.0,1.4723,1.4009,1.267,1.3195,1.3483,0.0,1.3363,1.3046,0.0,0.0,0.0,0.0,0.0,0.0,0.0,0.0,1.4334,1.5675,1.6762,1.7203,1.6913,1.6315,1.587,1.5618,1.4906,1.3821,1.2211,1.1232,1.0103,0.0,0.0,0.0,0.0,0.0,0.0,0.0,0.0,0.0,0.0,0.0,0.0,0.0,0.0,0.0,0.0,0.0,0.0,0.0,0.0,0.0,0.0,0.0,1.2476,0.0,0.0,0.0,0.0,0.0,0.0,0.0,0.0,0.0,0.5257,0.2368,0.0499,0.0312,-0.0744,-0.1735,-0.2147,0.0,0.0,0.0,0.0,0.0,0.0,0.0,0.5636,0.6173,0.6488,0.6341,0.5257,0.4193,0.322,0.2319,0.0,0.0,0.2003,0.4064,0.6132,0.6853,0.7944,0.8798,0.8922,0.8354,0.7478,0.0,0.0,0.0,0.0,0.0,0.0,0.0,0.0,1.6489,1.6018,0.0,1.5308,0.0,0.0,0.0,0.0,0.0,0.0,0.0,0.0,1.541,1.4996,1.4262,1.4031,1.3942,1.401,1.3638,1.3645,1.4088,1.3568,0.0,0.0,0.0,0.0,0.0,0.0,1.4566,1.4788,1.6628,1.7275,1.663,1.6403,1.6202,1.6044,1.5221,1.4305,1.3197,1.2167,1.1077,0.9934,0.8803,0.0,0.0,0.0,0.0,0.0,0.0,0.0,0.0,0.0,0.0,0.0,0.0,0.0,0.0,0.0,0.0,0.0,0.0,0.0,0.0,1.0894,0.0,0.0,0.0,0.0,0.0,0.0,0.0,0.0,0.0,0.0,0.7224,0.2673,-0.0268,-0.0168,0.0,0.0,0.0,0.0,-0.2335,-0.1829,-0.1658,-0.0871,0.1249,0.3391,0.5074,0.5763,0.0,0.0,0.5926,0.5469,0.496,0.4367,0.4792,0.418,0.1407,0.3432,0.5526,0.5947,0.7557,0.8561,0.8338,0.8134,0.7323,1.4301,0.0,0.0,0.0,0.0,1.6635,1.7351,1.804,1.7884,1.7793,1.7759,1.7386,0.0,0.0,0.0,0.0,0.0,0.0,1.6449,1.704,1.6908,1.6587,1.599,1.5808,1.548,1.5082,1.4783,1.4727,1.4721,1.4637,1.387,1.256,0.0,0.0,0.0,0.0,1.309,1.3918,1.534,1.6334,1.6808,1.6587,1.6272,1.5709,1.5295,1.4579,1.3373,1.2435,1.1469,1.0368,0.9096,0.0,0.0,0.0,0.0,0.0,0.0,0.0,0.0,0.0,0.0,0.0,0.0,0.0,0.0,0.0,0.0,0.0,0.0,0.0,0.8988,1.081,1.2466,0.0,0.0,0.0,0.0,0.0,0.0,0.0,0.0,0.0,1.4645,0.6898,0.1108,0.0,0.0,-0.1669,-0.1785,-0.194,-0.1893,-0.1674,0.0,0.0,0.0,0.229,0.3846,0.4984,0.6423,0.7446,0.7684,0.7217,0.6835,0.7236,0.8637,0.9005,0.7096,0.6394,0.6742,0.7529,0.8588,0.9388,0.963,0.9134,0.8241,1.5695,1.5267,1.602,1.6515,1.6968,1.752,1.818,1.8894,1.8774,1.8924,1.9132,1.8637,1.8376,1.8216,1.7479,0.0,0.0,0.0,1.7674,1.8192,1.8359,1.819,1.7723,1.7656,1.7308,1.6606,1.6008,1.5639,1.5486,1.5138,1.4359,1.318,0.0,0.0,1.2307,1.2726,1.3177,1.381,1.5525,1.6706,1.7325,1.6911,1.6201,1.5426,1.5002,1.4388,1.3431,1.2476,1.1541,1.0685,0.9227,0.792,0.0,0.0,0.0,0.0,0.0,0.0,0.0,0.0,0.0,0.0,0.0,0.5168,0.5244,0.0,0.0,0.0,0.583,0.643,0.7909,0.9198,0.0,0.0,0.0,0.0,0.0,0.0,0.0,1.8945,1.8262,1.8127,1.9396,1.3424,0.8073,0.5745,0.4637,0.3961,0.388,0.0,0.419,0.467,0.3836,0.373,0.5548,0.7348,0.8779,0.9426,1.0498,1.1601,1.2519,1.1578,1.0632,1.074,1.1444,1.1865,1.1006,0.9766,0.8892,0.9109,0.9579,1.0013,1.021,0.9695,0.8938,1.7204,1.6965,1.6778,1.7064,1.7721,1.8375,1.8921,1.9323,1.943,1.9519,1.9673,1.9421,1.9085,1.8677,1.8154,0.0,0.0,1.8527,1.8873,1.9203,1.9648,1.9726,1.9373,1.934,1.8931,1.8238,1.7075,1.6365,1.6142,1.52,1.458,1.4321,1.3461,1.2983,1.2991,1.3928,1.4362,1.4405,1.6561,1.7817,1.7959,1.7149,1.6131,1.5163,1.4501,1.3942,1.3271,1.2321,1.1472,1.0833,0.9295,0.7891,0.6803,0.0,0.0,0.0,0.0,0.0,0.0,0.0,0.0,0.0,0.0,0.0,0.0,0.0,0.0,0.0,0.4334,0.0,0.6142,0.684,0.0,0.0,0.0,1.0765,1.1715,1.2725,1.4609,1.7963,0.0,0.0,2.2089,0.0,1.853,1.4708,1.3327,1.2697,1.2631,1.2765,1.365,1.3889,1.2155,1.1458,1.3313,1.5599,1.6821,1.6531,1.7364,1.81,1.9033,1.7582,1.5685,1.4356,1.379,1.3608,1.3751,1.3069,1.2119,1.0856,1.0584,1.0581,1.0451,1.0124,0.9655,1.7035,1.6854,1.718,1.7604,1.8079,1.8391,1.8959,1.9755,2.0219,2.0352,2.032,2.0846,2.0909,2.0678,2.0373,2.0234,2.0092,1.9928,2.0033,2.0371,2.0169,2.0033,1.9721,1.9399,1.8705,1.7844,1.7004,1.6421,1.6098,1.5461,1.5026,1.4756,1.4298,1.4045,1.3838,1.4672,1.5178,1.5516,1.6661,1.7125,1.6923,1.6517,1.5779,1.4584,1.4364,1.3577,1.2277,1.1768,1.1141,1.0436,0.904,0.785,0.6946,0.5652,0.0,0.0,0.0,0.0,0.0,0.0,0.0,0.0,0.0,0.4624,0.4616,0.0,0.4687,0.0,0.4324,0.4839,0.6036,0.7115,0.0,0.0,1.0287,1.12,1.1965,1.2318,1.3978,1.7505,1.921,2.1132,2.3765,2.4864,2.4996,2.3746,1.9261,1.6102,1.6097,1.6137,1.6265,1.6632,1.6738,1.6601,1.743,1.9256,2.0691,1.9849,2.2026,2.4032,2.423,2.2743,2.0874,1.8877,1.7622,1.7006,1.6968,1.6034,1.4975,1.4056,1.271,1.149,1.1537,1.1221,1.0816,1.7312,1.737,1.7627,1.7981,1.8457,1.8441,1.9016,2.0018,2.0492,2.0916,2.1328,2.1549,2.1551,2.1253,2.0986,2.0793,2.0661,2.0571,2.0542,2.0604,2.0449,2.0105,1.9775,1.934,1.8545,1.7513,1.6673,1.5984,1.5614,1.5128,1.4961,1.486,1.5057,1.5093,1.4973,1.5383,1.587,1.6531,1.6892,1.6953,1.6523,1.6213,1.5708,1.4854,1.4194,1.3423,1.258,1.1624,1.095,1.0543,0.9125,0.7868,0.7038,0.592,0.4818,0.0,0.0,0.0,0.0,0.0,0.0,0.0,0.0,0.0,0.0,0.0,0.4471,0.4112,0.4343,0.4831,0.568,0.6488,0.7299,0.7926,0.8563,0.9201,0.9633,0.989,1.1298,1.4582,1.6404,1.8669,2.1827,2.3525,2.4563,2.4814,2.1765,2.0201,2.2058,2.2701,2.3238,2.3993,2.5159,2.5361,2.4016,2.517,2.6194,2.6078,2.7861,2.9614,2.9632,2.8136,2.609,2.3664,2.1926,2.0694,1.9837,1.8546,1.7352,1.6392,1.5293,1.4004,1.2875,1.2411,1.2081,1.7733,1.7994,1.7956,1.8194,1.861,1.8446,1.9151,2.0448,2.0732,2.1458,2.2456,2.2061,2.1686,2.124,2.0839,2.0638,2.0592,2.0697,2.0679,2.0452,2.0479,2.0218,1.9652,1.9204,1.8456,1.7401,1.6307,1.5599,1.5272,1.4814,1.4727,1.5013,1.5577,1.5878,1.5997,1.5897,1.6329,1.7196,1.709,1.6798,1.6301,1.6076,1.5799,1.5356,1.4126,1.3506,1.3357,1.173,1.0815,1.0672,0.9239,0.7915,0.7007,0.6236,0.5308,0.0,0.4286,0.0,0.0,0.0,0.0,0.0,0.0,0.0,0.0,0.4292,0.4132,0.3924,0.439,0.4855,0.5338,0.5773,0.6023,0.6314,0.6526,0.6674,0.6872,0.7186,0.8448,1.1233,1.2841,1.5182,1.8578,2.0074,2.1248,2.2088,2.2062,2.3159,2.7251,2.8735,2.9902,3.2504,3.4496,3.365,3.1546,3.1924,3.2637,3.2707,3.3575,3.4614,3.4447,3.273,3.0527,2.7847,2.5809,2.4112,2.2274,2.0784,1.9555,1.8369,1.804,1.7165,1.4851,1.39,1.3595,1.7277,1.7349,1.758,1.7729,1.7853,1.8184,1.9487,2.1396,2.1892,2.2549,2.3195,2.2802,2.2489,2.2278,2.1697,2.1275,2.0962,2.0727,2.0419,2.0175,2.0269,1.9957,1.9537,1.8977,1.8345,1.7634,1.6571,1.6086,1.611,1.5324,1.5132,1.5554,1.5536,1.5565,1.5733,0.0,0.0,0.0,1.6453,1.6001,1.5277,1.5522,1.5584,1.5322,1.4497,0.0,1.3276,1.1846,1.0696,0.9875,0.8802,0.0,0.0,0.0,0.0,0.0,0.0,0.0,0.0,0.0,0.0,0.0,0.5583,0.5519,0.5133,0.4372,0.3974,0.4121,0.4685,0.5273,0.5925,0.6476,0.6841,0.7078,0.7541,0.7876,0.8094,0.8273,0.9294,1.1464,1.3595,1.5605,1.7523,1.957,2.0928,2.1227,2.1514,2.287,2.5835,2.7958,3.0198,3.2916,3.5702,3.6845,3.523,3.7009,3.7495,3.6254,3.7147,3.7718,3.6136,3.4379,3.2254,2.9871,2.7684,2.5597,2.3396,2.2724,2.2249,2.0514,2.0705,2.0208,1.7438,1.6243,1.567,1.6851,0.0,1.7476,1.7695,0.0,1.8507,1.9873,2.1648,2.1911,2.2611,2.3414,2.2914,2.2344,2.185,2.097,2.0237,1.9783,1.9484,1.9245,1.9127,1.9396,1.9271,1.8743,1.8415,1.813,1.7627,1.7038,1.6706,1.6617,1.6031,1.5636,1.5672,1.5508,1.5423,1.5582,1.5922,1.6327,1.6714,1.6565,1.6247,1.5763,1.6079,1.6152,1.5936,0.0,0.0,0.0,0.0,0.0,0.0,0.0,0.0,0.0,0.0,0.0,0.5592,0.5313,0.4993,0.4558,0.4829,0.5117,0.5336,0.5532,0.5595,0.5392,0.4535,0.4143,0.4587,0.5126,0.5797,0.6467,0.7092,0.7694,0.8127,0.8777,0.932,0.9428,0.9751,1.0451,1.1742,1.3133,1.4421,1.5622,1.6702,1.7642,1.8046,1.8177,1.9484,2.2634,2.6268,3.0013,3.4218,3.6671,3.7948,3.7723,3.9028,4.0019,3.8419,3.9146,3.9282,3.762,3.6532,3.5193,3.2959,3.1055,2.9161,2.6913,2.6315,2.5812,2.4619,2.459,2.4718,2.3255,2.0758,1.8143,1.646,1.6804,1.7344,1.7728,1.7957,1.8866,2.0141,2.1647,0.0,0.0,0.0,2.3006,2.2115,2.1256,1.9966,1.9033,1.8414,1.8121,1.7966,1.7902,1.845,1.8472,1.7923,1.794,1.7933,1.7931,1.7699,1.7431,1.7242,1.6814,1.6403,1.5873,1.5627,1.557,1.5518,1.5876,1.6252,1.6664,1.6849,1.6861,1.6753,1.6838,1.686,1.6735,1.5817,1.4959,1.4369,1.2905,1.1699,1.0799,0.987,0.8643,0.7044,0.711,0.6889,0.6117,0.5713,0.5335,0.4888,0.4848,0.4944,0.5192,0.5173,0.5175,0.534,0.4613,0.4293,0.488,0.5459,0.6129,0.6844,0.7706,0.8453,0.9049,0.9949,1.0591,1.071,1.1091,1.1613,1.2312,1.2898,1.3389,1.419,1.4616,1.4678,1.5068,1.5731,1.6745,2.0538,2.5371,3.0031,3.4348,3.6403,3.7747,3.8528,3.9451,4.0042,3.9794,4.0267,4.0184,3.9013,3.8474,3.7619,3.558,3.4404,3.2504,3.0392,2.9818,2.9542,2.8556,2.8941,2.9534,2.9623,2.6505,2.2712,1.6129,1.6429,1.7035,1.739,1.769,1.8544,2.0026,2.1692,2.3662,2.4641,2.463,2.4144,2.3184,2.1955,2.0292,1.9166,1.8435,1.7598,1.7161,0.0,1.7671,1.7896,1.7736,1.7992,1.8406,1.8839,1.8781,1.8652,1.8394,1.7889,1.7376,1.685,1.6476,1.6096,1.584,1.5989,1.6335,1.673,1.6696,1.6862,1.7146,1.717,1.7146,1.7036,1.6087,1.5443,1.5153,1.3177,1.1919,1.148,1.002,0.8679,0.7496,0.7389,0.7055,0.6408,0.6126,0.5591,0.4545,0.4435,0.4345,0.4355,0.416,0.428,0.4768,0.4389,0.4189,0.4588,0.527,0.597,0.6816,0.8019,0.9002,0.9718,1.0542,1.1225,1.1715,1.1981,1.2523,1.3351,1.4124,1.4676,1.5182,1.5534,1.593,1.648,1.6954,1.8619,2.2603,2.6497,2.9594,3.2331,3.444,3.6014,3.7349,3.8669,3.9565,4.0304,4.0384,4.0133,3.9187,3.8539,3.7744,3.6726,3.5476,3.3784,3.1562,3.2233,3.2379,3.1479,3.2562,3.4014,3.4236,3.2902,3.0377,1.5791,1.6172,1.6692,1.7036,1.7191,1.841,1.9686,2.1045,2.2919,2.409,2.4624,2.4399,2.3626,2.2503,2.0889,1.9546,1.8649,1.7649,1.7099,1.6786,1.6989,1.7202,1.7572,1.8483,1.92,1.9786,2.0347,2.0262,1.9666,1.8779,1.7963,1.7323,1.6557,1.5965,1.5657,1.5921,1.6327,1.6722,1.6921,1.7191,1.7439,1.7723,1.7739,1.7454,1.6798,1.6103,1.5338,1.3746,1.2435,1.143,1.0232,0.9076,0.797,0.787,0.7619,0.6954,0.6652,0.5987,0.4858,0.4244,0.39,0.3844,0.3842,0.3932,0.4086,0.4022,0.408,0.4539,0.5239,0.602,0.7024,0.8482,0.9633,1.0285,1.1433,1.2179,1.2501,1.2813,1.3343,1.4267,1.4858,1.5495,1.6295,1.6501,1.6922,1.7696,1.866,2.0588,2.3183,2.5503,2.8208,3.1358,3.3796,3.5442,3.6465,3.7633,3.8586,3.9151,3.9422,3.929,3.8746,3.8365,3.7931,3.7051,3.656,3.5893,3.4078,3.4969,3.5378,3.5317,3.583,3.6937,3.7053,3.6101,3.3053,1.5577,1.594,1.6471,1.6767,1.7025,1.8231,1.9113,2.004,2.1494,2.2703,2.3796,2.4059,2.3681,2.2742,2.1311,2.0046,1.8938,1.7954,1.7257,1.6862,1.6624,1.6807,1.7384,1.8746,1.9706,2.0261,2.1263,2.131,2.0427,1.9415,1.8466,1.7568,1.6544,1.5977,1.5811,1.599,1.6312,1.6722,1.7,1.7358,1.7684,1.8041,1.8089,1.7802,1.7485,1.6764,1.561,1.4353,1.2968,1.1475,1.0613,0.9592,0.832,0.8321,0.8103,0.7418,0.7012,0.6266,0.5075,0.3853,0.328,0.3381,0.3469,0.352,0.3613,0.3597,0.3908,0.4588,0.525,0.604,0.716,0.8676,0.99,1.0782,1.199,1.2766,1.3068,1.3291,1.3715,1.4754,1.5215,1.5848,1.6598,1.7017,1.7426,1.8506,2.0201,2.1766,2.3052,2.466,2.724,3.0259,3.2944,3.407,3.4868,3.5847,3.6527,3.6922,3.7552,3.7701,3.7592,3.7973,3.7985,3.7041,3.7502,3.728,3.6503,3.7118,3.7737,3.775,3.8478,3.9213,3.9387,3.7991,3.5026,1.5137,1.597,1.6477,1.6978,1.7505,1.7935,1.8311,1.8765,2.0235,2.1145,2.1737,2.3376,2.3559,2.2654,2.137,2.0362,1.9359,1.8388,1.7728,1.7281,1.6965,1.703,1.7391,1.8308,1.9077,1.9714,2.0783,2.0791,2.0053,1.9637,1.889,1.7779,1.698,1.6763,1.6832,1.6538,1.6476,1.673,1.677,1.7096,1.7628,1.7803,1.7946,1.8208,1.7666,1.6972,1.622,1.4828,1.3401,1.1955,1.12,0.9985,0.8487,0.8466,0.824,0.7449,0.7218,0.6272,0.4483,0.3071,0.2572,0.2798,0.2882,0.3023,0.3356,0.3335,0.3581,0.4278,0.5137,0.591,0.6923,0.8518,0.9931,1.0887,1.1755,1.2535,1.3105,1.3163,1.3359,1.4161,1.4882,1.5638,1.6141,1.6664,1.7422,1.8674,2.04,2.2143,2.3697,2.5386,2.7182,2.9157,3.0422,3.1154,3.186,3.2719,3.363,3.3656,3.4841,3.5844,3.6377,3.7184,3.7621,3.7474,3.7636,3.7852,3.7318,3.7656,3.9053,3.9319,4.0171,4.1412,4.1513,4.0433,3.7817,1.4678,1.5614,1.6198,1.6888,1.7455,1.7608,1.7843,1.8311,1.9216,1.991,2.0479,2.1594,2.2269,2.2411,2.1515,2.0821,2.0225,1.9685,1.909,1.8379,1.8037,1.78,1.794,1.8603,1.9109,1.9373,2.0163,2.0171,1.955,1.9088,1.8559,1.7823,1.7587,1.7476,1.7406,1.6828,1.6545,1.6404,1.6251,1.6421,1.6944,1.7528,1.7969,1.8067,1.7899,1.7302,1.6264,1.5052,1.376,1.2382,1.1403,1.0355,0.9176,0.9014,0.8755,0.8162,0.7553,0.6625,0.5451,0.4444,0.3888,0.3886,0.3703,0.3649,0.3622,0.3465,0.3692,0.4515,0.5075,0.5762,0.6893,0.8451,0.977,1.0596,1.1498,1.2234,1.2471,1.2511,1.2822,1.3616,1.4215,1.4844,1.566,1.6494,1.7537,1.8748,2.0436,2.2158,2.3738,2.5716,2.7569,2.9102,3.0098,3.0705,3.127,3.1819,3.2122,3.2437,3.3822,3.5258,3.6075,3.7674,3.8677,3.8079,3.883,3.9083,3.8394,3.9506,4.0818,4.0835,4.1167,4.2253,4.2289,4.1367,3.9321,1.3967,1.5226,1.6092,1.6948,1.7473,1.7485,1.7602,1.7843,1.8421,1.8881,1.9223,1.991,2.0694,2.1294,2.1202,2.1009,2.0855,2.0511,2.013,1.9433,1.889,1.8585,1.8629,1.9008,1.9118,1.9162,1.9665,1.9598,1.9029,1.8615,1.828,1.803,1.8069,1.8014,1.785,1.7243,1.6724,1.6309,1.6126,1.6165,1.6498,1.7327,1.7938,1.8372,1.8313,1.7694,1.6398,1.5425,1.4201,1.2613,1.1694,1.0789,0.9932,0.9551,0.9265,0.8792,0.8011,0.7256,0.679,0.5957,0.5361,0.511,0.4747,0.438,0.4131,0.3778,0.3938,0.472,0.5347,0.6226,0.7337,0.8726,0.9823,1.0657,1.1622,1.2226,1.2447,1.2374,1.2574,1.3469,1.4016,1.4469,1.5543,1.6613,1.7761,1.8764,2.0321,2.2018,2.3591,2.5531,2.7358,2.8994,2.987,3.0272,3.073,3.091,3.094,3.085,3.2031,3.4457,3.5735,3.7809,3.9602,3.9029,4.0073,4.0341,3.9507,4.0605,4.212,4.2101,4.2396,4.275,4.2533,4.1566,4.025,1.3026,1.4828,1.6398,1.7231,1.7485,1.7485,1.7485,1.7602,1.7966,1.7954,1.7812,1.8635,1.8984,1.9279,2.021,2.0715,2.055,2.0547,2.0352,2.0015,1.9539,1.9355,1.9277,1.927,1.9149,1.8907,1.9326,1.9186,1.8454,1.8311,1.8356,1.859,1.8187,1.8087,1.8238,1.7839,1.7219,1.6524,1.6569,1.6648,1.6586,1.7178,1.8184,1.9239,1.891,1.7989,1.7004,1.6063,1.4591,1.2686,1.2273,1.152,1.0347,0.9932,0.9596,0.9104,0.8538,0.8116,0.7909,0.7238,0.665,0.6292,0.5541,0.4968,0.4728,0.4068,0.4077,0.4916,0.621,0.7356,0.8409,0.9388,1.0436,1.164,1.2327,1.2869,1.3429,1.2781,1.2962,1.3739,1.4216,1.4845,1.6149,1.7199,1.7976,1.8852,1.9976,2.1547,2.3416,2.5002,2.6755,2.8369,2.9068,2.9008,2.9089,2.9535,2.8715,2.8699,3.0708,3.3046,3.4972,3.6846,3.848,3.9902,4.053,4.0699,4.0351,4.0955,4.2306,4.289,4.3326,4.3509,4.2775,4.1795,4.0452,1.2964,1.5113,1.6721,1.74,1.7479,1.7485,1.7485,1.7485,1.7602,1.7596,1.7695,1.8292,1.8642,1.8991,1.9591,1.9835,1.9752,2.0091,2.015,1.9954,1.9816,1.9606,1.9294,1.8974,1.8755,1.8625,1.8672,1.8471,1.8235,1.8354,1.8835,1.9268,1.9287,1.9231,1.9043,1.8308,1.7384,1.6722,1.653,1.6453,1.6673,1.6978,1.7407,1.7917,1.7809,1.7225,1.6105,1.5318,1.4277,1.29,1.2593,1.1951,1.0858,1.0053,0.9531,0.9225,0.9123,0.8902,0.8744,0.8365,0.7846,0.7321,0.644,0.5708,0.5267,0.4648,0.4806,0.6125,0.7249,0.8577,0.996,1.0687,1.1143,1.1918,1.2762,1.332,1.3225,1.298,1.3049,1.3706,1.4502,1.5604,1.6503,1.7326,1.8061,1.8753,2.0106,2.1724,2.3337,2.4893,2.6518,2.8111,2.8895,2.9144,2.8999,2.8781,2.8473,2.867,2.995,3.2271,3.4353,3.6945,3.8823,4.043,4.1081,4.2126,4.2218,4.3071,4.4056,4.4116,4.4553,4.3929,4.2978,4.2121,4.0642,1.3268,1.5109,1.6815,1.7485,1.7485,1.7485,1.7485,1.7485,1.7485,1.7473,1.7584,1.8181,1.8538,1.8765,1.9249,1.9374,1.9387,1.9955,2.0079,1.9989,2.0079,1.996,1.9424,1.8989,1.8724,1.8597,1.844,1.8345,1.8386,1.868,1.9207,1.9852,1.9692,1.9442,1.9175,1.8344,1.7519,1.6871,1.6686,1.6792,1.7173,1.7104,1.7073,1.7123,1.6959,1.6236,1.5096,1.4636,1.4052,1.3209,1.2901,1.2209,1.1089,1.0083,0.9553,0.9446,0.958,0.9621,0.9578,0.9497,0.9226,0.8523,0.7264,0.6379,0.6095,0.5355,0.5738,0.6935,0.8172,0.9551,1.0851,1.1566,1.2019,1.2608,1.3359,1.375,1.3661,1.3393,1.3508,1.4099,1.5216,1.6216,1.7154,1.7699,1.8313,1.8887,2.0193,2.1509,2.2868,2.4426,2.6039,2.7482,2.8366,2.8864,2.9045,2.886,2.85,2.8587,2.9663,3.185,3.3985,3.6613,3.9059,4.0682,4.2234,4.354,4.4567,4.5386,4.558,4.5534,4.5174,4.4673,4.3631,4.2553,4.1128,1.3824,1.4718,1.6644,1.7361,1.7367,1.7391,1.7497,1.7515,1.7533,1.7575,1.7711,1.8238,1.851,1.8589,1.9199,1.9379,1.9468,1.9977,2.0179,2.0186,2.02,2.0078,1.9733,1.9381,1.9118,1.8878,1.8945,1.9062,1.9312,1.9236,1.9614,1.9925,1.9186,1.8827,1.8588,1.8037,1.7557,1.7169,1.7228,1.7686,1.8073,1.764,1.7395,1.721,1.6511,1.5506,1.4295,1.4338,1.4061,1.3434,1.3174,1.2377,1.1034,1.0062,0.9721,0.9892,1.0079,1.0257,1.0321,1.0389,1.0235,0.9482,0.8088,0.6945,0.6784,0.6079,0.594,0.7206,0.8755,1.0085,1.1029,1.1916,1.2831,1.3764,1.3883,1.4138,1.4403,1.4009,1.3779,1.4855,1.5894,1.7095,1.7948,1.8459,1.8829,1.957,2.0047,2.0722,2.1998,2.3384,2.4903,2.6375,2.7529,2.8362,2.8746,2.8978,2.8607,2.8439,2.9905,3.1689,3.3519,3.5947,3.8928,4.0917,4.3958,4.5315,4.6164,4.6821,4.648,4.6317,4.5874,4.5227,4.4054,4.291,4.1789,1.3007,1.3799,1.5472,1.6301,1.656,1.6953,1.7279,1.7548,1.7835,1.804,1.8161,1.8759,1.8994,1.9063,1.9523,1.9659,1.9646,1.9692,1.9707,1.9707,1.9707,1.9707,1.9591,1.9482,1.9212,1.8951,1.9169,1.9505,1.9898,2.0061,2.0288,2.0322,1.9854,1.8942,1.8041,1.7584,1.7267,1.7067,1.7245,1.7564,1.8024,1.7647,1.7133,1.6541,1.6065,1.5394,1.4497,1.4572,1.4552,1.4396,1.4054,1.3115,1.1644,1.0574,1.0022,1.0083,1.0245,1.0253,1.0126,1.037,1.0058,0.9011,0.7613,0.6834,0.6537,0.6067,0.6298,0.7604,0.9208,1.0452,1.1376,1.21,1.2831,1.357,1.3883,1.4091,1.4292,1.4399,1.4572,1.5155,1.6485,1.7731,1.8505,1.8913,1.9471,1.988,2.0014,2.0479,2.1332,2.2615,2.3992,2.5666,2.6843,2.815,2.8811,2.926,2.909,2.9046,3.0098,3.1433,3.3235,3.5747,3.8689,4.2067,4.5051,4.6892,4.7737,4.7858,4.7507,4.6921,4.6361,4.5458,4.4326,4.3233,4.2199,1.2221,1.2831,1.4277,1.5105,1.5488,1.6194,1.7052,1.7859,1.8197,1.8294,1.8539,1.901,1.9254,1.9319,1.9688,1.9813,1.9766,1.9499,1.9366,1.9366,1.9366,1.9366,1.9482,1.9482,1.951,1.9462,1.987,2.0558,2.103,2.1071,2.1162,2.1192,2.0257,1.9275,1.8126,1.789,1.7621,1.7589,1.7785,1.8146,1.8351,1.8075,1.7388,1.6585,1.632,1.5743,1.5093,1.5295,1.5355,1.5002,1.4327,1.3241,1.1897,1.0772,1.0132,1.0107,1.0225,1.0245,1.0019,0.9868,0.9599,0.8411,0.7129,0.6322,0.6095,0.5853,0.6301,0.7601,0.8911,1.0232,1.113,1.1816,1.2496,1.3062,1.3542,1.3735,1.3962,1.4542,1.5297,1.5931,1.7218,1.8462,1.9462,1.9869,2.0237,2.0531,2.0661,2.07,2.1469,2.2597,2.4194,2.5627,2.7003,2.8213,2.9098,2.9441,2.9641,2.9897,3.0364,3.1496,3.2872,3.6073,3.922,4.3743,4.7194,4.8518,4.9368,4.8876,4.845,4.7703,4.6851,4.6133,4.5196,4.387,4.2711,1.1405,1.176,1.2978,1.3731,1.412,1.5292,1.6686,1.8125,1.83,1.8396,1.8507,1.9019,1.9356,1.9389,1.9712,1.9947,1.9813,1.9619,1.9506,1.9479,1.9446,1.9419,1.9372,1.9591,1.9795,2.012,2.1023,2.1904,2.2536,2.2205,2.2081,2.2014,2.0537,1.9348,1.8821,1.8656,1.8582,1.875,1.8933,1.9195,1.9216,1.8883,1.8071,1.7162,1.6958,1.6572,1.5947,1.6366,1.6366,1.5412,1.4254,1.3195,1.1921,1.0845,1.0188,1.0111,1.0152,1.0138,0.9876,0.9514,0.8895,0.8271,0.6699,0.5622,0.5829,0.5758,0.6044,0.7282,0.8406,0.9618,1.0622,1.1397,1.1946,1.2398,1.3024,1.3448,1.3591,1.4493,1.5529,1.6539,1.7876,1.9265,2.0573,2.0823,2.1212,2.1532,2.1684,2.1725,2.2109,2.3158,2.4819,2.6059,2.7198,2.7989,2.89,3.0028,3.0302,3.1036,3.1938,3.3633,3.479,3.7979,4.1057,4.5438,4.8567,4.9872,5.0287,4.9658,4.885,4.7934,4.7305,4.693,4.5844,4.4315,4.3122,1.0263,1.0639,1.1389,1.2138,1.2785,1.4094,1.5736,1.7474,1.788,1.8192,1.8475,1.924,1.9588,1.9846,1.9944,2.0202,2.0341,2.0114,2.0007,1.9967,1.9773,1.9559,1.9522,1.9707,2.0155,2.0831,2.1737,2.2749,2.3983,2.3332,2.2771,2.2156,2.104,2.0099,1.9324,1.9328,1.9652,2.0088,1.9872,1.9718,1.9615,1.9221,1.8471,1.7605,1.7522,1.7198,1.6619,1.7268,1.708,1.6033,1.5036,1.394,1.2783,1.1453,1.0724,1.0773,1.0753,1.06,1.0096,0.947,0.862,0.7513,0.6078,0.5348,0.5283,0.5541,0.6272,0.7374,0.8702,0.9934,1.081,1.1595,1.2023,1.236,1.2879,1.296,1.3068,1.4106,1.5373,1.6362,1.7896,1.9456,2.0639,2.1299,2.1575,2.1864,2.21,2.2257,2.2756,2.3679,2.5296,2.6111,2.7053,2.7777,2.8725,3.0005,3.1103,3.2124,3.4124,3.72,3.9018,4.1684,4.4617,4.8022,4.9552,5.0936,5.0568,4.9986,4.9067,4.814,4.7269,4.6572,4.5527,4.4223,4.3439,0.9376,0.9631,1.0133,1.0637,1.1292,1.2599,1.4102,1.5578,1.7027,1.7765,1.8156,1.9188,1.9711,1.9941,2.0058,2.0309,2.0518,2.0245,2.0234,2.0174,2.0039,1.975,1.9645,2.0148,2.0952,2.1752,2.2644,2.3768,2.4556,2.4128,2.3324,2.2442,2.1588,2.0753,2.0178,2.0254,2.0547,2.0977,2.0689,2.0226,1.9632,1.9213,1.8365,1.764,1.7483,1.7408,1.7331,1.8009,1.7799,1.6489,1.5451,1.4303,1.316,1.1742,1.1021,1.111,1.1017,1.081,1.0178,0.915,0.7977,0.695,0.5522,0.4879,0.4916,0.5426,0.6434,0.7673,0.9178,1.0343,1.1264,1.2105,1.265,1.2999,1.3079,1.2989,1.2635,1.3896,1.5244,1.6472,1.801,1.9612,2.0851,2.1604,2.2035,2.2513,2.296,2.3093,2.3329,2.4516,2.5514,2.6329,2.7488,2.8507,3.0015,3.1468,3.3758,3.4718,3.7767,4.0763,4.273,4.5147,4.7326,4.9575,5.0775,5.1421,5.0998,5.0331,4.9231,4.8239,4.7204,4.6214,4.5287,4.4363,4.3602,0.8654,0.8654,0.9035,0.9419,1.0085,1.1475,1.2726,1.3771,1.5987,1.7243,1.7893,1.8938,1.9577,1.9565,1.9997,2.025,2.023,2.0405,2.0368,2.0389,2.0421,2.0274,2.0117,2.0981,2.1979,2.278,2.388,2.4667,2.5128,2.4812,2.3904,2.2951,2.2085,2.1658,2.1368,2.1439,2.1653,2.1935,2.1516,2.0545,1.9621,1.8927,1.8042,1.7062,1.7109,1.7573,1.7869,1.836,1.8149,1.6837,1.5575,1.4375,1.3217,1.1811,1.1183,1.1098,1.1008,1.0799,0.9997,0.8613,0.7282,0.6485,0.4822,0.4069,0.4665,0.5453,0.6625,0.7911,0.9398,1.0685,1.174,1.2739,1.3264,1.3363,1.3603,1.3348,1.3178,1.3922,1.5266,1.6676,1.8283,1.9589,2.0812,2.1855,2.2703,2.2494,2.3099,2.3624,2.3988,2.4836,2.5708,2.6569,2.798,2.9608,3.1299,3.3058,3.5795,3.8131,4.1967,4.4874,4.6193,4.8211,4.9814,5.1354,5.2152,5.2213,5.174,5.0822,4.9616,4.8381,4.7314,4.6402,4.5475,4.453,4.3676,0.8643,0.8643,0.9036,0.9566,1.0231,1.1315,1.2763,1.4205,1.5928,1.7114,1.7905,1.881,1.9328,1.9571,1.989,2.0271,2.0498,2.0638,2.0815,2.0698,2.1142,2.1399,2.1389,2.1807,2.2788,2.4033,2.4684,2.5459,2.5806,2.5017,2.4111,2.2958,2.2356,2.2212,2.2409,2.2509,2.3275,2.3716,2.2679,2.1059,1.9712,1.8592,1.7624,1.6661,1.6738,1.7265,1.7876,1.839,1.8084,1.7067,1.5828,1.4593,1.3484,1.2013,1.1285,1.1079,1.0954,1.0506,0.9447,0.8265,0.7007,0.5909,0.4712,0.4088,0.4588,0.5496,0.669,0.8132,0.9578,1.0902,1.2303,1.2785,1.3154,1.3439,1.348,1.3339,1.3202,1.4323,1.5754,1.7249,1.8361,1.96,2.0779,2.1502,2.2099,2.2426,2.3202,2.3939,2.4605,2.5358,2.6091,2.6887,2.8773,3.0552,3.2767,3.5133,3.8564,4.0634,4.4104,4.7335,4.8716,4.977,5.0818,5.2047,5.3278,5.2961,5.215,5.1357,5.0165,4.8814,4.7454,4.6609,4.5688,4.4766,4.3992,0.8717,0.8851,0.938,1.0044,1.0846,1.2025,1.321,1.452,1.6078,1.7114,1.7899,1.8682,1.92,1.9456,1.9845,2.0227,2.0482,2.0849,2.0869,2.0705,2.104,2.1589,2.2049,2.2523,2.3542,2.5163,2.5423,2.5772,2.5732,2.5008,2.3768,2.2636,2.2108,2.2078,2.2597,2.2759,2.327,2.3626,2.2733,2.1179,1.9629,1.8597,1.7604,1.6907,1.6946,1.7384,1.7978,1.8242,1.8046,1.711,1.5759,1.4397,1.3391,1.2121,1.135,1.1094,1.0692,1.0081,0.9067,0.7609,0.6332,0.56,0.4522,0.4364,0.4681,0.56,0.6696,0.7948,0.9354,1.089,1.2427,1.2982,1.3288,1.3591,1.37,1.358,1.3635,1.4245,1.5352,1.6785,1.7668,1.8853,1.9994,2.1012,2.2047,2.2646,2.3996,2.4758,2.5645,2.6286,2.6588,2.7654,2.9558,3.1616,3.4059,3.7214,4.1375,4.3107,4.471,4.7465,4.9378,5.0274,5.1145,5.2364,5.3515,5.2951,5.2168,5.1405,5.0388,4.874,4.7454,4.675,4.5871,4.4773,4.4254,0.8987,0.9383,1.0044,1.0836,1.1626,1.2935,1.3984,1.4903,1.6328,1.7378,1.777,1.8688,1.9072,1.92,1.9717,1.9973,2.0354,2.0716,2.0862,2.0581,2.1067,2.1505,2.2025,2.2894,2.3937,2.5826,2.5648,2.5604,2.5206,2.4326,2.3095,2.2078,2.1645,2.1645,2.1904,2.2154,2.2622,2.316,2.2121,2.0708,1.9319,1.8331,1.7548,1.711,1.736,1.7569,1.7825,1.7963,1.7867,1.725,1.5359,1.3968,1.3058,1.2091,1.1292,1.0952,1.0226,0.9425,0.8343,0.6879,0.5624,0.5187,0.4457,0.4194,0.4753,0.5477,0.6483,0.7656,0.8983,1.0418,1.198,1.2465,1.3078,1.3604,1.382,1.384,1.387,1.3889,1.4628,1.5919,1.7053,1.8229,1.9339,2.0384,2.1691,2.2894,2.4287,2.5589,2.6328,2.6951,2.7283,2.8729,3.0727,3.4696,3.7453,3.9243,4.3441,4.408,4.5327,4.7118,4.9258,5.0089,5.087,5.2495,5.3211,5.269,5.2116,5.1337,5.0107,4.8491,4.7639,4.7138,4.6067,4.4765,4.4563,0.9921,1.0439,1.0843,1.1769,1.2947,1.3857,1.5033,1.6213,1.7114,1.777,1.8437,1.895,1.9072,1.92,1.945,1.996,2.0456,2.0823,2.1029,2.0875,2.1213,2.1666,2.1997,2.2806,2.4159,2.5013,2.516,2.5023,2.4709,2.3768,2.2738,2.1554,2.1125,2.1125,2.1439,2.1662,2.2096,2.237,2.1475,2.0089,1.8828,1.7775,1.7086,1.6841,1.7308,1.746,1.7506,1.7301,1.7044,1.6408,1.4575,1.3393,1.2623,1.1904,1.1324,1.0688,0.9899,0.8833,0.7739,0.6272,0.5255,0.4598,0.4111,0.3989,0.4452,0.5059,0.5853,0.6934,0.8245,0.9603,1.089,1.1306,1.2,1.276,1.3147,1.3251,1.3296,1.3349,1.3871,1.5149,1.6391,1.7399,1.8368,1.9456,2.0775,2.2073,2.3569,2.5244,2.6648,2.7185,2.7622,2.9567,3.2028,3.6763,4.1412,4.2793,4.491,4.4358,4.5139,4.624,4.8028,4.9248,5.0512,5.1992,5.2789,5.264,5.1992,5.1307,5.0582,4.9521,4.8571,4.7627,4.6649,4.5704,4.5346,1.1104,1.163,1.2033,1.2947,1.4128,1.5303,1.6343,1.7254,1.8028,1.8553,1.8822,1.9078,1.9072,1.92,1.9456,1.9897,2.0326,2.069,2.0896,2.0949,2.1148,2.1355,2.174,2.248,2.3618,2.4531,2.4765,2.4903,2.4948,2.413,2.2705,2.1496,2.1226,2.1131,2.1045,2.1365,2.1669,2.1737,2.0801,1.9572,1.8455,1.7301,1.665,1.6713,1.6997,1.715,1.6764,1.6512,1.5998,1.5338,1.3897,1.2881,1.2259,1.1807,1.1395,1.0568,0.9405,0.8224,0.7006,0.5663,0.4423,0.4161,0.405,0.4071,0.4195,0.4575,0.5086,0.601,0.68,0.7841,0.8846,0.9606,1.0577,1.1499,1.2073,1.2355,1.2488,1.2445,1.3088,1.4033,1.4756,1.5693,1.6881,1.811,1.9668,2.1189,2.2823,2.4563,2.6355,2.6327,2.6315,2.7543,2.9526,3.3106,3.7446,3.9408,4.1709,4.2181,4.3393,4.455,4.6727,4.7902,4.9582,5.1308,5.1794,5.2453,5.2158,5.1586,5.1036,5.0483,4.9455,4.8443,4.7554,4.6822,4.6115,1.2161,1.2684,1.3214,1.4128,1.5178,1.6483,1.7389,1.8033,1.8682,1.9072,1.9072,1.9072,1.92,1.9328,1.9686,2.0099,2.0539,2.0783,2.0975,2.1146,2.1254,2.1355,2.1488,2.2208,2.3338,2.4746,2.502,2.5169,2.5186,2.4404,2.2974,2.1899,2.1608,2.1272,2.0698,2.0942,2.1284,2.0938,2.0138,1.9139,1.8012,1.6966,1.6209,1.6322,1.6655,1.6625,1.5902,1.5416,1.494,1.4272,1.3315,1.2346,1.1868,1.1764,1.1463,1.0408,0.8905,0.7726,0.6641,0.5053,0.4077,0.3965,0.4007,0.4025,0.4029,0.4266,0.453,0.4915,0.5545,0.6326,0.7272,0.8076,0.9196,1.0272,1.0863,1.1208,1.171,1.1772,1.1594,1.2352,1.3017,1.371,1.4453,1.631,1.7646,1.9379,2.1032,2.2493,2.3941,2.3462,2.3562,2.443,2.6122,2.8517,3.1201,3.26,3.4727,3.6267,3.8303,4.0277,4.3485,4.6485,4.8463,5.0568,5.1927,5.2478,5.2137,5.1665,5.0974,5.0337,4.9884,4.897,4.7558,4.6618,4.5942,1.2828,1.3744,1.3744,1.466,1.5834,1.6618,1.7389,1.8039,1.8816,1.9072,1.9072,1.9072,1.9328,1.9833,2.0596,2.1076,2.1441,2.1804,2.2062,2.2131,2.2194,2.223,2.2237,2.2981,2.4186,2.5294,2.5708,2.5947,2.5696,2.4716,2.3278,2.1943,2.1434,2.0815,2.0152,2.057,2.0312,2.0055,1.9156,1.8137,1.7049,1.6357,1.6144,1.6177,1.616,1.5847,1.501,1.4372,1.3909,1.3721,1.263,1.1897,1.1772,1.1772,1.1402,1.0404,0.907,0.7614,0.6764,0.5054,0.3966,0.3995,0.4026,0.4034,0.4036,0.4287,0.4413,0.4666,0.5037,0.5423,0.6068,0.6988,0.8261,0.9359,1.0137,1.069,1.1278,1.0695,1.054,1.0281,1.0791,1.1122,1.1651,1.3766,1.5682,1.7416,1.9075,2.0483,2.099,2.0325,1.9726,2.0252,2.0973,2.3259,2.4502,2.6023,2.8531,3.0387,3.3521,3.6569,4.1448,4.5359,4.7869,4.98,5.1301,5.21,5.1582,5.1068,5.0609,4.9908,4.9133,4.8224,4.7173,4.6393,4.5891,1.3354,1.3875,1.4277,1.5057,1.5974,1.6742,1.7394,1.8039,1.881,1.9072,1.9072,1.9072,1.9699,2.0703,2.1587,2.2445,2.3069,2.3311,2.3566,2.3574,2.3705,2.3713,2.3953,2.4456,2.5325,2.605,2.6407,2.6444,2.6083,2.5139,2.3782,2.2052,2.1647,2.1107,2.0114,2.0501,2.0469,1.9831,1.8789,1.7502,1.6707,1.6393,1.609,1.5781,1.5702,1.5143,1.4355,1.3565,1.3191,1.3009,1.2214,1.1866,1.1772,1.1695,1.1407,1.0785,0.8952,0.7614,0.6764,0.4931,0.4216,0.3989,0.4015,0.4036,0.4036,0.4159,0.4267,0.4238,0.4361,0.4619,0.5126,0.5941,0.7136,0.8386,0.9314,0.9792,1.0234,0.964,0.9286,0.8828,0.8477,0.881,0.9278,1.1047,1.2915,1.4475,1.5617,1.6712,1.6855,1.605,1.5622,1.5274,1.6124,1.741,1.812,1.9265,2.2828,2.5447,2.9813,3.3709,4.0287,4.4322,4.7167,4.9347,5.094,5.1264,5.0885,5.0335,4.9769,4.9003,4.8227,4.7247,4.6364,4.6803,4.6212,1.3608,1.401,1.467,1.5323,1.6099,1.6742,1.7389,1.8033,1.881,1.9072,1.92,1.9456,2.0456,2.1706,2.2577,2.3442,2.454,2.4663,2.4794,2.4933,2.5056,2.5063,2.5194,2.5684,2.6181,2.69,2.6432,2.6261,2.6026,2.5229,2.3612,2.1939,2.1895,2.1252,2.0611,2.0575,2.0541,1.9639,1.8041,1.7048,1.6433,1.638,1.5918,1.5462,1.5117,1.4573,1.3764,1.2876,1.2483,1.2612,1.2386,1.2028,1.1878,1.178,1.1354,1.055,0.8955,0.7516,0.6555,0.5215,0.4219,0.3985,0.4126,0.4161,0.4284,0.4276,0.4374,0.4573,0.457,0.4569,0.4685,0.5665,0.7004,0.8035,0.8756,0.9003,0.9109,0.8794,0.8233,0.7624,0.7151,0.6558,0.7246,0.8582,1.011,1.1449,1.2373,1.3156,1.259,1.1743,1.0782,1.013,1.0201,1.0996,1.1109,1.2756,1.6368,2.0829,2.5195,3.1353,3.8196,4.3584,4.7271,4.9143,5.0526,5.0442,5.0053,4.9492,4.8912,4.8151,4.733,4.6288,4.5797,4.6174,4.5845,1.3481,1.4006,1.467,1.5318,1.6104,1.6748,1.7394,1.8033,1.881,1.9072,1.9328,2.0094,2.1215,2.2452,2.334,2.4209,2.5063,2.5095,2.5202,2.5317,2.5439,2.5937,2.6181,2.6554,2.6571,2.6545,2.6189,2.5692,2.5071,2.4216,2.3249,2.253,2.1913,2.1156,2.0686,2.0575,2.0241,1.9285,1.7762,1.6846,1.6361,1.6097,1.5614,1.5053,1.4467,1.3737,1.3046,1.2386,1.208,1.2471,1.2403,1.219,1.2036,1.1792,1.148,1.0386,0.8876,0.757,0.6509,0.5135,0.4271,0.4027,0.4277,0.4654,0.4911,0.522,0.5429,0.5665,0.5786,0.5784,0.6031,0.6644,0.7739,0.8421,0.8916,0.8794,0.8791,0.8079,0.7428,0.6657,0.5918,0.5418,0.5143,0.6438,0.776,0.9165,0.9227,0.9848,0.8096,0.7082,0.5719,0.4815,0.4386,0.4292,0.3937,0.6348,1.0282,1.5925,2.1227,2.872,3.6676,4.1577,4.6415,4.8427,4.9582,4.9409,4.9101,4.8356,4.7696,4.7224,4.6253,4.4432,4.3589,4.3683,4.3421,1.4006,1.4534,1.48,1.5323,1.6104,1.6748,1.7389,1.8033,1.8816,1.92,1.945,2.0469,2.1964,2.3435,2.4317,2.5194,2.6164,2.6059,2.605,2.6294,2.6658,2.7159,2.753,2.7409,2.7289,2.6667,2.5928,2.4818,2.3829,2.3098,2.2313,2.1818,2.1652,2.1252,2.0792,2.0548,2.0134,1.9446,1.8287,1.749,1.6793,1.6309,1.5638,1.4723,1.3949,1.3292,1.2685,1.2047,1.1985,1.2254,1.2336,1.2231,1.192,1.1773,1.1117,1.0163,0.8502,0.7288,0.6452,0.504,0.3997,0.4147,0.4505,0.4989,0.5651,0.6083,0.6528,0.6884,0.7128,0.7126,0.7248,0.7861,0.859,0.9166,0.9327,0.8956,0.8362,0.7668,0.6474,0.5571,0.4913,0.4377,0.4206,0.4393,0.5563,0.677,0.6657,0.6253,0.4978,0.4067,0.3243,0.2829,0.2666,0.238,0.2192,0.3424,0.4807,1.098,1.7565,2.5349,3.3423,4.0057,4.4387,4.6665,4.8759,4.9048,4.8596,4.726,4.6502,4.609,4.4156,4.157,4.119,4.1341,4.0929,1.4534,1.4931,1.4936,1.5323,1.6104,1.6748,1.7389,1.8033,1.8938,1.9456,1.996,2.1102,2.2702,2.4294,2.5063,2.5692,2.6302,2.6311,2.6424,2.6667,2.7021,2.8002,2.8379,2.8131,2.728,2.6529,2.5431,2.4085,2.2841,2.223,2.1713,2.1335,2.1215,2.0915,2.0826,2.0548,2.0206,1.9826,1.9213,1.8196,1.7326,1.6599,1.5626,1.4518,1.3619,1.2909,1.2447,1.19,1.1815,1.2119,1.2231,1.221,1.1878,1.1287,1.0499,0.9403,0.8039,0.676,0.589,0.494,0.4248,0.4398,0.5096,0.5724,0.6489,0.7197,0.7744,0.8349,0.8471,0.8468,0.8468,0.8961,0.9447,1.003,0.9643,0.9287,0.8101,0.7179,0.5752,0.4462,0.4027,0.3704,0.3385,0.3314,0.3464,0.4502,0.4559,0.45,0.4017,0.3236,0.2825,0.2548,0.2402,0.2245,0.2087,0.2783,0.3925,0.8778,1.5377,2.1762,2.9229,3.5823,4.1882,4.5123,4.7021,4.8437,4.8048,4.664,4.5722,4.504,4.2671,4.0278,3.9553,3.9666,3.8885,1.4936,1.4936,1.4931,1.5323,1.6104,1.6748,1.7389,1.8162,1.9194,2.0094,2.0722,2.1985,2.3457,2.4794,2.5333,2.5709,2.5815,2.5709,2.5709,2.6059,2.6658,2.7753,2.825,2.8011,2.6909,2.5928,2.471,2.3479,2.2104,2.1859,2.1362,2.0976,2.0709,2.0485,2.0551,2.0136,1.9991,1.9973,1.9475,1.8691,1.7359,1.6392,1.5292,1.4254,1.3197,1.2533,1.2183,1.1808,1.1732,1.206,1.2365,1.2331,1.188,1.1151,1.023,0.9157,0.734,0.621,0.562,0.4855,0.4804,0.5163,0.5858,0.6829,0.7743,0.8438,0.9083,0.969,0.9819,0.9819,0.994,1.0061,1.0422,1.0415,1.0148,0.9229,0.8034,0.679,0.5343,0.4034,0.3593,0.3268,0.2811,0.2344,0.1986,0.2251,0.2517,0.2536,0.2171,0.1789,0.1143,0.1008,0.0876,0.0623,0.0495,0.1251,0.3329,0.7853,1.1877,1.6747,2.2977,2.9504,3.5612,4.1418,4.3419,4.3188,4.4701,4.5957,3.8839,3.1931,3.9771,3.9843,3.8859,3.7752,3.6939,1.5066,1.5332,1.5583,1.5969,1.6618,1.6877,1.7523,1.8559,1.996,2.1102,2.1985,2.2856,2.4209,2.5194,2.5333,2.5341,2.5317,2.4841,2.4841,2.5448,2.6189,2.7521,2.814,2.7788,2.6554,2.5317,2.4092,2.2863,2.1481,2.1362,2.1235,2.0976,2.0075,1.9776,1.984,1.9682,1.9587,1.9189,1.9101,1.8714,1.6896,1.592,1.4939,1.3833,1.2894,1.2285,1.2,1.1717,1.1845,1.2158,1.2454,1.2298,1.1785,1.0939,1.012,0.8932,0.7227,0.5982,0.5313,0.4846,0.545,0.6061,0.6874,0.7964,0.9233,0.9811,1.0465,1.0793,1.0921,1.0921,1.1167,1.1163,1.1405,1.116,1.0638,0.9226,0.7943,0.6605,0.5272,0.3837,0.3137,0.231,0.1718,0.0615,0.0124,-0.0621,-0.0624,-0.0374,-0.0626,-0.0881,-0.1257,-0.137,-0.1485,-0.1486,-0.1365,-0.1502,-0.1255,0.1462,0.4581,0.8036,1.4783,2.0833,2.5531,2.9342,3.3724,3.7488,3.4955,3.0927,2.113,1.7562,2.5232,3.1507,3.0854,3.1964,3.4672,1.5192,1.5719,1.6224,1.6866,1.7641,1.7647,1.8156,1.9425,2.0963,2.2111,2.2988,2.386,2.4833,2.5692,2.57,2.521,2.4933,2.4463,2.4603,2.5183,2.5855,2.7392,2.8162,2.772,2.6311,2.4949,2.3713,2.248,2.1229,2.1102,2.0849,2.0335,1.9304,1.8652,1.8646,1.8471,1.8401,1.7964,1.7795,1.7245,1.6073,1.5262,1.4361,1.3442,1.2667,1.2052,1.1923,1.195,1.2,1.2268,1.2339,1.2354,1.1758,1.1009,1.034,0.8927,0.7322,0.5788,0.4814,0.5259,0.6008,0.691,0.7743,0.8847,1.009,1.0678,1.108,1.153,1.178,1.1784,1.1788,1.1784,1.1663,1.1542,1.0525,0.9115,0.7769,0.6422,0.5216,0.3763,0.2673,0.1713,0.0491,-0.0983,-0.1971,-0.2965,-0.3841,-0.358,-0.3445,-0.3712,-0.3978,-0.4193,-0.4537,-0.4908,-0.5065,-0.5249,-0.4881,-0.4373,-0.2542,-0.035,0.2254,0.754,1.2451,1.6853,1.996,2.1647,1.9747,1.4536,0.6866,0.54,1.0445,1.599,2.0559,2.1838,2.2659,1.5323,1.6099,1.6726,1.7876,1.878,1.892,1.9649,2.0604,2.2069,2.312,2.3875,2.4718,2.557,2.6311,2.6197,2.5692,2.4972,2.4378,2.4805,2.5553,2.6109,2.7774,2.8357,2.7878,2.6394,2.4964,2.3713,2.248,2.1229,2.1102,2.0596,1.9571,1.853,1.763,1.712,1.6592,1.6663,1.6498,1.6022,1.5751,1.5177,1.462,1.382,1.3092,1.2386,1.2028,1.1971,1.2052,1.2162,1.2459,1.2503,1.2431,1.1984,1.129,1.0412,0.9105,0.7238,0.5833,0.4846,0.5672,0.6635,0.7738,0.8597,0.9698,1.0573,1.1283,1.1457,1.1696,1.1841,1.1821,1.1809,1.1687,1.1687,1.1061,1.0429,0.9061,0.7596,0.6252,0.4914,0.3812,0.2827,0.1725,0.0123,-0.1354,-0.3074,-0.4798,-0.5792,-0.6884,-0.6738,-0.66,-0.6989,-0.7461,-0.792,-0.8533,-0.8735,-0.8847,-0.9417,-0.928,-1.0907,-0.9546,-0.7362,-0.4998,-0.0296,0.3741,0.5504,0.4874,0.0449,-0.2221,-0.5154,-0.5423,-0.9856,-0.1499,0.2329,0.1112,0.0795,1.5844,1.6742,1.8011,1.8908,1.9941,2.1454,2.2334,2.282,2.3472,2.4108,2.4734,2.5464,2.6205,2.6805,2.6319,2.57,2.5183,2.4813,2.5094,2.558,2.6327,2.7928,2.8465,2.7957,2.6527,2.5012,2.3713,2.2355,2.1362,2.1109,2.0342,1.9322,1.7888,1.6726,1.5569,1.453,1.4832,1.5029,1.4604,1.4515,1.4247,1.3884,1.3277,1.2832,1.2254,1.2036,1.2154,1.2199,1.2304,1.2471,1.2657,1.262,1.2242,1.175,1.0975,0.8969,0.7578,0.6568,0.571,0.639,0.7449,0.8389,0.9255,1.0414,1.1302,1.1658,1.1712,1.1878,1.18,1.1796,1.1686,1.1563,1.1394,1.073,0.9842,0.8468,0.6999,0.5657,0.4315,0.3086,0.2222,0.1357,-0.0246,-0.1846,-0.3687,-0.5894,-0.7614,-0.8836,-0.9667,-0.9405,-0.9858,-1.0332,-1.1168,-1.1786,-1.2155,-1.2306,-1.3441,-1.4428,-1.5926,-1.6958,-1.5389,-1.3037,-1.1093,-0.969,-0.8304,-1.3653,-2.1271,-2.2677,-2.2149,-3.36,-3.784,-2.5834,-1.682,-1.763,-1.6912,1.6364,1.7518,1.9048,2.0443,2.1964,2.3479,2.4232,2.4232,2.4487,2.4734,2.5111,2.5831,2.6524,2.7034,2.6683,2.6257,2.5657,2.5344,2.5397,2.5968,2.6479,2.7613,2.8109,2.7655,2.6109,2.4688,2.3472,2.2237,2.1256,2.0609,1.9954,1.8676,1.7243,1.5959,1.4791,1.3739,1.3434,1.3661,1.3761,1.3574,1.3341,1.3242,1.2978,1.2712,1.2209,1.2138,1.2259,1.23,1.2393,1.2556,1.2739,1.27,1.2437,1.2173,1.138,0.9757,0.8864,0.7872,0.7013,0.7385,0.8154,0.8805,0.9724,1.076,1.1405,1.189,1.1914,1.1963,1.1884,1.1669,1.1569,1.1324,1.0859,1.053,0.9127,0.7739,0.639,0.4923,0.3574,0.2222,0.1358,0.0617,-0.0616,-0.2214,-0.4059,-0.6278,-0.8156,-0.9798,-1.0856,-1.1518,-1.22,-1.3012,-1.3965,-1.494,-1.522,-1.5592,-1.685,-1.8131,-2.0004,-2.0856,-2.1149,-2.182,-2.0657,-2.1387,-2.2406,-2.7844,-3.2984,-3.7918,-4.0733,-4.9829,-5.3043,-4.292,-3.4473,-3.5096,-3.3491,1.6824,1.8127,1.9928,2.2208,2.4479,2.4857,2.4988,2.5103,2.4988,2.5103,2.5234,2.5872,2.6683,2.7378,2.7241,2.7044,2.6563,2.6224,2.5884,2.6221,2.6316,2.7057,2.7267,2.6758,2.5557,2.4219,2.3104,2.2243,2.1236,2.0381,1.9512,1.7961,1.6702,1.5444,1.4417,1.3494,1.3087,1.3224,1.3186,1.3137,1.2902,1.2747,1.2714,1.2511,1.2333,1.2243,1.2284,1.2324,1.2373,1.2552,1.269,1.2787,1.266,1.2393,1.16,1.0875,0.9967,0.8986,0.8261,0.8383,0.8798,0.9461,1.0022,1.0908,1.1662,1.1922,1.1963,1.2013,1.1838,1.1618,1.1392,1.0854,1.0402,0.9529,0.8203,0.6794,0.5412,0.4187,0.2959,0.1729,0.0987,0.037,-0.0863,-0.2462,-0.4077,-0.6304,-0.8315,-1.0115,-1.1753,-1.2769,-1.4038,-1.5074,-1.6007,-1.6961,-1.7762,-1.8401,-2.0057,-2.163,-2.32,-2.4533,-2.4769,-2.7278,-3.062,-2.9917,-2.9428,-3.6113,-4.1596,-4.4494,-4.6612,-5.0522,-5.3028,-5.3386,-5.1365,-4.8297,-4.7056,1.6959,1.8398,2.0989,2.323,2.4865,2.5111,2.5103,2.5103,2.5103,2.5103,2.5274,2.6109,2.6901,2.7531,2.7704,2.7765,2.7596,2.6834,2.6671,2.6454,2.633,2.6213,2.6647,2.5931,2.4956,2.4183,2.3192,2.2087,2.0889,1.9998,1.9105,1.7651,1.628,1.505,1.4392,1.3456,1.3189,1.3173,1.3165,1.2994,1.2767,1.254,1.2385,1.2288,1.2174,1.2146,1.217,1.2194,1.2333,1.2511,1.2584,1.2625,1.2629,1.2244,1.1782,1.117,1.0739,0.9895,0.9431,0.9462,0.9754,1.004,1.0483,1.1283,1.1697,1.1836,1.1949,1.1913,1.178,1.1422,1.1045,1.0358,0.9656,0.8511,0.7271,0.5844,0.4441,0.3331,0.2224,0.1481,0.074,-0.0247,-0.1358,-0.2597,-0.4213,-0.5972,-0.7997,-0.9932,-1.1799,-1.3287,-1.5187,-1.6221,-1.7422,-1.8464,-1.9553,-2.0642,-2.1911,-2.3232,-2.4561,-2.617,-2.7957,-2.9856,-3.1772,-3.3898,-3.5923,-4.0195,-4.3265,-4.5677,-4.8216,-5.1025,-5.2112,-5.2136,-5.2761,-5.0677,-5.2689,1.7371,1.8765,2.152,2.3608,2.4964,2.5103,2.5103,2.5103,2.5103,2.5103,2.5159,2.5951,2.6819,2.7378,2.7748,2.7897,2.7852,2.7311,2.6619,2.6308,2.6042,2.5669,2.5453,2.5076,2.4407,2.3484,2.2517,2.1298,2.0299,1.9171,1.8083,1.6912,1.5545,1.4737,1.4199,1.3651,1.3388,1.336,1.3388,1.3202,1.2889,1.2747,1.2605,1.2483,1.2292,1.2215,1.2207,1.2264,1.2454,1.2609,1.2698,1.271,1.2666,1.2415,1.2039,1.1687,1.1355,1.0882,1.0422,1.0352,1.0685,1.0764,1.0893,1.1487,1.1756,1.1791,1.1419,1.1331,1.0694,1.0327,0.9863,0.9199,0.8356,0.7234,0.6127,0.4805,0.3511,0.2247,0.1243,0.0493,-0.0371,-0.1249,-0.2378,-0.3405,-0.493,-0.6846,-0.8643,-1.0713,-1.2463,-1.443,-1.6117,-1.7497,-1.8701,-1.9688,-2.0578,-2.184,-2.3181,-2.4514,-2.6047,-2.7619,-2.9323,-3.0941,-3.2829,-3.4601,-3.6802,-3.9633,-4.2654,-4.5046,-4.7004,-4.9181,-5.0059,-5.0554,-5.1371,-5.2197,-5.3338,1.7935,1.9351,2.1753,2.365,2.4901,2.5087,2.5071,2.5048,2.5087,2.5071,2.498,2.5492,2.6348,2.6918,2.7335,2.7523,2.7314,2.6768,2.6054,2.554,2.5158,2.4764,2.4357,2.3954,2.3434,2.2665,2.1671,2.0447,1.9246,1.8156,1.6924,1.5899,1.4932,1.4126,1.3846,1.3725,1.3494,1.351,1.351,1.3478,1.3344,1.3214,1.2999,1.2775,1.2576,1.2398,1.243,1.2519,1.269,1.2791,1.2856,1.2795,1.2666,1.2483,1.2292,1.2053,1.1681,1.1375,1.1206,1.0997,1.1164,1.1341,1.1395,1.142,1.1547,1.1124,1.0743,1.012,0.9347,0.8972,0.8497,0.7847,0.7001,0.6025,0.4794,0.3721,0.2418,0.1263,0.0375,-0.062,-0.1623,-0.2522,-0.3558,-0.4483,-0.6044,-0.7871,-0.9838,-1.1966,-1.4089,-1.6292,-1.8189,-1.915,-1.9955,-2.0927,-2.184,-2.3403,-2.4913,-2.6323,-2.7828,-2.9237,-3.0543,-3.2064,-3.355,-3.487,-3.7155,-3.9466,-4.1497,-4.3769,-4.5667,-4.7184,-4.7951,-4.8646,-4.9612,-5.0563,-5.1978,1.8701,2.0851,2.2743,2.3885,2.4722,2.4976,2.4952,2.4762,2.4984,2.483,2.4509,2.4627,2.519,2.5903,2.6525,2.6698,2.6424,2.5935,2.554,2.5143,2.4495,2.391,2.3412,2.314,2.2706,2.1829,2.0928,1.9892,1.8325,1.702,1.6004,1.5117,1.4442,1.3895,1.3903,1.3746,1.354,1.352,1.3532,1.3532,1.3587,1.3405,1.3128,1.2962,1.2852,1.2767,1.2751,1.2763,1.2885,1.2986,1.3027,1.2905,1.2706,1.2479,1.2264,1.2097,1.1836,1.1302,1.1145,1.0886,1.096,1.0926,1.0864,1.0728,1.0527,0.9593,0.897,0.7982,0.7462,0.746,0.6956,0.6291,0.5464,0.4613,0.3521,0.2461,0.1286,0.0255,-0.0633,-0.202,-0.3293,-0.4215,-0.5146,-0.621,-0.752,-0.9362,-1.1199,-1.3345,-1.5777,-1.803,-2.015,-2.0835,-2.1347,-2.2458,-2.3497,-2.5354,-2.6875,-2.834,-2.9709,-3.1137,-3.2339,-3.3101,-3.4445,-3.5605,-3.6829,-3.8685,-4.0771,-4.2445,-4.3513,-4.4862,-4.5722,-4.6624,-4.7661,-4.898,-5.0431]},{"header":{"parameterUnit":"m.s-1","parameterCategory":1,"la1":31.0,"la2":29.5877,"lo1":-88.7671,"lo2":-86.6584,"dy":0.0162,"dx":0.0185,"nx":115,"ny":88,"refTime":"2026-05-04T12:00:00:Z","depth":0,"parameterNumber":3,"parameterNumberName":"V-component_of_WINDS"},"data":[0.0,0.0,0.0,0.0,0.0,0.0,0.0,0.0,0.0,0.0,0.0,0.0,0.0,0.0,0.0,0.0,0.0,0.0,0.0,0.0,0.0,0.0,0.0,0.0,0.0,0.0,0.0,0.0,0.0,0.0,0.0,0.0,0.0,0.0,0.0,0.0,0.0,0.0,0.0,0.0,0.0,0.0,0.0,0.0,0.0,0.0,0.0,0.0,0.0,0.0,0.0,0.0,0.0,0.0,0.0,0.0,0.0,0.0,0.0,0.0,0.0,0.0,0.0,0.0,0.0,0.0,0.0,0.0,0.0,0.0,0.0,0.0,0.0,0.0,0.0,0.0,0.0,0.0,0.0,0.0,0.0,0.0,0.0,0.0,0.0,0.0,0.0,0.0,0.0,0.0,0.0,0.0,0.0,0.0,0.0,0.0,0.0,0.0,0.0,0.0,0.0,0.0,0.0,0.0,0.0,0.0,0.0,0.0,0.0,0.0,0.0,0.0,0.0,0.0,0.0,0.0,0.0,0.0,0.0,0.0,0.0,0.0,0.0,0.0,0.0,0.0,0.0,0.0,0.0,0.0,0.0,0.0,0.0,0.0,0.0,0.0,0.0,0.0,0.0,0.0,0.0,0.0,0.0,0.0,0.0,0.0,0.0,0.0,0.0,0.0,0.0,0.0,0.0,0.0,0.0,0.0,0.0,0.0,0.0,0.0,0.0,0.0,0.0,0.0,0.0,0.0,0.0,0.0,0.0,0.0,0.0,0.0,0.0,0.0,0.0,0.0,0.0,0.0,0.0,0.0,0.0,0.0,0.0,0.0,0.0,0.0,0.0,0.0,0.0,0.0,0.0,0.0,0.0,0.0,0.0,0.0,0.0,0.0,0.0,0.0,0.0,0.0,0.0,0.0,0.0,0.0,0.0,0.0,0.0,0.0,0.0,0.0,0.0,0.0,0.0,0.0,0.0,0.0,0.0,0.0,0.0,0.0,0.0,0.0,0.0,0.0,0.0,0.0,0.0,0.0,0.0,0.0,0.0,0.0,0.0,0.0,0.0,0.0,0.0,0.0,0.0,0.0,0.0,0.0,0.0,0.0,0.0,0.0,0.0,0.0,0.0,0.0,0.0,0.0,0.0,0.0,0.0,0.0,0.0,0.0,0.0,0.0,0.0,0.0,0.0,0.0,0.0,0.0,0.0,0.0,0.0,0.0,0.0,0.0,0.0,0.0,0.0,0.0,0.0,0.0,0.0,0.0,0.0,0.0,0.0,0.0,0.0,0.0,0.0,0.0,0.0,0.0,0.0,0.0,0.0,0.0,0.0,0.0,0.0,0.0,0.0,0.0,0.0,0.0,0.0,0.0,0.0,0.0,0.0,0.0,0.0,0.0,0.0,0.0,0.0,0.0,0.0,0.0,0.0,0.0,0.0,0.0,0.0,0.0,0.0,0.0,0.0,0.0,0.0,0.0,0.0,0.0,0.0,0.0,0.0,0.0,0.0,0.0,0.0,0.0,0.0,0.0,0.0,0.0,0.0,0.0,0.0,0.0,0.0,0.0,0.0,0.0,0.0,0.0,0.0,0.0,0.0,0.0,0.0,0.0,0.0,0.0,0.0,0.0,0.0,0.0,0.0,0.0,0.0,0.0,0.0,0.0,0.0,0.0,0.0,0.0,0.0,0.0,0.0,0.0,0.0,0.0,0.0,0.0,0.0,0.0,0.0,0.0,0.0,0.0,0.0,0.0,0.0,0.0,0.0,0.0,0.0,0.0,0.0,0.0,0.0,0.0,0.0,0.0,0.0,0.0,0.0,0.0,0.0,0.0,0.0,0.0,0.0,0.0,0.0,0.0,0.0,0.0,0.0,0.0,0.0,0.0,0.0,0.0,0.0,0.0,0.0,0.0,0.0,0.0,0.0,0.0,0.0,0.0,0.0,0.0,0.0,0.0,0.0,0.0,0.0,0.0,0.0,0.0,0.0,0.0,0.0,0.0,0.0,0.0,0.0,0.0,0.0,0.0,0.0,0.0,0.0,0.0,0.0,0.0,0.0,0.0,0.0,0.0,0.0,0.0,0.0,0.0,0.0,0.0,0.0,0.0,0.0,0.0,0.0,0.0,0.0,0.0,0.0,0.0,0.0,0.0,0.0,0.0,0.0,0.0,0.0,0.0,0.0,0.0,0.0,0.0,0.0,0.0,0.0,0.0,0.0,0.0,0.0,0.0,0.0,0.0,0.0,0.0,0.0,0.0,0.0,0.0,0.0,0.0,0.0,0.0,0.0,0.0,0.0,0.0,0.0,0.0,0.0,0.0,0.0,0.0,0.0,0.0,0.0,0.0,0.0,0.0,0.0,0.0,0.0,0.0,0.0,0.0,0.0,0.0,0.0,0.0,0.0,0.0,0.0,0.0,0.0,0.0,0.0,0.0,0.0,0.0,0.0,0.0,0.0,0.0,0.0,0.0,0.0,0.0,0.0,0.0,0.0,0.0,0.0,0.0,0.0,0.0,0.0,0.0,0.0,0.0,0.0,0.0,0.0,0.0,0.0,0.0,0.0,0.0,0.0,0.0,0.0,0.0,0.0,0.0,0.0,0.0,0.0,0.0,0.0,0.0,0.0,0.0,0.0,0.0,0.0,0.0,0.0,0.0,0.0,0.0,0.0,0.0,0.0,0.0,0.0,0.0,0.0,0.0,0.0,0.0,0.0,0.0,0.0,0.0,0.0,0.0,0.0,0.0,0.0,0.0,0.0,0.0,0.0,0.0,0.0,0.0,0.0,0.0,0.0,0.0,0.0,0.0,0.0,0.0,0.0,0.0,0.0,0.0,0.0,0.0,0.0,0.0,0.0,0.0,0.0,0.0,0.0,0.0,0.0,0.0,0.0,0.0,0.0,0.0,0.0,0.0,0.0,0.0,0.0,0.0,0.0,0.0,0.0,0.0,0.0,0.0,0.0,0.0,0.0,0.0,0.0,0.0,0.0,0.0,0.0,0.0,0.0,0.0,0.0,0.0,0.0,0.0,0.0,0.0,0.0,0.0,0.0,0.0,0.0,0.0,0.0,0.0,0.0,0.0,0.0,0.0,0.0,0.0,0.0,0.0,0.0,0.0,0.0,0.0,0.0,0.0,0.0,0.0,0.0,0.0,0.0,0.0,0.0,0.0,0.0,0.0,0.0,0.0,0.0,0.0,0.0,0.0,0.0,0.0,0.0,0.0,0.0,0.0,0.0,0.0,0.0,0.0,0.0,0.0,0.0,0.0,0.0,0.0,0.0,0.0,0.0,0.0,0.0,0.0,0.0,0.0,0.0,0.0,0.0,0.0,0.0,0.0,0.0,0.0,0.0,0.0,0.0,0.0,0.0,0.0,0.0,0.0,0.0,0.0,0.0,0.0,0.0,0.0,0.0,0.0,0.0,0.0,0.0,0.0,0.0,0.0,0.0,0.0,0.0,0.0,0.0,0.0,0.0,0.0,0.0,0.0,0.0,0.0,0.0,0.0,0.0,0.0,0.0,0.0,0.0,0.0,0.0,0.0,0.0,0.0,0.0,0.0,0.0,0.0,0.0,0.0,0.0,0.0,0.0,0.0,0.0,0.0,0.0,0.0,0.0,0.0,0.0,0.0,0.0,0.0,0.0,0.0,0.0,0.0,0.0,0.0,0.0,0.0,0.0,0.0,0.0,0.0,0.0,0.0,0.0,0.0,0.0,0.0,0.0,0.0,0.0,0.0,0.0,0.0,0.0,0.0,0.0,0.0,0.0,0.0,0.0,0.0,0.0,0.0,0.0,0.0,0.0,0.0,0.0,0.0,0.0,0.0,0.0,0.0,0.0,0.0,0.0,0.0,0.0,0.0,0.0,0.0,0.0,0.0,0.0,0.0,0.0,0.0,0.0,0.0,0.0,0.0,0.0,0.0,0.0,0.0,0.0,0.0,0.0,0.0,0.0,0.0,0.0,0.0,0.0,0.0,0.0,0.0,0.0,0.0,0.0,0.0,0.0,0.0,0.0,0.0,0.0,0.0,0.0,0.0,0.0,0.0,0.0,0.0,0.0,0.0,0.0,0.0,0.0,0.0,0.0,0.0,0.0,0.0,0.0,0.0,0.0,0.0,0.0,0.0,0.0,0.0,0.0,0.0,0.0,0.0,0.0,0.0,0.0,0.0,0.0,0.0,0.0,0.0,0.0,0.0,0.0,0.0,0.0,0.0,0.0,0.0,0.0,0.0,0.0,0.0,0.0,0.0,0.0,0.0,0.0,0.0,0.0,0.0,0.0,0.0,0.0,0.0,-0.0769,0.0,0.0,0.0,0.0,0.0,0.0,0.0,0.0,0.0,0.0,0.0,0.0,0.0,0.0,0.0,0.0,0.0,0.0,0.0,0.0,0.0,0.0,0.0,0.0,0.0,0.0,0.0,0.0,0.0,0.0,0.0,0.0,0.0,0.0,0.0,0.0,0.0,0.0,0.0,0.0,0.0,0.0,0.0,0.0,0.0,0.0,0.0,0.0,0.0,0.0,0.0,0.0,0.0,0.0,0.0,0.0,0.0,0.0,0.0,0.0,0.0,0.0,0.0,0.0,0.0,0.0,0.0,0.0,0.0,0.0,0.0,0.0,0.0,0.0,0.0,0.0,0.0,0.0,0.0,0.0,0.0,0.0,0.0,0.0,0.0,0.0,0.0,0.0,0.0,0.0,0.0,0.0,0.0,0.0,0.0,0.0,0.0,0.0,0.0,0.0,0.0,0.0,0.0,0.0,0.0,0.0,0.0,0.0,0.0,0.0,-0.009,-0.009,-0.0225,-0.0382,-0.052,0.0,0.0,0.0,0.0,0.0,0.0,0.0,0.0,0.0,0.0,0.0,0.0,0.0,0.0,0.0,0.0,0.0,0.0,0.0,0.0,0.0,0.0,0.0,0.0,0.0,0.0,0.0,0.0,0.0,0.0,0.0,0.0,0.0,0.0,0.0,0.0,0.0,0.0,0.0,0.0,0.0,0.0,0.0,0.0,0.0,0.0,0.0,0.0,0.0,0.0,0.0,0.0,0.0,0.0,0.0,0.0,0.0,0.0,0.0,0.0,0.0,0.0,0.0,0.0,0.0,0.0,0.0,0.0,0.0,0.0,0.0,0.0,0.0,0.0,0.0,0.0,0.0,0.0,0.0,0.0,0.0,0.0,0.0,0.0,0.0,0.0,0.0,0.0,0.0,0.0,0.0,0.0,0.0,0.0,0.0,0.0,0.0,0.0,0.0,0.0,0.0,0.0,0.0,0.0,0.0,0.0,0.0,0.0,0.0,0.0,0.0,0.0,-0.0259,-0.0404,-0.0405,0.0,0.0,0.0,0.0,0.0,0.0,0.0,0.0,0.0,0.0,0.0,0.0,0.0,0.0,0.0,0.0,0.0,0.0,0.0,0.0,0.0,0.0,0.0,0.0,0.0,0.0,0.0,0.0,0.0,0.0,0.0,0.0,0.0,0.0,0.0,0.0,0.0,0.0,0.0,0.0,0.0,0.0,0.0,0.0,0.0,0.0,0.0,0.0,0.0,0.0,0.0,0.0,0.0,0.0,0.0,0.0,0.0,0.0,0.0,0.0,0.0,0.0,0.0,0.0,0.0,0.0,0.0,0.0,0.0,0.0,0.0,0.0,0.0,0.0,0.0,0.0,0.0,0.0,0.0,0.0,0.0,0.0,0.0,0.0,0.0,0.0,0.0,0.0,0.0,0.0,0.0,0.0,0.0,0.0,0.0,0.0,0.0,0.0,0.0,0.0,0.0,0.0,0.0,0.0,0.0,0.0,0.0,0.0,0.0,0.0,0.0,0.0,-0.0267,0.0,-0.0385,0.0,0.0,0.0,0.0,0.0,0.0,0.0,0.0,0.0,0.0,0.0,0.0,0.0,0.0,0.0,0.0,0.0,0.0,0.0,0.0,0.0,0.0,0.0,0.0,0.0,0.0,0.0,0.0,0.0,0.0,0.0,0.0,0.0,0.0,0.0,0.0,0.0,0.0,0.0,0.0,0.0,0.0,0.0,0.0,0.0,0.0,0.0,0.0,0.0,0.0,0.0,0.0,0.0,0.0,0.0,0.0,0.0,0.0,0.0,0.0,0.0,0.0,0.0,0.0,0.0,0.0,0.0,0.0,0.0,0.0,0.0,0.0,0.0,0.0,0.0,0.0,0.0,0.0,0.0,0.0,0.0,0.0,0.0,0.0,0.0,0.0,0.0,0.0,0.0,0.0,0.0,0.0,0.0,0.0,0.0,0.0,0.0,0.0,0.0,0.0,0.0,0.0,0.0,0.0,0.0,0.0,0.0,0.0,0.0,0.0,-0.0077,-0.0,-0.0194,-0.0304,0.0,0.0,0.0,0.0,0.0,0.0,0.0,0.0,0.0,0.0,0.0,0.0,0.0,0.0,0.0,0.0,0.0,0.0,0.0,0.0,0.0,0.0,0.0,0.0,0.0,0.0,0.0,0.0,0.0,0.0,0.0,0.0,0.0,0.0,0.0,0.0,0.0,0.0,0.0,0.0,0.0,0.0,0.0,0.0,0.0,0.0,0.0,0.0,0.0,0.0,0.0,0.0,0.0,0.0,0.0,0.0,0.0,0.0,0.0,0.0,0.0,0.0,0.0,0.0,0.0,0.0,0.0,0.0,0.0,0.0,0.0,0.0,0.0,0.0,0.0,0.0,0.0,0.0,0.0,0.0,0.0,0.0,0.0,0.0,0.0,0.0,0.0,0.0,0.0,0.0,0.0,0.0,0.0,0.0,0.0,0.0,0.0,0.0,0.0,0.0,0.0,0.0,0.0,0.0,0.0,0.0,0.0,0.0,0.0,0.0,-0.0273,-0.0136,-0.0,-0.0143,-0.0247,-0.0392,0.0,0.0,0.0,0.0,0.0,0.0,0.0,0.0,0.0,0.0,0.0,0.0,0.0,0.0,0.0,0.0,0.0,0.0,0.0,0.0,0.0,0.0,0.0,0.0,0.0,0.0,0.0,0.0,0.0,0.0,0.0,0.0,0.0,0.0,0.0,0.0,0.0,0.0,0.0,0.0,0.0,0.0,0.0,0.0,0.0,0.0,0.0,0.0,0.0,0.0,0.0,0.0,0.0,0.0,0.0,0.0,0.0,0.0,0.0,0.0,0.0,0.0,0.0,0.0,0.0,0.0,0.0,0.0,0.0,0.0,0.0,0.0,0.0,0.0,0.0,0.0,0.0,0.0,0.0,0.0,0.0,0.0,0.0,0.0,0.0,0.0,0.0,0.0,0.0,0.0,0.0,0.0,0.0,0.0,0.0,0.0,0.0,0.0,0.0,0.0,0.0,0.0,0.0,0.0,0.0,0.0,0.0,0.0,0.0,-0.0287,-0.0119,-0.0,-0.012,-0.0253,0.0,0.0,0.0,0.0,0.0,0.0,0.0,0.0,0.0,0.0,0.0,0.0,0.0,0.0,0.0,0.0,0.0,0.0,0.0,0.0,0.0,0.0,0.0,0.0,0.0,0.0,0.0,0.0,0.0,0.0,0.0,0.0,0.0,0.0,0.0,0.0,0.0,0.0,0.0,0.0,0.0,0.0,0.0,0.0,0.0,0.0,0.0,0.0,0.0,0.0,0.0,0.0,0.0,0.0,0.0,0.0,0.0,0.0,0.0,0.0,0.0,0.0,0.0,0.0,0.0,0.0,0.0,0.0,0.0,0.0,0.0,0.0,0.0,0.0,0.0,0.0,0.0,0.0,0.0,0.0,0.0,0.0,0.0,0.0,0.0,0.0,0.0,0.0,0.0,0.0,0.0,0.0,0.0,0.0,0.0,0.0,0.0,0.0,0.0,0.0,0.0,0.0,0.0,0.0,0.0,0.0,0.0,0.0,0.0,-0.0407,-0.0183,-0.0058,0.0,-0.0058,-0.0165,0.0,0.0,0.0,0.0,0.0,0.0,0.0,0.0,0.0,0.0,0.0,0.0,0.0,0.0,0.0,0.0,0.0,0.0,0.0,0.0,0.0,0.0,0.0,0.0,0.0,0.0,0.0,0.0,0.0,0.0,0.0,0.0,0.0,0.0,0.0,0.0,0.0,0.0,0.0,0.0,0.0,0.0,0.0,0.0,0.0,0.0,0.0,0.0,0.0,0.0,0.0,0.0,0.0,0.0,0.0,0.0,0.0,0.0,0.0,0.0,0.0,0.0,0.0,0.0,0.0,0.0,0.0,0.0,0.0,0.0,0.0,0.0,0.0,0.0,0.0,0.0,0.0,0.0,0.0,0.0,0.0,0.0,0.0,0.0,0.0,0.0,0.0,0.0,0.0,0.0,0.0,0.0,0.0,0.0,0.0,0.0,0.0,0.0,0.0,0.0,0.0,0.0,0.0,0.0,0.0,0.0,0.0,0.0,0.0,-0.0227,0.0,0.015,0.0,0.0117,0.0,0.0,0.0,0.0,0.0,0.0,0.0,0.0,0.0,0.0,0.0,0.0,0.0,0.0,0.0,0.0,0.0,0.0,0.0,0.0,0.0,0.0,0.0,0.0,0.0,0.0,0.0,0.0,0.0,0.0,0.0,0.0,0.0,0.0,0.0,0.0,0.0,0.0,0.0,0.0,0.0,0.0,0.0,0.0,0.0,0.0,0.0,0.0,0.0,0.0,0.0,0.0,0.0,0.0,0.0,0.0,0.0,0.0,0.0,0.0,0.0,0.0,0.0,0.0,0.0,0.0,0.0,0.0,0.0,0.0,0.0,0.0,0.0,0.0,0.0,0.0,0.0,0.0,0.0,0.0,0.0,0.0,0.0,0.0,0.0,0.0,0.0,0.0,0.0,0.0,0.0,0.0,0.0,0.0,0.0,0.0,0.0,0.0,0.0,0.0,0.0,0.0,0.0,0.0,0.0,0.0,0.0,0.0,0.0,-0.0318,0.0215,0.0423,0.05,0.0335,0.0347,0.0306,0.0,0.0,0.0,0.0,0.0,0.0,0.0,0.0,0.0,0.0,0.0,0.0,0.0,0.0,0.0,0.0,0.0,0.0,0.0,0.0,0.0,0.0,0.0,0.0,0.0,0.0,0.0,0.0,0.0,0.0,0.0,0.0,0.0,0.0,0.0,0.0,0.0,0.0,0.0,0.0,0.0,0.0,0.0,0.0,0.0,0.0,0.0,0.0,0.0,0.0,0.0,0.0,0.0,0.0,0.0,0.0,0.0,0.0,0.0,0.0,0.0,0.0,0.0,0.0,0.0,0.0,0.0,0.0,0.0,0.0,0.0,0.0,0.0,0.0,0.0,0.0,0.0,0.0,0.0,0.0,0.0,0.0,0.0,0.0,0.0,0.0,0.0,0.0,0.0,0.0,0.0,0.0,0.0,0.0,0.0,0.0,0.0,0.0,0.0,0.0,0.0,0.0,0.0,0.0,0.0,0.0,0.0,0.0,0.0,0.1113,0.1329,0.1316,0.101,0.0655,0.0317,0.0,0.0,0.0,0.0,0.0,0.0,0.0,0.0,0.0,0.0,0.0,0.0,0.0,0.0,0.0,0.0,0.0,0.0,0.0,0.0,0.0,0.0,0.0,0.0,0.0,0.0,0.0,0.0,0.0,0.0,0.0,0.0,0.0,0.0,0.0,0.0,0.0,0.0,0.0,0.0,0.0,0.0,0.0,0.0,0.0,0.0,0.0,0.0,0.0,0.0,0.0,0.0,0.0,0.0,0.0,0.0,0.0,0.0,0.0,0.0,0.0,0.0,0.0,0.0,0.0,0.0,0.0,0.0,0.0,0.0,0.0,0.0,0.0,0.0,0.0,0.0,0.0,0.0,0.0,0.0,0.0,0.0,0.0,0.0,0.0,0.0,0.0,0.0,0.0,0.0,0.0,0.0,0.0,0.0,0.0,0.0,0.0,0.0,0.0,0.0,0.0,0.0,0.0,0.0,0.0,0.0,0.0,0.0,0.0,0.2188,0.219,0.1986,0.1639,0.11,0.059,0.0186,0.0,0.0,0.0,0.0,0.0,0.0,0.0,0.0,0.0,0.0,0.0,0.0,0.0,0.0,0.0,0.0,0.0,0.0,0.0,0.0,0.0,0.0,0.0,0.0,0.0,0.0,0.0,0.0,0.0,0.0,0.0,0.0,0.0,0.0,0.0,0.0,0.0,0.0,0.0,0.0,0.0,0.0,0.0,0.0,0.0,0.0,0.0,0.0,0.0,0.0,0.0,0.0,0.0,0.0,0.0,0.0,0.0,0.0,0.0,0.0,0.0,0.0,0.0,0.0,0.0,0.0,0.0,0.0,0.0,0.0,0.0,0.0,0.0,0.0,0.0,0.0,0.0,0.0,0.0,0.0,0.0,0.0,0.0,0.0,0.0,0.0,0.0,0.0,0.0,0.0,0.0,0.0,0.0,0.0,0.0,0.0,0.0,0.0,0.0,0.0,0.0,0.0,0.0,0.0,0.0,0.0,0.0,0.0,0.3435,0.3025,0.2664,0.2275,0.1689,0.1091,0.0,0.0,0.0,0.0,0.0,0.0,0.0,0.0,0.0,0.0,0.0,0.0,0.0,0.0,0.0,0.0,0.0,0.0,0.0,0.0,0.0,0.0,0.0,0.0,0.0,0.0,0.0,0.0,0.0,0.0,0.0,0.0,0.0,0.0,0.0,0.0,0.0,0.0,0.0,0.0,0.0,0.0,0.0,0.0,0.0,0.0,0.0,0.0,0.0,0.0,0.0,0.0,0.0,0.0,0.0,0.0,0.0,0.0,0.0,0.0,0.0,0.0,0.0,0.0,0.0,0.0,0.0,0.0,0.0,0.0,0.0,0.0,0.0,0.0,0.0,0.0,0.0,0.0,0.0,0.0,0.0,0.0,0.0,0.0,0.0,0.0,0.0,0.0,0.0,0.0,0.0,0.0,0.0,0.0,0.0,0.0,0.0,0.0,0.0,0.0,0.0,0.0,0.0,0.0,0.0,0.0,0.0,0.0,0.0,0.4652,0.5073,0.462,0.3187,0.2422,0.1776,0.0,0.0,0.0,0.0,0.0,0.0,0.0,0.0,0.0,0.0,0.0,0.0,0.0,0.0,0.0,0.0,0.0,0.0,0.0,0.0,0.0,0.0,0.0,0.0,0.0,0.0,0.0,0.0,0.0,0.0,0.0,0.0,0.0,0.0,0.0,0.0,0.0,0.0,0.0,0.0,0.0,0.0,0.0,0.0,0.0,0.0,0.0,0.0,0.0,0.0,0.0,0.0,0.0,0.0,0.0,0.0,0.0,0.0,0.0,0.0,0.0,0.0,0.0,0.0,0.0,0.0,0.0,0.0,0.0,0.0,0.0,0.0,0.0,0.0,0.0,0.0,0.0,0.0,0.0,0.0,0.0,0.0,0.0,0.0,0.0,0.0,0.0,0.0,0.0,0.0,0.0,0.0,0.0,0.0,0.0,0.0,0.0,0.0,0.0,0.0,0.0,0.0,0.0,0.0,0.0,0.0,0.0,0.0,0.4887,0.5497,0.673,0.6851,0.5723,0.4336,0.3303,0.0,0.0,0.0,0.0,0.0,0.0,0.0,0.0,0.0,0.0,0.0,0.0,0.0,0.0,0.0,0.0,0.0,0.0,0.0,0.0,0.0,0.0,0.0,0.0,0.0,0.0,0.0,0.0,0.0,0.0,0.0,0.0,0.0,0.0,0.0,0.0,0.0,0.0,0.0,0.0,0.0,0.0,0.0,0.0,0.0,0.0,0.0,0.0,0.0,0.0,0.0,0.0,0.0,0.0,0.0,0.0,0.0,0.0,0.0,0.0,0.0,0.0,0.0,0.0,0.0,0.0,0.0,0.0,0.0,0.0,0.0,0.0,0.0,0.0,0.0,0.0,0.0,0.0,0.0,0.0,0.0,0.0,0.0,0.0,0.0,0.0,0.0,0.0,0.0,0.0,0.0,0.0,0.0,0.0,0.0,0.0,0.0,0.0,0.0,0.0,0.0,0.0,0.0,0.0,0.0,0.0,0.0,0.0,0.5923,0.6391,0.8175,0.9196,0.9088,0.7008,0.5547,0.0,0.0,0.0,0.0,0.0,0.0,0.0,0.0,0.0,0.0,0.0,0.0,0.0,0.0,0.0,0.0,0.0,0.0,0.0,0.0,0.0,0.0,0.0,0.0,0.0,0.0,0.0,0.0,0.0,0.0,0.0,0.0,0.0,0.0,0.0,0.0,0.0,0.0,0.0,0.0,0.0,0.0,0.0,0.0,0.0,0.0,0.0,0.0,0.0,0.0,0.0,0.0,0.0,0.0,0.0,0.0,0.0,0.0,0.0,0.0,0.0,0.0,0.0,0.0,0.0,0.0,0.0,0.0,0.0,0.0,0.0,0.0,0.0,0.0,0.0,0.0,0.0,0.0,0.0,0.0,0.0,0.0,0.0,0.0,0.0,0.0,0.0,0.0,0.0,0.0,0.0,0.0,0.0,0.0,0.0,0.0,0.0,0.0,0.0,0.0,0.0,0.0,0.0,0.0,0.0,0.0,0.0,0.0,0.8111,0.8974,1.0724,1.176,1.2069,1.0097,0.8458,0.0,0.0,0.0,0.0,0.0,0.0,0.0,0.0,0.0,0.0,0.0,0.0,0.0,0.0,0.0,0.0,0.0,0.0,0.0,0.0,0.0,0.0,0.0,0.0,0.0,0.0,0.0,0.0,0.0,0.0,0.0,0.0,0.0,0.0,0.0,0.0,0.0,0.0,0.0,0.0,0.0,0.0,0.0,0.0,0.0,0.0,0.0,0.0,-0.8733,0.0,0.0,0.0,0.0,0.0,0.0,0.0,0.0,0.0,0.0,0.0,0.0,0.0,0.0,0.0,0.0,0.0,0.0,0.0,0.0,0.0,0.0,0.0,0.0,0.0,0.0,0.0,0.0,0.0,0.0,0.0,0.0,0.0,0.0,0.0,0.0,0.0,0.0,0.0,0.0,0.0,0.0,0.0,0.0,0.0,0.0,0.0,0.0,0.0,0.0,0.0,0.0,0.0,0.0,0.0,0.0,0.0,0.0,0.0,1.031,1.1209,1.3016,1.4192,1.4639,1.4205,1.2631,0.0,0.0,0.0,0.0,0.0,0.0,0.0,0.0,0.0,0.0,0.0,0.0,0.0,0.0,0.0,0.0,0.0,0.0,0.0,0.0,0.0,0.0,0.0,0.0,0.0,0.0,0.0,0.0,0.0,0.0,0.0,0.0,0.0,0.0,0.0,0.0,0.0,0.0,0.0,0.0,0.0,0.0,0.0,0.0,0.0,0.0,0.0,0.0,0.0,0.0,0.0,0.0,0.0,0.0,0.0,0.0,0.0,0.0,0.0,0.0,0.0,0.0,0.0,0.0,0.0,0.0,0.0,0.0,0.0,0.0,0.0,0.0,0.0,0.0,0.0,0.0,0.0,0.0,0.0,0.0,0.0,0.0,0.0,0.0,0.0,0.0,0.0,0.0,0.0,0.0,0.0,0.0,0.0,0.0,0.0,0.0,0.0,0.0,0.0,0.0,0.0,0.0,0.0,0.0,0.0,0.0,0.0,1.0871,1.2613,1.3493,1.542,1.6654,1.7262,1.8184,1.6718,1.2563,0.0,0.0,0.0,0.0,0.0,0.0,0.0,0.0,0.0,0.0,0.0,0.0,0.0,0.0,0.0,0.0,0.0,0.0,0.0,0.0,0.0,0.0,0.0,0.0,0.0,0.0,0.0,0.0,0.0,0.0,0.0,0.0,0.0,0.0,0.0,0.0,0.0,0.0,-0.9429,-1.124,0.0,0.0,0.0,0.0,0.0,0.0,0.0,0.0,-0.9845,0.0,0.0,0.0,0.0,0.0,0.0,0.0,0.0,0.0,0.0,0.0,0.0,0.0,0.0,0.0,0.0,0.0,0.0,0.0,0.0,0.0,0.0,0.0,0.0,0.0,0.0,0.0,0.0,0.0,0.0,0.0,0.0,0.0,0.0,0.0,0.0,0.0,0.0,0.0,0.0,0.0,0.0,0.0,0.0,0.0,0.0,0.0,0.0,0.0,0.0,0.0,0.0,0.0,0.0,0.0,0.0,1.0052,1.2859,1.5042,1.6604,1.8451,1.9641,2.0228,2.003,1.8662,1.6087,0.0,0.0,0.0,0.0,0.0,0.0,0.0,0.0,0.0,0.0,0.0,0.0,0.0,0.0,0.0,0.0,0.0,0.0,0.0,0.0,0.0,0.0,0.0,0.0,0.0,0.0,0.0,0.0,0.0,0.0,0.0,0.0,0.0,0.0,0.0,0.0,0.0,0.0,0.0,-1.4269,-1.5415,0.0,0.0,0.0,0.0,0.0,0.0,0.0,0.0,-1.2082,0.0,0.0,0.0,0.0,0.0,0.0,0.0,0.0,0.0,0.0,0.0,0.0,0.0,0.0,0.0,0.0,0.0,0.0,0.0,0.0,0.0,0.0,0.0,0.0,0.0,0.0,0.0,0.0,0.0,0.0,0.0,0.0,0.0,0.0,0.0,0.0,0.0,0.0,0.0,0.0,0.0,0.0,0.0,0.0,0.0,0.0,0.0,0.0,0.0,0.0,0.0,0.0,0.0,0.0,0.0,1.2109,1.5049,1.7405,1.9221,2.0816,2.16,2.1618,2.0933,1.9421,0.0,0.0,0.0,0.0,0.0,0.0,0.0,0.0,0.0,0.0,0.0,0.0,0.0,0.0,0.0,0.0,0.0,0.0,0.0,0.0,0.0,0.0,0.0,0.0,0.0,0.0,0.0,0.0,0.0,0.0,0.0,0.0,0.0,0.0,0.0,0.0,0.0,0.0,0.0,0.0,-1.6659,-1.7504,-1.6676,0.0,0.0,0.0,0.0,0.0,0.0,-1.3654,-1.3539,0.0,0.0,0.0,0.0,0.0,0.0,0.0,0.0,0.0,0.0,0.0,0.0,0.0,0.0,0.0,0.0,0.0,0.0,0.0,0.0,0.0,0.0,0.0,0.0,0.0,0.0,0.0,0.0,0.0,0.0,0.0,0.0,0.0,0.0,0.0,0.0,0.0,0.0,0.0,0.0,0.0,0.0,0.0,0.0,0.0,0.0,0.0,0.0,0.0,0.0,0.0,0.0,0.0,0.0,0.0,1.4093,1.7082,1.9634,2.168,2.3009,2.3381,2.275,2.1902,2.0053,0.0,0.0,0.0,0.0,0.0,0.0,0.0,0.0,0.0,0.0,0.0,0.0,0.0,0.0,0.0,0.0,0.0,0.0,0.0,0.0,0.0,0.0,0.0,0.0,0.0,0.0,0.0,0.0,0.0,0.0,0.0,0.0,0.0,0.0,0.0,0.0,0.0,0.0,0.0,0.0,0.0,-1.9345,-1.8564,-1.8081,0.0,0.0,0.0,0.0,-1.6203,-1.5814,0.0,0.0,0.0,0.0,0.0,0.0,0.0,0.0,0.0,0.0,0.0,0.0,0.0,0.0,0.0,0.0,0.0,0.0,0.0,0.0,0.0,0.0,0.0,0.0,0.0,0.0,0.0,0.0,0.0,0.0,0.0,0.0,0.0,0.0,0.0,0.0,0.0,0.0,0.0,0.0,0.0,0.0,0.0,0.0,0.0,0.0,0.0,0.0,0.0,0.0,0.0,0.0,0.0,0.0,0.0,0.0,1.5613,1.88,2.1668,2.427,2.5398,2.5522,2.4689,2.3661,2.1207,0.0,0.0,0.0,0.0,0.0,0.0,0.0,0.0,0.0,0.0,0.0,0.0,0.0,0.0,0.0,0.0,0.0,0.0,0.0,0.0,0.0,0.0,0.0,0.0,0.0,0.0,0.0,0.0,0.0,0.0,0.0,0.0,0.0,0.0,0.0,0.0,0.0,0.0,0.0,0.0,0.0,-2.1473,-2.0734,-2.1159,-2.1278,0.0,0.0,-1.9695,-1.9132,-1.8937,0.0,0.0,0.0,0.0,0.0,0.0,0.0,0.0,0.0,0.0,0.0,0.0,0.0,0.0,0.0,0.0,0.0,0.0,0.0,0.0,0.0,0.0,0.0,0.0,0.0,0.0,0.0,0.0,0.0,0.0,0.0,0.0,0.0,0.0,0.0,0.0,0.0,0.0,0.0,0.0,0.0,0.0,0.0,0.0,0.0,0.0,0.0,0.0,0.0,0.0,0.0,0.0,0.0,0.0,0.0,1.3324,1.6769,1.9997,2.2871,2.5363,2.693,2.7009,2.5482,2.4863,2.2566,0.0,0.0,0.0,0.0,0.0,0.0,0.0,0.0,0.0,0.0,0.0,0.0,0.0,0.0,0.0,0.0,0.0,0.0,0.0,0.0,0.0,0.0,0.0,0.0,0.0,0.0,0.0,0.0,0.0,0.0,0.0,0.0,0.0,0.0,0.0,0.0,0.0,0.0,0.0,0.0,0.0,0.0,-2.2039,-2.2742,0.0,0.0,0.0,-2.2316,-2.1502,0.0,0.0,0.0,0.0,0.0,0.0,0.0,0.0,0.0,0.0,0.0,0.0,0.0,0.0,0.0,0.0,0.0,0.0,0.0,0.0,0.0,0.0,0.0,0.0,0.0,0.0,0.0,0.0,0.0,0.0,0.0,0.0,0.0,0.0,0.0,0.0,0.0,0.0,0.0,0.0,0.0,0.0,0.0,0.0,0.0,0.0,0.0,0.0,0.0,0.0,0.0,0.0,0.0,0.0,0.0,0.0,0.0,1.7976,2.1151,2.4012,2.648,2.8121,2.8051,2.6257,2.5783,0.0,0.0,0.0,0.0,0.0,0.0,0.0,0.0,0.0,0.0,0.0,0.0,0.0,0.0,0.0,0.0,0.0,0.0,0.0,0.0,0.0,0.0,0.0,0.0,0.0,0.0,0.0,-0.4028,0.0,0.0,0.0,0.0,0.0,0.0,0.0,0.0,0.0,0.0,0.0,0.0,0.0,0.0,-2.301,-2.3434,-2.4422,-2.489,0.0,0.0,-2.4807,-2.3945,-2.4003,-2.3081,0.0,0.0,0.0,0.0,0.0,0.0,0.0,0.0,0.0,0.0,0.0,0.0,0.0,0.0,0.0,0.0,0.0,0.0,0.0,0.0,0.0,0.0,0.0,0.0,0.0,0.0,0.0,0.0,0.0,0.0,0.0,0.0,0.0,0.0,0.0,0.0,0.0,0.0,0.0,0.0,0.0,0.0,0.0,0.0,0.0,0.0,0.0,0.0,0.0,0.0,0.0,0.0,0.0,0.0,0.0,1.9337,2.26,2.5539,2.8122,2.8885,2.8605,2.7259,2.6406,2.3654,0.0,0.0,0.0,0.0,0.0,0.0,0.0,0.0,0.0,0.0,0.0,0.0,0.0,0.0,0.0,0.0,0.0,0.0,0.0,0.0,0.0,0.0,0.0,0.0,0.0,0.0,0.0,0.0,0.0,0.0,0.0,0.0,0.0,0.0,0.0,0.0,0.0,0.0,0.0,0.0,0.0,-2.4193,-2.5259,-2.6797,-2.7815,0.0,0.0,-2.7556,-2.6751,-2.5289,-2.3674,-2.177,0.0,0.0,0.0,0.0,0.0,0.0,0.0,0.0,0.0,0.0,0.0,0.0,0.0,0.0,0.0,0.0,0.0,0.0,0.0,0.0,0.0,0.0,0.0,0.0,0.0,0.0,0.0,0.0,0.0,0.0,0.0,0.0,0.0,0.0,0.0,0.0,0.0,0.0,0.0,0.0,0.0,0.0,0.0,0.0,0.0,0.0,0.0,0.0,0.0,0.0,0.0,0.0,0.0,1.6206,2.0217,2.3639,2.6479,2.8645,2.9879,2.9701,2.7994,2.7609,2.5133,0.0,0.0,0.0,0.0,0.0,0.0,0.0,0.0,0.0,0.0,0.0,0.0,0.0,0.0,0.0,0.0,0.0,0.0,0.0,0.0,0.0,0.0,0.0,0.0,0.0,0.0,0.0,0.0,-0.3824,-0.4733,-0.5579,0.0,0.0,0.0,0.0,0.0,0.0,0.0,0.0,0.0,0.0,-2.5203,-2.6259,-2.8299,0.0,0.0,-2.9425,-2.9082,-2.7115,-2.6196,-2.4929,-2.2627,-2.0185,0.0,0.0,0.0,0.0,0.0,0.0,0.0,0.0,0.0,0.0,0.0,0.0,0.0,0.0,0.0,0.0,0.0,0.0,0.0,0.0,0.0,0.0,0.0,0.0,0.0,0.0,0.0,0.0,0.0,0.0,0.0,0.0,0.0,0.0,0.0,0.0,0.0,0.0,0.0,0.0,0.0,0.0,0.0,0.0,0.0,0.0,0.0,0.0,0.0,0.0,0.0,0.0,1.7343,2.109,2.4813,2.7545,2.93,3.0549,3.0492,2.9093,2.8562,2.6279,0.0,0.0,0.0,0.0,0.0,0.0,0.0,0.0,0.0,0.0,0.0,0.0,0.0,0.0,0.0,0.0,0.0,0.0,0.0,0.0,0.0,0.0,0.0,0.0,0.0,0.0,0.0,0.0,-0.3012,-0.4247,-0.5576,0.0,0.0,0.0,0.0,0.0,0.0,0.0,0.0,0.0,0.0,-2.5897,-2.7124,-2.95,-3.0811,-3.0,-3.0642,-3.0267,-2.7602,-2.6624,-2.5466,-2.3339,0.0,0.0,0.0,0.0,0.0,0.0,0.0,0.0,0.0,0.0,0.0,0.0,0.0,0.0,0.0,0.0,0.0,0.0,0.0,0.0,0.0,0.0,0.0,0.0,0.0,0.0,0.0,0.0,0.0,0.0,0.7192,0.0,0.0,0.0,0.0,0.0,0.0,0.0,0.0,0.0,0.0,0.0,0.0,0.0,0.0,0.0,0.0,0.0,0.0,0.0,0.0,0.0,0.0,1.8959,2.2087,2.6157,2.8914,3.0336,3.0754,3.0772,3.0432,2.911,2.6888,2.3591,0.0,0.0,0.0,0.0,0.0,0.0,0.0,0.0,0.0,0.0,0.0,0.0,0.0,0.0,0.0,0.0,0.0,0.0,0.0,0.0,0.0,0.0,0.0,0.0,0.0,0.0,-0.0644,-0.2136,-0.3702,0.0,0.0,0.0,0.0,0.0,0.0,0.0,0.0,0.0,0.0,-2.3886,-2.623,-2.7941,-3.0409,-3.1792,-3.0929,-3.1523,-3.1146,-2.8489,-2.6502,-2.491,0.0,0.0,0.0,0.0,0.0,0.0,0.0,0.0,0.0,0.0,0.0,0.0,0.0,0.0,0.0,0.0,0.0,0.0,0.0,0.0,0.0,0.0,0.0,0.0,0.0,0.0,0.0,1.3058,1.2764,0.0,0.0,0.0,0.0,0.0,0.0,0.0,0.0,0.0,0.0,0.0,1.9908,2.0552,0.0,0.0,0.0,0.0,0.0,0.0,0.0,0.0,0.0,0.0,0.0,0.0,2.0051,2.3631,2.7454,3.0007,3.1082,3.1588,3.1531,3.0924,3.0014,2.7517,2.3257,0.0,0.0,0.0,0.0,0.0,0.0,0.0,0.0,0.0,0.0,0.0,0.0,0.0,0.0,0.0,0.0,0.0,0.0,0.0,0.0,0.0,0.0,0.0,0.0,0.0,0.091,0.0,0.0,0.0,0.0,0.0,0.0,0.0,0.0,0.0,0.0,0.0,-2.0823,-2.234,-2.4844,-2.7153,-2.8821,-3.1289,-3.2853,0.0,0.0,0.0,0.0,0.0,0.0,0.0,0.0,0.0,0.0,0.0,0.0,0.0,0.0,-2.3617,-2.2798,-2.1026,-1.9273,-1.8133,0.0,0.0,0.0,0.0,0.0,0.0,0.0,0.0,0.0,0.0,0.0,0.0,0.0,0.0,1.721,0.0,1.5481,0.0,0.0,0.0,0.0,0.0,0.0,0.0,0.0,2.3111,2.4388,2.4209,2.5213,2.59,0.0,2.6225,2.4408,0.0,0.0,0.0,0.0,0.0,0.0,0.0,0.0,2.1967,2.4843,2.8887,3.1196,3.1642,3.202,3.2004,3.1497,3.0562,2.818,2.4225,2.1809,1.9512,0.0,0.0,0.0,0.0,0.0,0.0,0.0,0.0,0.0,0.0,0.0,0.0,0.0,0.0,0.0,0.0,0.0,0.0,0.0,0.0,0.0,0.0,0.0,0.2453,0.0,0.0,0.0,0.0,0.0,0.0,0.0,0.0,0.0,-1.706,-2.039,-2.2846,-2.3807,-2.622,-2.8365,-2.9766,0.0,0.0,0.0,0.0,0.0,0.0,0.0,-2.7395,-2.7559,-2.7286,-2.7742,-2.9813,-3.0317,-3.0632,-3.1203,0.0,0.0,-2.7779,-2.5301,-2.3086,-2.1902,-2.0967,-2.0113,-1.9243,-1.9921,-2.0972,0.0,0.0,0.0,0.0,0.0,0.0,0.0,0.0,2.2591,2.1846,0.0,1.9418,0.0,0.0,0.0,0.0,0.0,0.0,0.0,0.0,2.6826,2.8503,2.8921,2.992,3.095,3.1839,3.1936,3.1381,2.9872,2.374,0.0,0.0,0.0,0.0,0.0,0.0,2.4605,2.5742,3.0309,3.249,3.1946,3.202,3.2144,3.2179,3.0865,2.9008,2.6615,2.427,2.1976,1.9708,1.7369,0.0,0.0,0.0,0.0,0.0,0.0,0.0,0.0,0.0,0.0,0.0,0.0,0.0,0.0,0.0,0.0,0.0,0.0,0.0,0.0,0.5762,0.0,0.0,0.0,0.0,0.0,0.0,0.0,0.0,0.0,0.0,-1.7767,-2.177,-2.4608,-2.5624,0.0,0.0,0.0,0.0,-3.5627,-3.4893,-3.6153,-3.6298,-3.3668,-3.1596,-3.0321,-3.0356,0.0,0.0,-3.2769,-3.3126,-3.3186,-3.3171,-3.3053,-3.286,-3.2235,-2.8997,-2.6281,-2.5507,-2.4526,-2.3364,-2.1863,-2.2812,-2.4332,3.1022,0.0,0.0,0.0,0.0,2.4895,2.5967,2.7127,2.7277,2.701,2.6328,2.483,0.0,0.0,0.0,0.0,0.0,0.0,2.4502,2.7007,2.9434,3.0709,3.1046,3.2056,3.2822,3.3286,3.3398,3.3273,3.287,3.0346,2.6645,2.1976,0.0,0.0,0.0,0.0,2.597,2.7914,3.0937,3.2405,3.2117,3.2034,3.2108,3.2387,3.2066,3.1087,2.9514,2.713,2.4736,2.2362,1.9507,0.0,0.0,0.0,0.0,0.0,0.0,0.0,0.0,0.0,0.0,0.0,0.0,0.0,0.0,0.0,0.0,0.0,0.0,0.0,0.9267,0.9356,0.8448,0.0,0.0,0.0,0.0,0.0,0.0,0.0,0.0,0.0,-1.4328,-2.0615,-2.5366,0.0,0.0,-2.9386,-3.1434,-3.4164,-3.6122,-3.6505,0.0,0.0,0.0,-3.3809,-3.3117,-3.3854,-3.5081,-3.6195,-3.6944,-3.6699,-3.6435,-3.6377,-3.4965,-3.3903,-3.4114,-3.1426,-2.8631,-2.7382,-2.6433,-2.5619,-2.4923,-2.5441,-2.6338,3.8126,3.3308,3.1272,2.9947,2.9242,2.9892,3.0864,3.1916,3.2032,3.1967,3.1683,2.9971,2.8029,2.5895,2.3948,0.0,0.0,0.0,2.7877,2.9832,3.1799,3.2815,3.3158,3.4098,3.4714,3.5011,3.4924,3.492,3.4988,3.4202,3.1876,2.7946,0.0,0.0,2.4155,2.6237,2.8099,2.9786,3.2368,3.3508,3.3104,3.2659,3.2494,3.2523,3.2355,3.1756,3.0707,2.8353,2.6075,2.3998,2.097,1.8216,0.0,0.0,0.0,0.0,0.0,0.0,0.0,0.0,0.0,0.0,0.0,1.0365,1.0633,0.0,0.0,0.0,1.1694,1.2352,1.2121,1.2895,0.0,0.0,0.0,0.0,0.0,0.0,0.0,0.4243,-0.004,-0.4478,-0.9148,-1.5374,-2.1169,-2.5914,-2.7344,-2.8634,-3.0496,0.0,-3.4748,-3.5475,-3.6498,-3.7039,-3.6574,-3.5717,-3.5211,-3.5488,-3.661,-3.7361,-3.7146,-3.7,-3.708,-3.715,-3.5752,-3.446,-3.4907,-3.2449,-3.0019,-2.8891,-2.8017,-2.7325,-2.6772,-2.719,-2.7921,4.4819,4.2795,3.7684,3.5181,3.4592,3.5111,3.5773,3.6533,3.6542,3.6517,3.6234,3.4678,3.2891,3.0931,2.8359,0.0,0.0,3.0382,3.1566,3.2437,3.4032,3.4865,3.513,3.5993,3.6561,3.6781,3.641,3.6328,3.647,3.6026,3.5417,3.4573,2.971,2.7219,2.7236,2.9364,3.08,3.1426,3.4145,3.5157,3.4315,3.3656,3.3073,3.2517,3.2005,3.1314,3.0521,2.8336,2.6383,2.4766,2.1898,1.9288,1.7052,0.0,0.0,0.0,0.0,0.0,0.0,0.0,0.0,0.0,0.0,0.0,0.0,0.0,0.0,0.0,1.5114,0.0,1.5592,1.6616,0.0,0.0,0.0,1.4093,1.4212,1.5099,1.4169,1.0215,0.0,0.0,-0.2468,0.0,-1.3036,-2.1103,-2.4545,-2.6619,-2.7556,-2.9357,-3.1208,-3.138,-3.2947,-3.4494,-3.5371,-3.5876,-3.5666,-3.4853,-3.5405,-3.5144,-3.4336,-3.4882,-3.5647,-3.6916,-3.569,-3.4545,-3.4467,-3.2552,-3.0765,-3.0031,-2.9278,-2.8489,-2.7766,-2.8198,-2.8857,4.6176,4.5077,4.3613,4.1223,3.8333,3.7707,3.7819,3.8356,3.8841,3.8684,3.8016,3.7997,3.6956,3.5105,3.374,3.3345,3.3772,3.4344,3.505,3.5824,3.6385,3.6705,3.6896,3.7265,3.7312,3.6995,3.6465,3.6667,3.7469,3.687,3.6501,3.6295,3.4519,3.2888,3.1637,3.257,3.3113,3.3085,3.4161,3.4347,3.3574,3.3493,3.2896,3.1817,3.1702,3.0856,2.9098,2.7893,2.6567,2.5041,2.2658,2.0857,1.9752,1.7139,0.0,0.0,0.0,0.0,0.0,0.0,0.0,0.0,0.0,1.4023,1.4866,0.0,1.6211,0.0,1.8545,2.0752,2.2526,2.2229,0.0,0.0,2.1688,1.9896,2.0312,2.0602,1.9778,1.7353,1.3766,1.0136,0.6758,0.1957,-0.2022,-0.4455,-1.1516,-1.7192,-1.8847,-2.0106,-2.1197,-2.2072,-2.3038,-2.4612,-2.803,-3.0966,-3.2323,-3.1007,-3.0879,-3.0622,-2.9788,-3.1446,-3.3732,-3.6457,-3.5539,-3.4296,-3.4032,-3.2337,-3.0703,-2.9973,-2.9231,-2.8619,-2.82,-2.8306,-2.8547,4.8217,4.805,4.7145,4.5649,4.3746,4.1176,4.0094,4.015,4.0436,4.0394,4.0112,4.0105,3.9281,3.795,3.7092,3.6752,3.6894,3.6921,3.725,3.7751,3.8257,3.8416,3.8192,3.837,3.8023,3.7132,3.6166,3.6113,3.6784,3.6522,3.657,3.7011,3.7268,3.6663,3.5274,3.4755,3.4622,3.4853,3.5416,3.5344,3.464,3.4376,3.3686,3.2595,3.1693,3.0689,2.9457,2.772,2.6435,2.561,2.3464,2.1766,2.0733,1.8776,1.6803,0.0,0.0,0.0,0.0,0.0,0.0,0.0,0.0,0.0,0.0,0.0,2.0594,2.1405,2.3151,2.5146,2.7306,2.7286,2.797,3.0107,2.7793,2.6164,2.6465,2.6808,2.6139,2.3912,2.109,1.8426,1.6078,1.2377,0.9799,0.9587,0.4875,-0.1457,-0.8856,-1.1504,-1.2947,-1.4487,-1.5797,-1.8426,-2.3294,-2.5951,-2.6889,-2.5404,-2.4866,-2.4412,-2.3676,-2.5669,-2.8598,-3.169,-3.1903,-3.1414,-3.1593,-3.0714,-2.9606,-2.9121,-2.8611,-2.8242,-2.8088,-2.804,-2.812,5.0078,5.0462,4.9001,4.8663,4.8798,4.4809,4.2763,4.2158,4.2041,4.2114,4.2233,4.1492,4.0784,4.0158,3.9399,3.9019,3.8933,3.8722,3.8687,3.8874,3.9763,3.9896,3.9415,3.9592,3.8911,3.7529,3.599,3.545,3.5762,3.5764,3.6222,3.716,3.8554,3.8811,3.7916,3.6343,3.583,3.6461,3.7071,3.7075,3.6399,3.5687,3.4869,3.389,3.1916,3.0695,3.0355,2.7633,2.611,2.6085,2.4069,2.2351,2.1093,2.0396,1.9141,0.0,1.7852,0.0,0.0,0.0,0.0,0.0,0.0,0.0,0.0,2.3736,2.5369,2.7061,2.8116,2.9407,3.1068,3.1924,3.3307,3.5359,3.3571,3.2087,3.1985,3.2416,3.1807,2.9454,2.7695,2.6033,2.4321,2.2294,2.0789,2.0329,1.9777,1.4683,0.3225,-0.1758,-0.4336,-0.7057,-0.9648,-1.3001,-1.8213,-2.0045,-1.9707,-1.8223,-1.7478,-1.707,-1.6063,-1.8423,-2.1475,-2.4529,-2.6035,-2.7015,-2.7878,-2.8088,-2.8057,-2.7753,-2.7385,-2.7205,-2.7495,-2.7879,-2.8029,4.9472,4.8991,4.9303,4.9042,4.8394,4.7372,4.647,4.5623,4.5387,4.4736,4.3853,4.3111,4.2745,4.2569,4.1903,4.1308,4.07,4.003,3.9859,4.0027,4.0876,4.1376,4.1425,4.1641,4.0962,3.9376,3.722,3.6559,3.7273,3.6101,3.6309,3.7783,3.8212,3.8285,3.7984,0.0,0.0,0.0,3.7614,3.7468,3.6883,3.6568,3.5627,3.4013,3.2371,0.0,2.9472,2.7243,2.5822,2.5394,2.3858,0.0,0.0,0.0,0.0,0.0,0.0,0.0,0.0,0.0,0.0,0.0,2.872,2.8394,2.6718,2.7605,2.873,2.9794,3.1825,3.377,3.5406,3.6262,3.691,3.7283,3.6255,3.5164,3.4372,3.3807,3.2953,3.193,3.0356,2.9042,2.818,2.7184,2.6428,2.6213,2.6332,2.4205,1.877,1.2012,0.781,0.5656,-0.0234,-0.5178,-0.8539,-1.009,-1.031,-0.8537,-0.8491,-0.8448,-0.8094,-1.0265,-1.3691,-1.7246,-1.9475,-2.1574,-2.3807,-2.5348,-2.605,-2.6257,-2.5455,-2.5179,-2.6472,-2.7992,-2.9317,4.9289,0.0,5.0044,5.0319,0.0,5.0505,5.013,4.9198,4.7257,4.56,4.4267,4.3095,4.2469,4.2198,4.1157,4.0368,3.9678,3.8866,3.8811,3.9434,4.1124,4.2044,4.2346,4.3382,4.2972,4.1276,3.8722,3.7523,3.7542,3.6434,3.6393,3.7374,3.7907,3.8174,3.8088,3.7969,3.7775,3.7541,3.8097,3.8276,3.8056,3.7881,3.7148,3.5792,0.0,0.0,0.0,0.0,0.0,0.0,0.0,0.0,0.0,0.0,0.0,2.4467,2.5268,2.599,2.6525,2.8104,2.9778,3.1465,3.3966,3.4352,3.1792,3.1768,3.2569,3.4265,3.5905,3.7662,3.9711,4.0219,4.0526,4.086,4.0005,3.8819,3.7465,3.6392,3.5281,3.3862,3.2506,3.1462,3.0993,3.0602,3.0251,3.0034,2.9955,2.8887,2.5923,1.9794,1.4155,1.0461,0.6054,0.174,-0.0905,-0.2045,-0.2798,-0.2434,-0.2394,-0.2403,-0.2383,-0.4405,-0.708,-1.0234,-1.2863,-1.5505,-1.8324,-2.0375,-2.2046,-2.3058,-2.2831,-2.275,-2.4081,-2.6214,-2.8343,4.9194,4.9861,5.073,5.1486,5.2151,5.2909,5.2813,5.1939,0.0,0.0,0.0,4.3268,4.2258,4.1493,4.0045,3.9024,3.839,3.7361,3.7457,3.861,4.0958,4.223,4.2742,4.4403,4.4385,4.276,4.0224,3.8696,3.8053,3.7325,3.7059,3.7395,3.8197,3.8536,3.8409,3.8093,3.7828,3.7649,3.8293,3.8778,3.8995,3.8958,3.8544,3.7809,3.5525,3.3598,3.2085,2.9679,2.79,2.6897,2.6753,2.6209,2.5186,2.6767,2.7631,2.7312,2.8396,2.9502,3.043,3.1959,3.3583,3.5264,3.8009,3.8659,3.6269,3.564,3.627,3.8363,3.9468,4.1009,4.3211,4.3701,4.4,4.4479,4.3526,4.2086,4.0321,3.9,3.7399,3.5504,3.4045,3.314,3.2634,3.2446,3.2396,3.213,3.1724,3.1001,2.8268,2.2844,1.7164,1.2757,1.001,0.7851,0.5415,0.4146,0.3503,0.1998,0.2287,0.237,0.1533,0.042,-0.1149,-0.2957,-0.5989,-0.8938,-1.1895,-1.4382,-1.6799,-1.9171,-1.9613,-1.9921,-2.113,-2.3657,-2.6476,4.8913,4.9102,5.0546,5.123,5.1376,5.2733,5.2857,5.2047,4.9888,4.8361,4.7313,4.5649,4.43,4.3088,4.1147,3.9958,3.931,3.7955,3.7875,0.0,4.0641,4.1905,4.282,4.3707,4.3895,4.3327,4.1451,4.0458,4.0362,3.9711,3.9491,3.9697,4.0023,3.984,3.9206,3.8364,3.7793,3.7577,3.772,3.8095,3.8738,3.8792,3.8738,3.8488,3.6345,3.4686,3.3639,3.0306,2.8422,2.8413,2.7343,2.6711,2.6803,2.8572,2.9962,3.0805,3.305,3.4808,3.5728,3.6784,3.8132,3.9762,4.0431,3.9888,3.8141,3.852,3.9034,3.95,4.1424,4.3163,4.4283,4.6065,4.6858,4.6216,4.5213,4.3799,4.1889,4.0124,3.8256,3.619,3.4739,3.3552,3.2745,3.2385,3.2127,3.1826,3.1554,3.0533,2.7788,2.3754,1.9868,1.6652,1.4886,1.3376,1.1508,1.0001,0.841,0.6474,0.6216,0.6177,0.5769,0.5331,0.4634,0.4428,0.0929,-0.2066,-0.4858,-0.7887,-1.1307,-1.4098,-1.5706,-1.6959,-1.8108,-2.1163,-2.493,4.8962,4.9043,5.062,5.1287,5.138,5.2718,5.3005,5.2417,5.1176,4.9943,4.8589,4.6375,4.4906,4.3927,4.1898,4.075,4.0223,3.8727,3.8631,3.9787,4.1015,4.2047,4.2951,4.4349,4.4959,4.4703,4.3634,4.2962,4.2658,4.1688,4.1067,4.0811,4.0221,3.9514,3.8753,3.8202,3.7775,3.7559,3.8005,3.8611,3.9399,3.9807,3.9843,3.9435,3.7952,3.6167,3.4049,3.1613,2.9837,2.8833,2.8305,2.8143,2.8496,3.0707,3.2678,3.4182,3.5893,3.7276,3.8188,3.8753,3.9593,4.0855,4.1816,4.1788,4.0576,4.0837,4.1421,4.2296,4.3455,4.497,4.6997,4.8105,4.8426,4.7872,4.7169,4.5851,4.3595,4.1586,3.9589,3.7411,3.5217,3.3612,3.2861,3.2211,3.166,3.1278,3.1056,3.038,2.9276,2.8076,2.5735,2.2059,2.0508,1.9044,1.7004,1.53,1.338,1.1134,1.0287,0.9614,0.9034,0.8417,0.7631,0.6616,0.4166,0.1332,-0.1711,-0.4915,-0.8168,-1.1646,-1.3754,-1.53,-1.7082,-2.0634,-2.4907,4.903,4.9057,5.0692,5.1602,5.2011,5.2945,5.3235,5.2893,5.2214,5.1294,4.9889,4.7474,4.5979,4.512,4.3214,4.2027,4.1316,4.0089,3.9926,4.0708,4.1669,4.2395,4.3027,4.4705,4.5592,4.5775,4.534,4.4929,4.4565,4.3607,4.2723,4.1895,4.0438,3.9298,3.8648,3.8131,3.7739,3.7559,3.8183,3.8986,3.9953,4.0521,4.0628,4.0221,3.9272,3.7433,3.4654,3.3011,3.1307,2.9507,2.9559,2.9741,3.0,3.2466,3.4751,3.646,3.7832,3.9012,3.9893,4.001,4.0551,4.1797,4.2887,4.351,4.3483,4.3288,4.3575,4.4589,4.5204,4.6661,4.8636,4.9202,4.9209,4.9143,4.8541,4.7231,4.52,4.3135,4.0989,3.8688,3.6062,3.418,3.3474,3.2515,3.1764,3.1261,3.1106,3.123,3.1439,3.2137,3.0925,2.8464,2.6322,2.4414,2.1894,1.9972,1.7914,1.5388,1.3947,1.2706,1.1583,1.0264,0.877,0.72,0.5271,0.277,-0.0239,-0.3084,-0.6315,-1.0115,-1.241,-1.4467,-1.7126,-2.0735,-2.4754,4.9127,4.915,5.0711,5.2252,5.3477,5.3602,5.3558,5.3359,5.2714,5.2335,5.1838,5.013,4.8572,4.7231,4.5829,4.4423,4.3226,4.2544,4.2019,4.1719,4.2522,4.2958,4.3045,4.366,4.4671,4.5886,4.5605,4.5622,4.5845,4.5706,4.5047,4.3731,4.1505,4.0221,3.9895,3.8492,3.7667,3.7577,3.7666,3.8397,3.9828,3.9985,4.0307,4.0895,3.9447,3.7897,3.6007,3.4103,3.2354,3.1144,3.1195,3.1195,3.1129,3.3336,3.5341,3.6613,3.8946,4.0751,4.1772,4.1331,4.205,4.4169,4.3968,4.4624,4.6539,4.6247,4.5504,4.5463,4.6907,4.8134,4.8493,4.8932,4.9362,4.962,4.8498,4.7192,4.6468,4.4439,4.205,3.9989,3.778,3.5966,3.5013,3.379,3.2766,3.2181,3.2646,3.2983,3.3069,3.3841,3.448,3.3839,3.2198,2.9051,2.6263,2.4211,2.1944,1.8848,1.7182,1.5772,1.3964,1.1903,0.9993,0.7624,0.5709,0.3645,0.1385,-0.1233,-0.4709,-0.8627,-1.1329,-1.3556,-1.7621,-2.0713,-2.3402,4.9551,4.9899,5.0985,5.2364,5.372,5.3793,5.3716,5.3558,5.3157,5.29,5.2662,5.1813,5.061,4.9177,4.7761,4.6766,4.6239,4.5004,4.4432,4.4371,4.4364,4.4334,4.4403,4.4913,4.557,4.62,4.6372,4.6667,4.6909,4.6657,4.5649,4.4114,4.2459,4.1171,4.0032,3.8473,3.7381,3.6845,3.6934,3.7542,3.8507,3.891,3.9203,3.9416,3.8827,3.7532,3.5687,3.4411,3.322,3.2047,3.2201,3.2594,3.3087,3.5172,3.7547,4.0116,4.2835,4.4332,4.4393,4.4132,4.444,4.5557,4.5768,4.636,4.7342,4.8039,4.8257,4.7991,4.8289,4.8684,4.9049,4.9181,4.9116,4.8804,4.8359,4.7734,4.6542,4.5499,4.399,4.1906,3.9866,3.8172,3.6892,3.5172,3.405,3.3823,3.4181,3.4283,3.4378,3.5394,3.6255,3.6423,3.5553,3.3509,3.0065,2.8027,2.6128,2.4002,2.1755,1.9544,1.6822,1.4179,1.164,0.8442,0.6411,0.4453,0.2516,-0.069,-0.402,-0.7845,-1.161,-1.4549,-1.7842,-2.0065,-2.236,5.0365,5.059,5.1428,5.2549,5.3775,5.3813,5.3774,5.3716,5.3499,5.3318,5.3175,5.29,5.22,5.1092,4.9647,4.89,4.8541,4.7456,4.6855,4.6916,4.6463,4.6291,4.64,4.6752,4.7024,4.7132,4.7475,4.7608,4.7397,4.6658,4.553,4.4072,4.2829,4.1429,3.9857,3.8503,3.7344,3.6417,3.6434,3.6738,3.7274,3.7585,3.8033,3.8518,3.8395,3.7306,3.5368,3.5057,3.4285,3.2858,3.3486,3.4218,3.4924,3.6929,3.9735,4.3216,4.5432,4.6468,4.6124,4.6022,4.6154,4.6655,4.7144,4.767,4.8437,4.9387,5.004,5.0169,4.9831,4.9808,4.9834,4.949,4.8826,4.8071,4.8409,4.814,4.7276,4.6588,4.5339,4.3714,4.1588,3.9753,3.8231,3.6666,3.5622,3.5105,3.502,3.5066,3.514,3.5959,3.6805,3.7278,3.7384,3.5917,3.2954,3.173,3.0405,2.8518,2.6054,2.3241,2.0012,1.6735,1.2868,0.928,0.7246,0.4953,0.2849,-0.0266,-0.4148,-0.8088,-1.1857,-1.5139,-1.7509,-1.9604,-2.1401,5.1765,5.0871,5.2007,5.3032,5.3813,5.3813,5.3813,5.3774,5.3695,5.3658,5.3623,5.3363,5.324,5.2968,5.1635,5.0633,4.992,4.9604,4.9135,4.862,4.8665,4.8823,4.8938,4.892,4.8925,4.8935,4.875,4.8091,4.6848,4.5896,4.4867,4.3796,4.2332,4.0864,3.9789,3.8919,3.7785,3.647,3.6149,3.6113,3.6185,3.6015,3.6873,3.8377,3.8345,3.7294,3.6054,3.6291,3.5666,3.3707,3.5393,3.6261,3.6085,3.8404,4.1563,4.4747,4.5515,4.6028,4.6639,4.6352,4.6578,4.7791,4.7707,4.828,5.0247,5.0285,5.0402,5.1053,5.1502,5.1528,5.0931,5.0045,4.9098,4.8485,4.8537,4.8881,4.9257,4.7287,4.5961,4.4939,4.2798,4.051,3.8276,3.818,3.7062,3.5832,3.5307,3.5335,3.521,3.5377,3.6158,3.6971,3.6873,3.5821,3.4666,3.3977,3.3472,3.1874,2.9268,2.688,2.2603,1.8371,1.4196,1.0226,0.7878,0.5539,0.3087,-0.0357,-0.4633,-0.8531,-1.2015,-1.4981,-1.7174,-1.9157,-2.1058,5.2485,5.2273,5.3032,5.3553,5.3794,5.3813,5.3813,5.3813,5.3774,5.3756,5.3662,5.3502,5.3381,5.3258,5.2749,5.201,5.1121,5.0359,4.9872,4.9699,4.9669,4.9774,4.9937,5.0081,5.0163,5.0149,4.961,4.8433,4.6892,4.6299,4.5472,4.4313,4.3066,4.1955,4.0837,3.9261,3.7709,3.6272,3.5651,3.5084,3.4568,3.4811,3.5492,3.6134,3.6513,3.6317,3.5545,3.587,3.5561,3.4503,3.6833,3.8193,3.8498,4.1475,4.3899,4.5341,4.6934,4.803,4.8356,4.8681,4.8846,4.8987,4.8914,4.9142,5.0114,5.0588,5.1083,5.1748,5.2411,5.2665,5.2461,5.1381,5.0264,4.9644,4.9797,4.9711,4.8928,4.8023,4.7052,4.5541,4.3341,4.1186,3.9842,3.8915,3.7866,3.6411,3.6085,3.5799,3.5426,3.5716,3.6332,3.68,3.6984,3.6639,3.5652,3.5226,3.4695,3.3716,3.1838,2.893,2.5188,2.1438,1.7387,1.2845,0.9768,0.6578,0.4158,-0.1128,-0.5312,-0.8575,-1.2042,-1.4592,-1.6713,-1.8864,-2.082,5.3215,5.3574,5.3739,5.3813,5.3813,5.3813,5.3813,5.3813,5.3813,5.3775,5.3719,5.3561,5.3459,5.3359,5.3248,5.2871,5.22,5.1315,5.0973,5.1071,5.0973,5.0998,5.1268,5.1472,5.1444,5.1096,5.0321,4.9065,4.7587,4.6821,4.5804,4.4589,4.3462,4.2417,4.1357,4.002,3.8442,3.6806,3.5988,3.5204,3.4257,3.4684,3.5199,3.55,3.6162,3.6043,3.5137,3.5774,3.5903,3.5805,3.8007,3.9933,4.1028,4.3675,4.5432,4.5913,4.762,4.8926,4.9273,5.0024,5.0393,5.0259,5.0101,5.0143,5.0552,5.095,5.136,5.1803,5.2334,5.2815,5.2743,5.2171,5.1547,5.1044,5.1196,5.087,4.9679,4.9125,4.7897,4.6115,4.4192,4.2521,4.1158,3.9753,3.8395,3.7067,3.6618,3.5974,3.5382,3.554,3.6004,3.5978,3.6307,3.6287,3.5867,3.5639,3.5353,3.4525,3.3527,3.0758,2.7767,2.4233,2.0225,1.5718,1.1713,0.8365,0.3997,-0.1486,-0.5395,-0.8542,-1.1368,-1.3871,-1.6205,-1.8613,-2.0506,5.394,5.4452,5.4017,5.3832,5.3851,5.3925,5.385,5.3905,5.3961,5.4091,5.4108,5.3727,5.3758,5.3607,5.3474,5.3243,5.3127,5.2729,5.2568,5.2587,5.2623,5.2649,5.2779,5.2889,5.2527,5.1867,5.1009,4.9984,4.8714,4.7313,4.5929,4.4492,4.3346,4.2287,4.1024,4.0992,3.9902,3.7893,3.7157,3.6464,3.5662,3.5574,3.6063,3.6907,3.7524,3.6978,3.4943,3.6399,3.7113,3.6909,3.909,4.1453,4.3445,4.4922,4.5736,4.6538,4.7417,4.8258,4.9083,4.9947,5.0875,5.116,5.1063,5.1033,5.1528,5.136,5.114,5.1273,5.1626,5.188,5.1888,5.2132,5.2437,5.2745,5.227,5.1857,5.15,5.0515,4.8856,4.6759,4.5197,4.3961,4.2541,4.074,3.9036,3.7594,3.6542,3.5712,3.5033,3.4996,3.4752,3.4685,3.5077,3.5338,3.5657,3.5946,3.5643,3.5276,3.425,3.2388,2.9525,2.6117,2.2024,1.7474,1.1471,0.7888,0.2823,-0.2249,-0.509,-0.8167,-1.0802,-1.3183,-1.5492,-1.7774,-2.0269,5.4705,5.4833,5.4405,5.4163,5.4166,5.4596,5.4801,5.4818,5.53,5.5522,5.5482,5.5262,5.5161,5.4972,5.4375,5.4014,5.3977,5.3378,5.306,5.306,5.306,5.306,5.3103,5.3164,5.2784,5.2068,5.1614,5.0484,4.8942,4.8135,4.6659,4.4592,4.4074,4.3304,4.2246,4.1677,4.0432,3.856,3.7623,3.6415,3.4809,3.5395,3.6123,3.672,3.8078,3.8585,3.8264,3.8716,3.9182,3.9551,4.1699,4.3924,4.5849,4.6729,4.715,4.7436,4.82,4.8758,4.9223,5.0409,5.1149,5.1106,5.0938,5.1048,5.1383,5.1263,5.1294,5.165,5.2222,5.2545,5.2392,5.241,5.2437,5.2473,5.227,5.2133,5.1977,5.1055,4.9196,4.6991,4.6231,4.5012,4.2813,4.1026,3.9483,3.7785,3.6671,3.583,3.5328,3.4824,3.4106,3.3752,3.4051,3.4454,3.4796,3.5337,3.5604,3.5235,3.4471,3.3123,3.0454,2.743,2.3362,1.7965,1.2071,0.6382,0.125,-0.2613,-0.5728,-0.7642,-1.0066,-1.2287,-1.4509,-1.6812,-1.912,5.5126,5.5028,5.4711,5.4468,5.4461,5.5111,5.5343,5.5375,5.6004,5.6302,5.6221,5.6002,5.5918,5.571,5.4834,5.4436,5.4308,5.3573,5.3206,5.3206,5.3206,5.3206,5.3164,5.3164,5.2883,5.2401,5.2101,5.1203,4.9847,4.9044,4.7811,4.6234,4.5499,4.4863,4.4032,4.2925,4.1513,3.9738,3.8578,3.7001,3.563,3.6055,3.6867,3.747,3.9157,4.0484,4.1189,4.1739,4.1904,4.2073,4.3769,4.58,4.7276,4.7605,4.7665,4.7551,4.8105,4.872,4.9245,5.0768,5.1794,5.1644,5.154,5.1488,5.1496,5.1367,5.1314,5.1631,5.1857,5.2031,5.1806,5.1694,5.1554,5.1433,5.1895,5.2167,5.2107,5.1563,5.0426,4.867,4.7628,4.5983,4.3971,4.1656,4.0149,3.8412,3.7274,3.6401,3.5907,3.5301,3.4393,3.3855,3.4099,3.4226,3.407,3.4624,3.5325,3.5005,3.4471,3.2901,3.0788,2.768,2.3917,1.6682,1.0463,0.3606,-0.1616,-0.4491,-0.7349,-0.8626,-0.9638,-1.1395,-1.3495,-1.5428,-1.7692,5.544,5.5326,5.5114,5.5072,5.5094,5.5612,5.5882,5.5782,5.632,5.6617,5.654,5.6432,5.6214,5.5913,5.5282,5.4803,5.4436,5.3904,5.3592,5.3518,5.3427,5.3353,5.3225,5.3103,5.2944,5.2758,5.2363,5.1916,5.1218,5.0169,4.9305,4.8585,4.7232,4.6422,4.6006,4.4764,4.2992,4.1144,3.9917,3.829,3.6523,3.7463,3.8316,3.8774,4.0689,4.2341,4.3518,4.4966,4.4966,4.3523,4.5904,4.7579,4.7813,4.7929,4.7933,4.757,4.7761,4.8742,4.9652,5.1333,5.2454,5.2971,5.2661,5.2394,5.2175,5.1535,5.1069,5.1006,5.0912,5.0657,5.0516,5.0367,5.024,5.0191,5.1282,5.2,5.2084,5.182,5.1192,5.0526,4.9114,4.709,4.5143,4.2693,4.0747,3.9247,3.8133,3.7253,3.6434,3.566,3.4956,3.4581,3.4193,3.441,3.4289,3.409,3.4552,3.3282,3.25,3.0684,2.9063,2.5981,2.2292,1.5314,0.8564,0.1742,-0.3516,-0.6317,-0.8065,-0.8884,-0.9947,-1.0835,-1.2284,-1.4292,-1.6337,5.747,5.7401,5.7257,5.7103,5.7082,5.7597,5.7718,5.7603,5.803,5.8138,5.8151,5.7923,5.7703,5.7636,5.6712,5.6268,5.5886,5.5262,5.4968,5.4858,5.4326,5.3739,5.3274,5.306,5.285,5.2545,5.2155,5.1701,5.114,5.0903,5.0258,4.9185,4.8972,4.8225,4.7235,4.6092,4.44,4.2353,4.0744,3.912,3.7681,3.8342,3.9164,3.9774,4.2042,4.3942,4.5352,4.7443,4.8569,4.8266,4.9566,5.0696,5.0799,5.0615,5.0455,5.0684,5.0588,5.096,5.1938,5.3028,5.3667,5.3459,5.3346,5.311,5.2469,5.1637,5.1081,5.0855,5.0644,5.0517,5.0317,5.0222,5.0081,5.0039,5.1178,5.15,5.0989,5.1299,5.1484,5.0358,4.8836,4.697,4.4769,4.2719,4.0578,3.9041,3.8278,3.7597,3.6954,3.6462,3.5959,3.4493,3.401,3.4455,3.4538,3.4215,3.3354,3.1568,2.9664,2.7151,2.4977,2.2281,1.814,1.2755,0.6964,0.0333,-0.4424,-0.8141,-0.8873,-0.9467,-0.9832,-1.0645,-1.1562,-1.3204,-1.5063,5.8373,5.8331,5.8207,5.8097,5.8092,5.8642,5.8741,5.865,5.8896,5.9025,5.8926,5.8619,5.8486,5.8326,5.7438,5.6956,5.6757,5.6004,5.5592,5.5427,5.4686,5.3897,5.325,5.2831,5.2518,5.2191,5.1768,5.1262,5.091,5.1158,5.0886,5.0405,5.0246,4.9794,4.9017,4.7142,4.5347,4.3248,4.1495,3.9695,3.7914,3.9175,3.9838,4.0569,4.2734,4.5055,4.7296,4.9481,5.0614,5.0748,5.1338,5.2015,5.2295,5.1891,5.1849,5.227,5.183,5.1973,5.2976,5.3956,5.4181,5.3693,5.3662,5.3097,5.225,5.163,5.1474,5.1344,5.1394,5.1411,5.1337,5.1406,5.1697,5.2134,5.2456,5.2096,5.0675,5.0972,5.1054,5.0322,4.9148,4.7349,4.4971,4.3331,4.166,4.0199,3.9968,3.9009,3.8069,3.7572,3.695,3.5744,3.4712,3.5046,3.4076,3.3306,3.0664,2.8875,2.5354,2.2945,2.1188,1.8701,1.595,1.1445,0.5337,-0.0673,-0.581,-0.9556,-0.9793,-1.0253,-1.0141,-1.0457,-1.1396,-1.2512,-1.4272,5.878,5.878,5.8703,5.8643,5.869,5.9032,5.9234,5.906,5.9147,5.9159,5.8986,5.8721,5.8511,5.8474,5.7666,5.7184,5.7129,5.6444,5.5959,5.564,5.4983,5.4224,5.3449,5.259,5.2096,5.1772,5.121,5.0857,5.0675,5.0873,5.1263,5.1248,5.1095,5.1023,5.034,4.8436,4.6171,4.4235,4.2457,4.054,3.8928,3.9682,4.0285,4.0688,4.3158,4.6079,4.8763,5.0787,5.1609,5.1435,5.175,5.2278,5.2523,5.2196,5.2054,5.2212,5.2351,5.2494,5.3289,5.4381,5.4397,5.379,5.3768,5.3184,5.2018,5.1882,5.208,5.2157,5.2624,5.2518,5.2412,5.3062,5.3698,5.4097,5.456,5.3537,5.1888,5.1066,5.1129,5.1323,5.0233,4.8182,4.647,4.5058,4.3846,4.1214,4.1035,4.0509,3.9726,3.9363,3.8658,3.7594,3.663,3.5759,3.4157,3.2345,2.8729,2.5478,2.0924,1.813,1.7271,1.5317,1.4049,1.0331,0.399,-0.2736,-0.924,-1.1151,-1.1,-1.1059,-1.125,-1.1033,-1.1128,-1.2349,-1.3981,6.0538,6.0538,6.0461,6.0399,6.033,6.0315,6.0045,5.9741,5.9446,5.9197,5.9024,5.8762,5.8614,5.8492,5.8178,5.8047,5.7884,5.7481,5.7189,5.6483,5.6173,5.5385,5.4298,5.2972,5.179,5.1246,5.0892,5.0509,5.0376,5.0729,5.1123,5.1565,5.1723,5.17,5.1231,4.9969,4.8254,4.6048,4.4034,4.2009,4.0192,4.0099,4.0533,4.0981,4.3889,4.68,4.9114,5.0527,5.1424,5.2141,5.2591,5.3069,5.3583,5.3091,5.3091,5.3853,5.3838,5.4047,5.4975,5.5304,5.5083,5.3955,5.3857,5.3437,5.2436,5.229,5.2584,5.2835,5.2969,5.2992,5.2764,5.3252,5.4268,5.4922,5.4571,5.3499,5.1982,5.2536,5.3184,5.3088,5.1492,4.944,4.7787,4.6112,4.4568,4.2624,4.2073,4.1884,4.1564,4.1178,4.0369,3.9489,3.7498,3.6089,3.3054,3.0139,2.5284,2.2293,1.8156,1.4585,1.3625,1.2064,1.0802,0.7315,0.2559,-0.4168,-1.0729,-1.1975,-1.1581,-1.1945,-1.2383,-1.2598,-1.2993,-1.3367,-1.44,6.106,6.1041,6.0942,6.0836,6.0738,6.0456,6.0208,5.9906,5.9486,5.9197,5.9005,5.8803,5.8656,5.8572,5.8462,5.8331,5.8242,5.807,5.7336,5.6502,5.6273,5.5877,5.4919,5.3711,5.2567,5.1593,5.1269,5.0854,5.0502,5.0712,5.1262,5.175,5.2084,5.2012,5.1661,5.082,4.9339,4.7647,4.5845,4.3909,4.2094,4.177,4.224,4.3196,4.5627,4.8087,5.0073,5.1514,5.241,5.3051,5.3203,5.3264,5.3707,5.3568,5.3976,5.4527,5.5006,5.5061,5.5673,5.591,5.5578,5.442,5.4422,5.3945,5.3506,5.3281,5.3567,5.3988,5.4436,5.4748,5.492,5.5133,5.5883,5.6072,5.5462,5.4465,5.3686,5.3164,5.2671,5.2437,5.0949,4.9437,4.7973,4.7194,4.6222,4.4687,4.513,4.4895,4.3536,4.3106,4.2344,4.0998,3.8521,3.5893,3.232,2.7789,2.1654,1.8856,1.6384,1.3386,1.1513,0.9545,0.7416,0.3776,0.0117,-0.4749,-1.014,-1.1044,-1.233,-1.2946,-1.3495,-1.4293,-1.5126,-1.5745,-1.6877,6.1041,6.0962,6.0836,6.0681,6.0514,6.0208,5.9973,5.9772,5.9378,5.914,5.9044,5.8821,5.8698,5.8656,5.8505,5.8418,5.8286,5.8097,5.7317,5.6547,5.6722,5.639,5.5559,5.4932,5.408,5.266,5.2008,5.1354,5.0832,5.0999,5.1569,5.2012,5.2257,5.2257,5.1916,5.1257,5.0218,4.8829,4.7439,4.5703,4.3906,4.3714,4.4266,4.5461,4.7056,4.8934,5.0687,5.217,5.3399,5.3888,5.3564,5.3055,5.2864,5.3434,5.4287,5.4437,5.5174,5.5574,5.5825,5.6024,5.585,5.5127,5.5093,5.482,5.4324,5.4393,5.4774,5.5352,5.5924,5.6906,5.8233,5.7412,5.7216,5.7213,5.6478,5.6031,5.5117,5.2753,5.1437,5.1665,5.1714,5.0772,4.9731,4.891,4.7874,4.7202,4.7665,4.7623,4.6299,4.5077,4.4304,4.2393,3.9864,3.3799,2.9658,2.5242,1.9115,1.7698,1.5276,1.2956,1.0246,0.6928,0.4562,0.1604,-0.2323,-0.6937,-0.9894,-1.1264,-1.2493,-1.3562,-1.4792,-1.5772,-1.6881,-1.8086,-1.9377,6.0916,6.075,6.0719,6.0546,6.0265,6.0023,5.9739,5.947,5.9197,5.9044,5.8921,5.8758,5.8698,5.8656,5.8553,5.8381,5.8168,5.7996,5.7776,5.7354,5.7501,5.7186,5.6933,5.6446,5.5561,5.4258,5.3047,5.1878,5.1227,5.1262,5.1983,5.2358,5.2617,5.2617,5.2405,5.1975,5.1431,5.0245,4.8805,4.7042,4.5454,4.4554,4.4802,4.5957,4.7553,4.9304,5.084,5.2084,5.2847,5.3252,5.3459,5.3223,5.309,5.3696,5.444,5.4986,5.5432,5.577,5.5952,5.6135,5.5847,5.5337,5.5316,5.5305,5.5035,5.5061,5.5689,5.647,5.6866,5.7386,5.805,5.7493,5.6454,5.5826,5.5294,5.4667,5.3328,5.2086,5.1767,5.2832,5.2787,5.2381,5.1158,5.0356,4.9848,4.9287,4.9413,4.9545,4.8826,4.7564,4.6428,4.4042,4.1179,3.3687,2.6382,2.1804,1.7239,1.7473,1.5763,1.3478,1.0209,0.5285,0.1874,-0.0113,-0.3576,-0.7985,-1.0224,-1.1492,-1.2846,-1.4083,-1.5665,-1.7335,-1.8847,-2.0229,-2.1387,6.0652,6.0533,6.0494,6.0265,6.0,5.9711,5.9434,5.9197,5.8966,5.8843,5.8799,5.8716,5.8698,5.8656,5.8572,5.8196,5.78,5.8023,5.7804,5.7556,5.7712,5.7886,5.7763,5.7437,5.6323,5.5098,5.4028,5.3103,5.2304,5.2643,5.2848,5.3204,5.3544,5.3644,5.3426,5.3552,5.2965,5.1838,5.0218,4.8442,4.6553,4.5367,4.5132,4.6232,4.7997,4.9806,5.1213,5.277,5.358,5.3935,5.4224,5.4173,5.4177,5.4377,5.4784,5.501,5.5458,5.5863,5.6048,5.6239,5.6193,5.5998,5.6163,5.6455,5.6446,5.6553,5.6706,5.7185,5.745,5.7613,5.8317,5.7405,5.638,5.5282,5.4459,5.3514,5.252,5.1345,5.2011,5.3301,5.276,5.2143,5.1955,5.1498,5.1572,5.1473,5.1262,5.121,5.117,5.004,4.8718,4.6066,4.2961,3.6447,2.9256,2.4506,1.9894,1.9112,1.7312,1.5014,1.1434,0.7052,0.2924,-0.0112,-0.4304,-0.8543,-1.0493,-1.1673,-1.3199,-1.4834,-1.6788,-1.8717,-2.0677,-2.2333,-2.337,6.0449,6.0321,6.0227,6.0,5.9763,5.9436,5.9178,5.8984,5.8803,5.8698,5.8698,5.8698,5.8656,5.8614,5.8412,5.7962,5.7206,5.7886,5.7629,5.7317,5.7611,5.7886,5.7857,5.748,5.6693,5.558,5.5221,5.4595,5.3402,5.3549,5.3796,5.3863,5.4506,5.4701,5.4273,5.4556,5.4381,5.3154,5.1453,4.9536,4.7542,4.5681,4.5147,4.6413,4.8716,5.0416,5.161,5.3324,5.4331,5.4692,5.4933,5.5119,5.5243,5.5345,5.5109,5.4821,5.5442,5.5855,5.6112,5.6336,5.6533,5.6697,5.7301,5.7555,5.7613,5.74,5.7556,5.7623,5.7585,5.776,5.818,5.7462,5.6463,5.5423,5.3996,5.2728,5.2279,5.1504,5.0723,5.1448,5.1727,5.2073,5.2115,5.2935,5.3122,5.3243,5.3053,5.3639,5.3458,5.2388,5.0819,4.8206,4.4569,3.925,3.3901,3.0135,2.6288,2.4119,2.1341,1.8249,1.4129,0.9669,0.5629,0.1324,-0.3859,-0.7609,-0.9781,-1.2285,-1.4256,-1.6234,-1.8156,-2.0034,-2.2051,-2.337,-2.4299,6.0351,6.0129,6.0129,5.9912,5.9613,5.9419,5.9178,5.9003,5.8781,5.8698,5.8698,5.8698,5.8614,5.8425,5.816,5.7905,5.7729,5.7551,5.7473,5.7279,5.7443,5.7534,5.7553,5.7239,5.6634,5.5826,5.5766,5.4705,5.3873,5.3922,5.3856,5.3971,5.4763,5.4939,5.4624,5.5385,5.469,5.3284,5.1577,4.9163,4.6525,4.4636,4.5274,4.698,4.9006,5.0645,5.1917,5.3635,5.4765,5.5034,5.5255,5.5377,5.5384,5.5384,5.5421,5.5458,5.5692,5.5949,5.6097,5.6356,5.6717,5.7126,5.7574,5.7691,5.7711,5.7692,5.7683,5.7683,5.7573,5.7636,5.7729,5.6916,5.6114,5.5188,5.4038,5.3134,5.2494,5.1419,5.0673,5.1105,5.1878,5.2327,5.2552,5.3713,5.469,5.4819,5.5009,5.5522,5.577,5.4726,5.2761,5.0126,4.8235,4.3287,3.9594,3.5654,3.239,2.9602,2.526,2.1541,1.7168,1.2793,0.8011,0.3482,-0.1679,-0.6628,-0.956,-1.226,-1.5232,-1.7919,-2.0101,-2.1723,-2.3263,-2.4408,-2.5177,6.0237,6.0099,6.0045,5.9834,5.9616,5.9364,5.9196,5.9003,5.8762,5.8698,5.8698,5.8698,5.8449,5.806,5.7737,5.7346,5.7098,5.6978,5.6894,5.6912,5.6879,5.6897,5.6775,5.6582,5.6219,5.5865,5.5676,5.5442,5.4684,5.4845,5.5022,5.4581,5.5665,5.6081,5.5262,5.6326,5.586,5.4118,5.1275,4.8086,4.5902,4.5039,4.5438,4.6826,4.9052,5.0717,5.2203,5.3905,5.4943,5.5247,5.5668,5.5823,5.5384,5.5021,5.4842,5.5485,5.5731,5.5949,5.6097,5.6367,5.6738,5.7048,5.7418,5.7711,5.7711,5.7663,5.742,5.703,5.7001,5.7098,5.7153,5.6524,5.6091,5.5285,5.4205,5.3486,5.2647,5.1389,5.0719,5.1376,5.2049,5.2647,5.33,5.4298,5.5389,5.5971,5.6312,5.6873,5.736,5.7388,5.4931,5.1982,5.0373,4.8161,4.5131,4.1789,3.8371,3.4865,2.879,2.4943,2.0527,1.6022,1.1106,0.7155,0.3116,-0.2126,-0.7832,-1.3252,-1.7137,-1.9798,-2.2233,-2.3685,-2.5043,-2.4886,-2.5484,6.014,6.0087,5.995,5.9786,5.9562,5.9364,5.9178,5.8984,5.8762,5.8698,5.8656,5.8572,5.8168,5.7671,5.7315,5.6946,5.6438,5.6385,5.6349,5.633,5.6276,5.6294,5.6257,5.6035,5.5826,5.5461,5.5729,5.568,5.5812,5.6006,5.5965,5.5341,5.6303,5.6465,5.6245,5.6528,5.6436,5.3959,4.9905,4.6838,4.5149,4.5002,4.5582,4.6891,4.8684,5.0823,5.2281,5.4154,5.5168,5.5739,5.645,5.6587,5.588,5.5422,5.5192,5.557,5.575,5.614,5.6437,5.6753,5.6777,5.699,5.7215,5.7702,5.7653,5.7537,5.7177,5.6534,5.6495,5.6476,5.6388,5.6258,5.6029,5.5416,5.4516,5.3803,5.3012,5.1857,5.1257,5.1785,5.2543,5.3407,5.4126,5.4959,5.591,5.6907,5.7592,5.8139,5.8604,5.9039,5.7474,5.4655,5.3728,5.2294,5.0111,4.7193,4.407,3.9801,3.374,2.8605,2.4451,1.9178,1.3778,1.0222,0.7326,0.1651,-0.4489,-1.1882,-1.9021,-2.2071,-2.4639,-2.579,-2.6575,-2.6391,-2.6336,6.0188,6.0068,5.995,5.9767,5.9581,5.9383,5.9196,5.8984,5.8762,5.8698,5.8614,5.8356,5.7895,5.7364,5.7051,5.6688,5.6294,5.6365,5.6274,5.6201,5.6146,5.594,5.5826,5.5671,5.5706,5.5653,5.5844,5.6052,5.6311,5.6706,5.6476,5.6115,5.6715,5.6209,5.6071,5.6528,5.5611,5.2986,4.9134,4.6599,4.5258,4.4834,4.5026,4.6675,4.8453,5.0387,5.2324,5.4188,5.5637,5.6251,5.7126,5.7351,5.6625,5.6078,5.5804,5.6038,5.604,5.6546,5.713,5.7251,5.7478,5.7594,5.7556,5.7527,5.7584,5.6811,5.638,5.6258,5.6226,5.6207,5.6201,5.6132,5.5952,5.5517,5.4747,5.3996,5.3244,5.2487,5.2031,5.2332,5.2971,5.381,5.4661,5.5428,5.6106,5.7061,5.8258,5.885,5.9491,5.9836,5.9393,5.7945,5.7332,5.6105,5.4585,5.1701,4.8372,4.3754,3.8099,3.3184,2.8655,2.2928,1.6665,1.4001,1.0879,0.4866,-0.1393,-0.8744,-1.6075,-2.316,-2.7381,-2.9829,-2.9818,-2.905,-2.8739,6.0068,5.9963,5.9918,5.9786,5.9581,5.9383,5.9178,5.8984,5.8781,5.8656,5.8553,5.8205,5.7594,5.6927,5.6599,5.6257,5.5791,5.5883,5.5865,5.5751,5.5578,5.5378,5.5217,5.5277,5.5336,5.5595,5.5922,5.6402,5.6827,5.717,5.7377,5.7211,5.7149,5.6841,5.674,5.6455,5.5317,5.3427,5.0585,4.8381,4.7095,4.6376,4.64,4.7415,4.8645,5.0486,5.2332,5.3784,5.5198,5.6439,5.742,5.7542,5.7308,5.6601,5.6534,5.6912,5.6888,5.7292,5.7746,5.7612,5.7165,5.7507,5.7245,5.7028,5.7378,5.6686,5.6204,5.6063,5.6033,5.6013,5.5998,5.5935,5.5808,5.5518,5.4996,5.4246,5.355,5.2884,5.2729,5.3009,5.3466,5.41,5.4976,5.5823,5.6484,5.7198,5.843,5.9496,5.9911,6.0038,5.9404,5.8897,5.8142,5.7372,5.5797,5.4052,5.2319,4.7558,4.2405,3.7582,3.2559,2.5889,2.0346,1.768,1.4327,0.8869,0.2334,-0.5489,-1.3554,-2.2231,-2.9644,-3.5504,-3.441,-3.201,-3.1264,5.9963,5.9885,5.9904,5.9786,5.9581,5.9383,5.9178,5.8984,5.8721,5.8572,5.8381,5.7978,5.7266,5.6545,5.6294,5.6052,5.5769,5.5786,5.5711,5.5595,5.5402,5.4957,5.4807,5.4913,5.5319,5.5618,5.6128,5.674,5.7252,5.7534,5.769,5.7831,5.7895,5.7464,5.6832,5.6455,5.5893,5.4473,5.243,5.068,4.9269,4.8549,4.8091,4.8621,4.9529,5.0828,5.2349,5.3677,5.4995,5.6408,5.7542,5.8066,5.7736,5.7397,5.7347,5.7735,5.8118,5.8202,5.8493,5.7915,5.7166,5.7488,5.6823,5.6841,5.6956,5.6575,5.599,5.5864,5.5845,5.5826,5.5826,5.5789,5.5708,5.5467,5.5397,5.4765,5.4203,5.3623,5.3598,5.3702,5.4186,5.4679,5.5346,5.6191,5.6632,5.7206,5.7926,5.8812,5.9298,5.9267,5.8819,5.8362,5.7919,5.7143,5.625,5.5418,5.4429,5.1761,4.6632,4.1583,3.6095,2.953,2.4059,2.0802,1.7114,1.2639,0.686,0.0102,-1.0766,-2.2334,-2.9602,-3.6586,-3.6884,-3.4481,-3.3654,5.9904,5.9904,5.9885,5.9786,5.9581,5.9383,5.9178,5.8945,5.8638,5.8356,5.8115,5.7649,5.6982,5.6349,5.6237,5.6088,5.5996,5.6088,5.6088,5.5883,5.5578,5.5061,5.4852,5.4974,5.5478,5.5922,5.6492,5.7036,5.7583,5.7697,5.7904,5.8024,5.8078,5.7847,5.6849,5.6084,5.568,5.5251,5.3146,5.2059,5.1138,5.045,5.0019,5.0122,5.0572,5.1706,5.2772,5.3817,5.5193,5.674,5.8173,5.8639,5.8393,5.8736,5.8765,5.8645,5.8723,5.9088,5.9736,5.8431,5.7808,5.7562,5.6926,5.664,5.6897,5.6463,5.5769,5.5667,5.5684,5.5684,5.5662,5.564,5.5554,5.5516,5.5426,5.5151,5.4568,5.4323,5.4249,5.4284,5.4824,5.5411,5.5964,5.6514,5.686,5.728,5.766,5.8089,5.8514,5.8566,5.8192,5.7725,5.7376,5.7125,5.6677,5.733,5.6445,5.416,5.0938,4.6012,4.0611,3.4545,2.9356,2.4887,2.2123,1.9682,1.3241,0.6152,-0.5718,-1.7609,-2.8896,-3.5405,-3.6396,-3.7099,-3.6142,5.9872,5.9824,5.9719,5.9597,5.9419,5.9346,5.9158,5.8862,5.8381,5.7978,5.7649,5.7289,5.6688,5.6257,5.6237,5.6255,5.6201,5.6456,5.6456,5.6164,5.5844,5.5199,5.493,5.5131,5.5671,5.6201,5.6758,5.7307,5.7839,5.7904,5.795,5.8024,5.8301,5.8258,5.803,5.7568,5.7291,5.6127,5.5083,5.4349,5.3181,5.2482,5.21,5.2081,5.22,5.2688,5.3575,5.4537,5.5728,5.7199,5.8593,5.9125,5.9249,5.9749,5.9675,5.9766,5.9937,5.9406,5.9235,5.8315,5.7928,5.767,5.7009,5.667,5.7486,5.6359,5.5785,5.5523,5.5538,5.5538,5.5509,5.549,5.544,5.547,5.5374,5.5132,5.4779,5.4779,5.4747,5.4866,5.5243,5.5694,5.6224,5.6403,5.6699,5.6911,5.7203,5.7088,5.736,5.7708,5.7603,5.7073,5.6719,5.6758,5.6878,5.7343,5.7525,5.584,5.3711,5.0735,4.5162,3.9181,3.5959,3.2162,2.9706,2.6987,2.008,1.2027,-0.0369,-1.224,-2.203,-3.2484,-3.6933,-3.8093,-3.8507,5.982,5.9704,5.9508,5.9308,5.9082,5.9101,5.8926,5.8479,5.7987,5.7601,5.7257,5.6899,5.6438,5.6052,5.607,5.6292,5.633,5.6599,5.6922,5.6561,5.6085,5.5546,5.527,5.5296,5.5786,5.6366,5.6897,5.7437,5.7932,5.7978,5.807,5.8231,5.854,5.871,5.8691,5.8583,5.8359,5.7411,5.6871,5.6407,5.5594,5.5032,5.4547,5.4419,5.4324,5.4364,5.4912,5.5625,5.6454,5.7714,5.8678,5.9393,5.9792,6.0133,6.0173,6.0635,6.0732,6.0112,5.9512,5.8632,5.8383,5.8381,5.6897,5.6657,5.7223,5.6241,5.5705,5.5434,5.5422,5.5441,5.546,5.5441,5.5467,5.5492,5.5435,5.521,5.5277,5.5292,5.5439,5.5556,5.5639,5.6067,5.6306,5.6319,5.645,5.6582,5.6706,5.6508,5.632,5.6636,5.6892,5.6426,5.6086,5.6094,5.6472,5.7123,5.7233,5.7157,5.5449,5.3417,4.9167,4.3313,4.137,3.876,3.4054,2.9659,2.6205,1.8111,0.6806,-0.3261,-1.2448,-2.3374,-3.4903,-3.7074,-3.6439,5.9786,5.9562,5.9307,5.893,5.8669,5.8665,5.8301,5.7784,5.7492,5.7224,5.6935,5.651,5.6108,5.5786,5.5861,5.6052,5.642,5.6742,5.7047,5.7059,5.6635,5.6011,5.5653,5.561,5.5963,5.6402,5.6897,5.7437,5.7932,5.7978,5.816,5.8492,5.8769,5.9045,5.9215,5.9325,5.9082,5.8499,5.8267,5.7774,5.714,5.7043,5.6478,5.615,5.587,5.5988,5.632,5.6702,5.7218,5.7993,5.8822,5.9117,5.9568,6.0181,6.0596,6.0925,6.1155,6.0579,5.9902,5.8907,5.8236,5.7804,5.6676,5.6438,5.636,5.6083,5.5689,5.5619,5.5708,5.5613,5.5556,5.5581,5.5581,5.561,5.5593,5.5634,5.5813,5.596,5.6172,5.6277,5.6296,5.6458,5.6426,5.6409,5.6303,5.626,5.6285,5.6063,5.5884,5.5763,5.5912,5.5733,5.5473,5.5441,5.5943,5.6657,5.704,5.6983,5.6774,5.4839,5.0778,4.755,4.5233,4.1707,3.6284,3.2132,2.9372,2.3607,1.5184,0.5542,-0.3808,-1.4886,-2.6617,-2.996,-3.0361,5.965,5.9364,5.891,5.8628,5.8326,5.7766,5.7431,5.7198,5.7018,5.6794,5.6546,5.6199,5.5879,5.5572,5.5804,5.607,5.6561,5.7065,5.7369,5.7453,5.7437,5.6632,5.6168,5.6073,5.6246,5.6509,5.6897,5.7486,5.7904,5.7997,5.8249,5.8596,5.8968,5.9307,5.9662,5.9944,5.9487,5.9176,5.9121,5.8761,5.8223,5.7829,5.7511,5.7291,5.6439,5.6625,5.7179,5.739,5.7886,5.867,5.9548,6.0015,6.0173,6.045,6.0695,6.0925,6.0622,5.9973,5.9296,5.8342,5.7547,5.6983,5.6057,5.6191,5.6179,5.6046,5.5696,5.588,5.6116,5.6097,5.618,5.6206,5.6001,5.5853,5.5818,5.5826,5.599,5.6181,5.6398,5.6517,5.6558,5.6527,5.6484,5.6376,5.6246,5.6078,5.5949,5.5789,5.5532,5.5458,5.5201,5.5074,5.4891,5.4861,5.5401,5.6088,5.6529,5.681,5.6469,5.5902,5.323,5.0412,4.8533,4.5104,4.0366,3.6515,3.3228,2.6788,2.0118,1.3236,0.4144,-0.7043,-1.6601,-2.0103,-2.4042,5.951,5.914,5.8624,5.8131,5.7594,5.7036,5.6742,5.6742,5.6653,5.6546,5.6401,5.6032,5.5923,5.6047,5.6258,5.6631,5.729,5.7942,5.8409,5.867,5.8441,5.7568,5.7,5.6701,5.6635,5.6779,5.7018,5.7553,5.8005,5.8197,5.8363,5.8784,5.9159,5.9559,5.988,6.011,5.9979,5.9767,5.9604,5.9386,5.8959,5.852,5.8539,5.7938,5.6828,5.7103,5.7676,5.7867,5.8307,5.9071,5.9931,6.0398,6.0453,6.0506,6.066,6.0745,6.021,5.9796,5.9254,5.8048,5.7116,5.6387,5.5859,5.6007,5.6058,5.5938,5.6052,5.6282,5.6518,5.6722,5.6862,5.6931,5.6525,5.613,5.6039,5.5952,5.6082,5.6269,5.641,5.6558,5.6585,5.6559,5.6481,5.6363,5.6279,5.6193,5.6248,5.6282,5.5849,5.5377,5.5031,5.4724,5.4489,5.4331,5.4882,5.5285,5.5547,5.58,5.5717,5.5049,5.4036,5.1718,4.8371,4.666,4.4939,4.0325,3.491,3.098,2.4961,1.8136,1.2735,0.527,-0.3852,-1.073,-1.4911,5.9158,5.8833,5.8289,5.748,5.6635,5.6492,5.6455,5.6383,5.6455,5.6383,5.6346,5.612,5.6258,5.6445,5.6793,5.7341,5.7952,5.8556,5.9176,5.9946,5.9456,5.8692,5.8142,5.7712,5.7741,5.7405,5.7547,5.8324,5.8345,5.8773,5.9171,5.9211,5.972,6.0259,6.0634,6.0866,6.0915,6.0905,6.0733,6.0504,6.0055,5.9969,5.9816,5.8861,5.802,5.76,5.7791,5.7982,5.8211,5.9052,5.9701,6.016,6.0207,6.0242,6.038,6.0138,5.9562,5.9244,5.8778,5.7813,5.7159,5.6538,5.6124,5.6117,5.6066,5.6091,5.6282,5.7129,5.7545,5.7749,5.7933,5.7858,5.7524,5.6942,5.6576,5.635,5.6205,5.6348,5.6465,5.6575,5.6573,5.6542,5.6497,5.6391,5.6533,5.6426,5.6481,5.6643,5.6505,5.5864,5.5276,5.4821,5.4474,5.4205,5.3866,5.4208,5.4367,5.456,5.4655,5.3833,5.2518,5.024,4.7604,4.5849,4.4042,4.0284,3.5684,3.2031,2.8564,2.3828,1.917,1.6832,0.9868,0.0632,-0.5882,5.7716,5.7909,5.7666,5.7138,5.651,5.6401,5.6383,5.6383,5.6383,5.6383,5.6435,5.6635,5.6717,5.6761,5.7437,5.7885,5.8182,5.9224,5.9554,6.0121,6.0196,5.9928,5.9501,5.9284,5.915,5.9112,5.9256,5.9468,5.9817,6.0203,6.0594,6.1054,6.1293,6.1506,6.1723,6.1974,6.2051,6.1975,6.1936,6.1134,6.0064,5.8994,5.8268,5.781,5.7275,5.7141,5.7256,5.7371,5.802,5.8861,5.9205,5.9396,5.9415,5.9515,5.923,5.8832,5.8654,5.8346,5.7909,5.731,5.6766,5.622,5.5881,5.6083,5.6238,5.6288,5.6824,5.7908,5.8553,5.8763,5.8875,5.8742,5.8485,5.7814,5.7156,5.679,5.6427,5.6484,5.6597,5.6543,5.6558,5.6581,5.6566,5.664,5.6699,5.6816,5.6902,5.7052,5.7353,5.6987,5.6187,5.5653,5.4838,5.4393,5.372,5.3081,5.3225,5.3429,5.3584,5.249,5.096,4.8247,4.5587,4.4177,4.206,3.8986,3.6465,3.3953,3.0422,2.6846,2.4162,2.1064,1.8167,1.0426,0.4147,5.6818,5.6908,5.6802,5.6644,5.6402,5.6383,5.6383,5.6383,5.6383,5.6383,5.6508,5.6944,5.7188,5.7399,5.8174,5.8817,5.9054,5.9929,6.0496,6.0866,6.0981,6.0842,6.0699,6.0539,6.0033,6.0001,6.0225,6.0563,6.1111,6.127,6.1539,6.2033,6.2349,6.2585,6.2749,6.2871,6.2987,6.2853,6.2987,6.2108,6.0637,5.9969,5.93,5.8727,5.7829,5.7466,5.7428,5.7695,5.8593,5.9319,5.9739,5.9797,5.9587,5.9041,5.852,5.8094,5.7742,5.7316,5.6925,5.6541,5.628,5.6026,5.6041,5.646,5.7781,5.7953,5.8067,5.898,5.9138,5.9323,5.9738,5.9765,5.9455,5.8913,5.8292,5.7828,5.7412,5.7202,5.6959,5.6541,5.6756,5.7232,5.7333,5.7732,5.7798,5.7838,5.7834,5.7805,5.8012,5.7876,5.7146,5.635,5.5488,5.4461,5.3608,5.2726,5.2065,5.2272,5.2529,5.0343,4.8322,4.5872,4.3566,4.2349,4.0873,3.8947,3.643,3.4722,3.2608,2.9259,2.7039,2.4931,2.1938,1.8998,1.3175,5.6028,5.5802,5.5939,5.6055,5.6259,5.6347,5.6311,5.6258,5.6347,5.6311,5.6437,5.7257,5.7814,5.8391,5.9295,6.0047,6.0636,6.0836,6.1379,6.1658,6.1878,6.1679,6.1442,6.1202,6.1047,6.1025,6.1198,6.1556,6.1983,6.2291,6.2616,6.2602,6.28,6.3066,6.3108,6.3214,6.3484,6.356,6.356,6.3408,6.2777,6.2166,6.1153,6.0102,5.9166,5.8326,5.8479,5.8899,5.9701,6.0179,6.0485,6.0198,5.9587,5.8727,5.7829,5.7321,5.678,5.6543,5.6338,5.5921,5.6127,5.637,5.6638,5.741,5.8719,5.9298,5.9407,5.9675,5.986,6.0036,6.046,6.0627,6.0278,5.9834,5.9259,5.873,5.8309,5.7877,5.7342,5.6813,5.7203,5.7757,5.8172,5.8598,5.8733,5.8792,5.8792,5.8814,5.8684,5.8253,5.7689,5.6821,5.5963,5.4875,5.3718,5.2564,5.1649,5.1384,5.1253,4.842,4.5927,4.4132,4.2368,4.0827,3.9325,3.8279,3.7364,3.592,3.3638,3.1826,2.9963,2.8086,2.5964,2.3043,2.0083,5.4312,5.4319,5.5248,5.5594,5.5526,5.6097,5.6044,5.5616,5.6115,5.6098,5.6367,5.8017,5.8987,5.8869,6.0282,6.1037,6.1135,6.1472,6.1658,6.1842,6.2185,6.2287,6.2205,6.189,6.2383,6.2509,6.2548,6.309,6.2872,6.3521,6.4187,6.4201,6.4476,6.4676,6.4715,6.4668,6.4392,6.4297,6.4354,6.4354,6.3923,6.3064,6.1765,6.0981,6.0465,6.0064,5.9988,6.0045,6.0618,6.1096,6.1287,6.0714,5.9778,5.8708,5.7695,5.6912,5.6288,5.6179,5.6031,5.6002,5.6386,5.687,5.722,5.7881,5.895,5.9723,6.0017,6.0629,6.0774,6.0755,6.105,6.1142,6.0927,6.0292,5.9701,5.9343,5.8951,5.8495,5.8004,5.7855,5.7992,5.8442,5.8818,5.9088,5.9113,5.9107,5.8985,5.8978,5.888,5.8516,5.8109,5.7244,5.6345,5.5238,5.4038,5.2564,5.1627,5.1128,4.9936,4.7267,4.4922,4.3138,4.1415,3.9717,3.915,3.8516,3.7524,3.706,3.6351,3.4736,3.3066,3.1153,2.9207,2.6733,2.3516]}]]